Wetterdaten: Sonntag, 18.06.2017
Datum Zeit Temp. A. Pool Temp. Feuchte A. Luftdruck Regen Wind Richtung Richtung Sonnenschein ET UV Solar Taupunkt Windchill Windben Empfang
18.06.2017 00:00 15,7 C 22,8 C 60 % 1022,6 hPa 0,0 l/m 5,1 km/h (1 Bft) W 274 0 min 0,000 mm 0,0 UV-I 0 W/m 8,0 C 15,7 C 6,4 km/h (2 Bft) 96,00 %
18.06.2017 00:02 15,7 C 22,8 C 60 % 1022,6 hPa 0,0 l/m 5,8 km/h (2 Bft) W 260 0 min 0,000 mm 0,0 UV-I 0 W/m 8,0 C 15,7 C 9,7 km/h (2 Bft) 95,65 %
18.06.2017 00:04 15,7 C 22,8 C 60 % 1022,5 hPa 0,0 l/m 6,6 km/h (2 Bft) W 261 0 min 0,000 mm 0,0 UV-I 0 W/m 8,0 C 15,6 C 9,7 km/h (2 Bft) 100,00 %
18.06.2017 00:06 15,6 C 22,8 C 60 % 1022,6 hPa 0,0 l/m 6,8 km/h (2 Bft) SW 236 0 min 0,000 mm 0,0 UV-I 0 W/m 7,9 C 15,4 C 11,3 km/h (2 Bft) 98,11 %
18.06.2017 00:08 15,6 C 22,8 C 60 % 1022,6 hPa 0,0 l/m 6,0 km/h (2 Bft) W-SW 252 0 min 0,000 mm 0,0 UV-I 0 W/m 7,9 C 15,6 C 12,9 km/h (3 Bft) 100,00 %
18.06.2017 00:10 15,6 C 22,8 C 60 % 1022,6 hPa 0,0 l/m 6,1 km/h (2 Bft) W-SW 254 0 min 0,000 mm 0,0 UV-I 0 W/m 7,9 C 15,6 C 9,7 km/h (2 Bft) 97,87 %
18.06.2017 00:12 15,5 C 22,8 C 61 % 1022,6 hPa 0,0 l/m 5,9 km/h (2 Bft) W 276 0 min 0,000 mm 0,0 UV-I 0 W/m 8,0 C 15,5 C 9,7 km/h (2 Bft) 100,00 %
18.06.2017 00:14 15,4 C 22,8 C 61 % 1022,6 hPa 0,0 l/m 6,7 km/h (2 Bft) W-SW 255 0 min 0,000 mm 0,0 UV-I 0 W/m 7,9 C 15,2 C 12,9 km/h (3 Bft) 95,83 %
18.06.2017 00:16 15,4 C 22,8 C 61 % 1022,5 hPa 0,0 l/m 6,3 km/h (2 Bft) W-SW 242 0 min 0,000 mm 0,0 UV-I 0 W/m 7,9 C 15,4 C 11,3 km/h (2 Bft) 98,51 %
18.06.2017 00:18 15,4 C 22,8 C 62 % 1022,5 hPa 0,0 l/m 7,5 km/h (2 Bft) W-SW 257 0 min 0,000 mm 0,0 UV-I 0 W/m 8,2 C 14,8 C 11,3 km/h (2 Bft) 98,00 %
18.06.2017 00:20 15,3 C 22,8 C 62 % 1022,5 hPa 0,0 l/m 7,0 km/h (2 Bft) W-SW 248 0 min 0,000 mm 0,0 UV-I 0 W/m 8,1 C 15,0 C 11,3 km/h (2 Bft) 97,78 %
18.06.2017 00:22 15,3 C 22,8 C 62 % 1022,5 hPa 0,0 l/m 7,3 km/h (2 Bft) W-SW 242 0 min 0,000 mm 0,0 UV-I 0 W/m 8,1 C 14,8 C 11,3 km/h (2 Bft) 100,00 %
18.06.2017 00:24 15,2 C 22,8 C 62 % 1022,5 hPa 0,0 l/m 7,0 km/h (2 Bft) W-SW 252 0 min 0,000 mm 0,0 UV-I 0 W/m 8,0 C 14,9 C 11,3 km/h (2 Bft) 97,87 %
18.06.2017 00:26 15,2 C 22,8 C 62 % 1022,5 hPa 0,0 l/m 6,0 km/h (2 Bft) W-SW 252 0 min 0,000 mm 0,0 UV-I 0 W/m 8,0 C 15,2 C 9,7 km/h (2 Bft) 100,00 %
18.06.2017 00:28 15,2 C 22,8 C 62 % 1022,6 hPa 0,0 l/m 5,7 km/h (1 Bft) W-SW 250 0 min 0,000 mm 0,0 UV-I 0 W/m 8,0 C 15,2 C 8,0 km/h (2 Bft) 96,23 %
18.06.2017 00:30 15,1 C 22,8 C 62 % 1022,5 hPa 0,0 l/m 7,0 km/h (2 Bft) W-SW 248 0 min 0,000 mm 0,0 UV-I 0 W/m 7,9 C 14,8 C 11,3 km/h (2 Bft) 98,00 %
18.06.2017 00:32 15,1 C 22,8 C 62 % 1022,6 hPa 0,0 l/m 6,5 km/h (2 Bft) W-SW 248 0 min 0,000 mm 0,0 UV-I 0 W/m 7,9 C 15,1 C 11,3 km/h (2 Bft) 100,00 %
18.06.2017 00:34 15,1 C 22,8 C 62 % 1022,6 hPa 0,0 l/m 5,9 km/h (2 Bft) W-SW 255 0 min 0,000 mm 0,0 UV-I 0 W/m 7,9 C 15,1 C 8,0 km/h (2 Bft) 95,12 %
18.06.2017 00:36 15,0 C 22,8 C 63 % 1022,6 hPa 0,0 l/m 6,8 km/h (2 Bft) W-SW 245 0 min 0,000 mm 0,0 UV-I 0 W/m 8,0 C 14,8 C 11,3 km/h (2 Bft) 96,43 %
18.06.2017 00:38 15,0 C 22,8 C 63 % 1022,6 hPa 0,0 l/m 5,9 km/h (2 Bft) W-SW 250 0 min 0,000 mm 0,0 UV-I 0 W/m 8,0 C 15,0 C 8,0 km/h (2 Bft) 98,00 %
18.06.2017 00:40 14,9 C 22,8 C 63 % 1022,6 hPa 0,0 l/m 4,7 km/h (1 Bft) W-SW 241 0 min 0,000 mm 0,0 UV-I 0 W/m 7,9 C 14,9 C 6,4 km/h (2 Bft) 92,00 %
18.06.2017 00:42 14,9 C 22,8 C 63 % 1022,6 hPa 0,0 l/m 4,7 km/h (1 Bft) W-SW 241 0 min 0,000 mm 0,0 UV-I 0 W/m 7,9 C 14,9 C 6,4 km/h (2 Bft) 97,37 %
18.06.2017 00:44 14,8 C 22,8 C 63 % 1022,6 hPa 0,0 l/m 4,8 km/h (1 Bft) W-SW 242 0 min 0,000 mm 0,0 UV-I 0 W/m 7,8 C 14,8 C 6,4 km/h (2 Bft) 94,34 %
18.06.2017 00:46 14,8 C 22,8 C 63 % 1022,6 hPa 0,0 l/m 4,5 km/h (1 Bft) W-SW 242 0 min 0,000 mm 0,0 UV-I 0 W/m 7,8 C 14,8 C 6,4 km/h (2 Bft) 95,12 %
18.06.2017 00:48 14,8 C 22,8 C 64 % 1022,6 hPa 0,0 l/m 3,6 km/h (1 Bft) W-SW 256 0 min 0,000 mm 0,0 UV-I 0 W/m 8,1 C 14,8 C 8,0 km/h (2 Bft) 98,00 %
18.06.2017 00:50 14,7 C 22,8 C 65 % 1022,6 hPa 0,0 l/m 2,7 km/h (1 Bft) W-SW 256 0 min 0,000 mm 0,0 UV-I 0 W/m 8,2 C 14,7 C 4,8 km/h (1 Bft) 98,11 %
18.06.2017 00:52 14,6 C 22,8 C 65 % 1022,6 hPa 0,0 l/m 1,4 km/h (1 Bft) W-SW 256 0 min 0,000 mm 0,0 UV-I 0 W/m 8,1 C 14,6 C 3,2 km/h (1 Bft) 94,74 %
18.06.2017 00:54 14,4 C 22,8 C 66 % 1022,6 hPa 0,0 l/m 0,5 km/h (0 Bft) W-SW 256 0 min 0,000 mm 0,0 UV-I 0 W/m 8,1 C 14,4 C 1,6 km/h (1 Bft) 98,11 %
18.06.2017 00:56 14,2 C 22,8 C 66 % 1022,6 hPa 0,0 l/m 1,5 km/h (1 Bft) W-SW 256 0 min 0,000 mm 0,0 UV-I 0 W/m 7,9 C 14,2 C 3,2 km/h (1 Bft) 93,62 %
18.06.2017 00:58 14,1 C 22,8 C 67 % 1022,6 hPa 0,0 l/m 0,0 km/h (0 Bft) W-SW 256 0 min 0,000 mm 0,0 UV-I 0 W/m 8,1 C 14,1 C 1,6 km/h (1 Bft) 93,62 %
18.06.2017 01:00 13,9 C 22,8 C 67 % 1022,7 hPa 0,0 l/m 0,5 km/h (0 Bft) W-SW 256 0 min 0,025 mm 0,0 UV-I 0 W/m 7,9 C 13,9 C 1,6 km/h (1 Bft) 100,00 %
18.06.2017 01:02 13,9 C 22,8 C 68 % 1022,6 hPa 0,0 l/m 1,4 km/h (1 Bft) W-SW 256 0 min 0,000 mm 0,0 UV-I 0 W/m 8,1 C 13,9 C 3,2 km/h (1 Bft) 96,00 %
18.06.2017 01:04 13,9 C 22,8 C 68 % 1022,7 hPa 0,0 l/m 1,7 km/h (1 Bft) W-SW 256 0 min 0,000 mm 0,0 UV-I 0 W/m 8,1 C 13,9 C 3,2 km/h (1 Bft) 97,87 %
18.06.2017 01:06 13,9 C 22,8 C 68 % 1022,7 hPa 0,0 l/m 2,6 km/h (1 Bft) W-SW 256 0 min 0,000 mm 0,0 UV-I 0 W/m 8,1 C 13,9 C 3,2 km/h (1 Bft) 98,11 %
18.06.2017 01:08 13,8 C 22,8 C 68 % 1022,7 hPa 0,0 l/m 3,2 km/h (1 Bft) W-SW 256 0 min 0,000 mm 0,0 UV-I 0 W/m 8,0 C 13,8 C 4,8 km/h (1 Bft) 94,00 %
18.06.2017 01:10 13,8 C 22,8 C 69 % 1022,7 hPa 0,0 l/m 3,6 km/h (1 Bft) W-SW 256 0 min 0,000 mm 0,0 UV-I 0 W/m 8,2 C 13,8 C 4,8 km/h (1 Bft) 97,37 %
18.06.2017 01:12 13,7 C 22,8 C 69 % 1022,7 hPa 0,0 l/m 3,2 km/h (1 Bft) W-SW 256 0 min 0,000 mm 0,0 UV-I 0 W/m 8,1 C 13,7 C 4,8 km/h (1 Bft) 93,62 %
18.06.2017 01:14 13,7 C 22,8 C 69 % 1022,7 hPa 0,0 l/m 4,3 km/h (1 Bft) W-SW 256 0 min 0,000 mm 0,0 UV-I 0 W/m 8,1 C 13,7 C 6,4 km/h (2 Bft) 96,00 %
18.06.2017 01:16 13,6 C 22,8 C 70 % 1022,7 hPa 0,0 l/m 3,7 km/h (1 Bft) W-SW 256 0 min 0,000 mm 0,0 UV-I 0 W/m 8,2 C 13,6 C 4,8 km/h (1 Bft) 94,00 %
18.06.2017 01:18 13,5 C 22,8 C 70 % 1022,6 hPa 0,0 l/m 3,8 km/h (1 Bft) W-SW 256 0 min 0,000 mm 0,0 UV-I 0 W/m 8,1 C 13,5 C 4,8 km/h (1 Bft) 95,45 %
18.06.2017 01:20 13,4 C 22,8 C 70 % 1022,6 hPa 0,0 l/m 5,2 km/h (1 Bft) W-SW 252 0 min 0,000 mm 0,0 UV-I 0 W/m 8,0 C 13,4 C 6,4 km/h (2 Bft) 98,11 %
18.06.2017 01:22 13,3 C 22,8 C 71 % 1022,6 hPa 0,0 l/m 4,7 km/h (1 Bft) W-SW 252 0 min 0,000 mm 0,0 UV-I 0 W/m 8,2 C 13,3 C 6,4 km/h (2 Bft) 95,45 %
18.06.2017 01:24 13,2 C 22,8 C 72 % 1022,6 hPa 0,0 l/m 4,1 km/h (1 Bft) W-SW 252 0 min 0,000 mm 0,0 UV-I 0 W/m 8,3 C 13,2 C 4,8 km/h (1 Bft) 92,11 %
18.06.2017 01:26 13,0 C 22,8 C 73 % 1022,6 hPa 0,0 l/m 3,5 km/h (1 Bft) W-SW 252 0 min 0,000 mm 0,0 UV-I 0 W/m 8,3 C 13,0 C 4,8 km/h (1 Bft) 96,00 %
18.06.2017 01:28 12,8 C 22,8 C 74 % 1022,6 hPa 0,0 l/m 3,3 km/h (1 Bft) W-SW 252 0 min 0,000 mm 0,0 UV-I 0 W/m 8,3 C 12,8 C 4,8 km/h (1 Bft) 96,00 %
18.06.2017 01:30 12,7 C 22,8 C 74 % 1022,7 hPa 0,0 l/m 2,2 km/h (1 Bft) W-SW 252 0 min 0,000 mm 0,0 UV-I 0 W/m 8,2 C 12,7 C 4,8 km/h (1 Bft) 97,87 %
18.06.2017 01:32 12,7 C 22,8 C 74 % 1022,7 hPa 0,0 l/m 0,5 km/h (0 Bft) W-SW 252 0 min 0,000 mm 0,0 UV-I 0 W/m 8,2 C 12,7 C 1,6 km/h (1 Bft) 92,31 %
18.06.2017 01:34 12,6 C 22,8 C 74 % 1022,7 hPa 0,0 l/m 1,9 km/h (1 Bft) W-SW 252 0 min 0,000 mm 0,0 UV-I 0 W/m 8,1 C 12,6 C 4,8 km/h (1 Bft) 96,36 %
18.06.2017 01:36 12,7 C 22,8 C 74 % 1022,7 hPa 0,0 l/m 2,7 km/h (1 Bft) W-SW 252 0 min 0,000 mm 0,0 UV-I 0 W/m 8,2 C 12,7 C 4,8 km/h (1 Bft) 95,24 %
18.06.2017 01:38 12,7 C 22,8 C 74 % 1022,7 hPa 0,0 l/m 3,6 km/h (1 Bft) W-SW 252 0 min 0,000 mm 0,0 UV-I 0 W/m 8,2 C 12,7 C 4,8 km/h (1 Bft) 96,15 %
18.06.2017 01:40 12,8 C 22,8 C 73 % 1022,7 hPa 0,0 l/m 3,5 km/h (1 Bft) W-SW 252 0 min 0,000 mm 0,0 UV-I 0 W/m 8,1 C 12,8 C 4,8 km/h (1 Bft) 91,67 %
18.06.2017 01:42 12,8 C 22,8 C 73 % 1022,7 hPa 0,0 l/m 1,9 km/h (1 Bft) W-SW 252 0 min 0,000 mm 0,0 UV-I 0 W/m 8,1 C 12,8 C 3,2 km/h (1 Bft) 96,43 %
18.06.2017 01:44 12,8 C 22,8 C 73 % 1022,7 hPa 0,0 l/m 1,5 km/h (1 Bft) W-SW 252 0 min 0,000 mm 0,0 UV-I 0 W/m 8,1 C 12,8 C 3,2 km/h (1 Bft) 98,11 %
18.06.2017 01:46 12,7 C 22,8 C 73 % 1022,7 hPa 0,0 l/m 2,5 km/h (1 Bft) W-SW 252 0 min 0,000 mm 0,0 UV-I 0 W/m 8,0 C 12,7 C 3,2 km/h (1 Bft) 97,37 %
18.06.2017 01:48 12,7 C 22,8 C 74 % 1022,7 hPa 0,0 l/m 2,3 km/h (1 Bft) W-SW 252 0 min 0,000 mm 0,0 UV-I 0 W/m 8,2 C 12,7 C 3,2 km/h (1 Bft) 98,00 %
18.06.2017 01:50 12,6 C 22,8 C 74 % 1022,7 hPa 0,0 l/m 1,9 km/h (1 Bft) W-SW 252 0 min 0,000 mm 0,0 UV-I 0 W/m 8,1 C 12,6 C 3,2 km/h (1 Bft) 98,00 %
18.06.2017 01:52 12,6 C 22,8 C 74 % 1022,7 hPa 0,0 l/m 1,7 km/h (1 Bft) W-SW 252 0 min 0,000 mm 0,0 UV-I 0 W/m 8,1 C 12,6 C 3,2 km/h (1 Bft) 97,56 %
18.06.2017 01:54 12,5 C 22,8 C 74 % 1022,7 hPa 0,0 l/m 1,6 km/h (1 Bft) W-SW 252 0 min 0,000 mm 0,0 UV-I 0 W/m 8,0 C 12,5 C 3,2 km/h (1 Bft) 94,34 %
18.06.2017 01:56 12,5 C 22,8 C 74 % 1022,7 hPa 0,0 l/m 1,2 km/h (1 Bft) W-SW 252 0 min 0,000 mm 0,0 UV-I 0 W/m 8,0 C 12,5 C 1,6 km/h (1 Bft) 100,00 %
18.06.2017 01:58 12,4 C 22,8 C 74 % 1022,7 hPa 0,0 l/m 1,6 km/h (1 Bft) W-SW 252 0 min 0,000 mm 0,0 UV-I 0 W/m 7,9 C 12,4 C 3,2 km/h (1 Bft) 95,12 %
18.06.2017 02:00 12,4 C 22,8 C 75 % 1022,7 hPa 0,0 l/m 2,0 km/h (1 Bft) W-SW 252 0 min 0,026 mm 0,0 UV-I 0 W/m 8,1 C 12,4 C 3,2 km/h (1 Bft) 96,43 %
18.06.2017 02:02 12,3 C 22,8 C 75 % 1022,7 hPa 0,0 l/m 2,7 km/h (1 Bft) W-SW 252 0 min 0,000 mm 0,0 UV-I 0 W/m 8,0 C 12,3 C 4,8 km/h (1 Bft) 96,23 %
18.06.2017 02:04 12,3 C 22,8 C 75 % 1022,7 hPa 0,0 l/m 4,0 km/h (1 Bft) W-SW 252 0 min 0,000 mm 0,0 UV-I 0 W/m 8,0 C 12,3 C 4,8 km/h (1 Bft) 95,12 %
18.06.2017 02:06 12,2 C 22,8 C 76 % 1022,6 hPa 0,0 l/m 3,4 km/h (1 Bft) W-SW 252 0 min 0,000 mm 0,0 UV-I 0 W/m 8,1 C 12,2 C 4,8 km/h (1 Bft) 100,00 %
18.06.2017 02:08 12,1 C 22,8 C 76 % 1022,6 hPa 0,0 l/m 1,7 km/h (1 Bft) W-SW 252 0 min 0,000 mm 0,0 UV-I 0 W/m 8,0 C 12,1 C 3,2 km/h (1 Bft) 96,00 %
18.06.2017 02:10 12,0 C 22,8 C 76 % 1022,6 hPa 0,0 l/m 1,5 km/h (1 Bft) W-SW 252 0 min 0,000 mm 0,0 UV-I 0 W/m 7,9 C 12,0 C 3,2 km/h (1 Bft) 100,00 %
18.06.2017 02:12 12,0 C 22,8 C 76 % 1022,7 hPa 0,0 l/m 1,5 km/h (1 Bft) W-SW 252 0 min 0,000 mm 0,0 UV-I 0 W/m 7,9 C 12,0 C 3,2 km/h (1 Bft) 100,00 %
18.06.2017 02:14 11,9 C 22,8 C 76 % 1022,7 hPa 0,0 l/m 2,1 km/h (1 Bft) W-SW 252 0 min 0,000 mm 0,0 UV-I 0 W/m 7,8 C 11,9 C 4,8 km/h (1 Bft) 100,00 %
18.06.2017 02:16 11,9 C 22,8 C 76 % 1022,7 hPa 0,0 l/m 4,3 km/h (1 Bft) W-SW 252 0 min 0,000 mm 0,0 UV-I 0 W/m 7,8 C 11,9 C 6,4 km/h (2 Bft) 100,00 %
18.06.2017 02:18 12,0 C 22,8 C 76 % 1022,7 hPa 0,0 l/m 4,0 km/h (1 Bft) W-SW 252 0 min 0,000 mm 0,0 UV-I 0 W/m 7,9 C 12,0 C 4,8 km/h (1 Bft) 98,00 %
18.06.2017 02:20 12,1 C 22,8 C 76 % 1022,7 hPa 0,0 l/m 4,0 km/h (1 Bft) W-SW 252 0 min 0,000 mm 0,0 UV-I 0 W/m 8,0 C 12,1 C 6,4 km/h (2 Bft) 98,00 %
18.06.2017 02:22 12,1 C 22,8 C 76 % 1022,7 hPa 0,0 l/m 4,4 km/h (1 Bft) W-SW 252 0 min 0,000 mm 0,0 UV-I 0 W/m 8,0 C 12,1 C 6,4 km/h (2 Bft) 100,00 %
18.06.2017 02:24 12,1 C 22,8 C 76 % 1022,7 hPa 0,0 l/m 4,1 km/h (1 Bft) W-SW 252 0 min 0,000 mm 0,0 UV-I 0 W/m 8,0 C 12,1 C 4,8 km/h (1 Bft) 98,00 %
18.06.2017 02:26 12,1 C 22,8 C 76 % 1022,7 hPa 0,0 l/m 3,4 km/h (1 Bft) W-SW 252 0 min 0,000 mm 0,0 UV-I 0 W/m 8,0 C 12,1 C 4,8 km/h (1 Bft) 100,00 %
18.06.2017 02:28 12,2 C 22,8 C 76 % 1022,7 hPa 0,0 l/m 3,4 km/h (1 Bft) W-SW 252 0 min 0,000 mm 0,0 UV-I 0 W/m 8,1 C 12,2 C 4,8 km/h (1 Bft) 95,74 %
18.06.2017 02:30 12,2 C 22,8 C 75 % 1022,7 hPa 0,0 l/m 3,5 km/h (1 Bft) W-SW 252 0 min 0,000 mm 0,0 UV-I 0 W/m 7,9 C 12,2 C 6,4 km/h (2 Bft) 97,87 %
18.06.2017 02:32 12,1 C 22,2 C 76 % 1022,7 hPa 0,0 l/m 2,4 km/h (1 Bft) W-SW 252 0 min 0,000 mm 0,0 UV-I 0 W/m 8,0 C 12,1 C 4,8 km/h (1 Bft) 100,00 %
18.06.2017 02:34 12,1 C 22,8 C 76 % 1022,7 hPa 0,0 l/m 2,0 km/h (1 Bft) W-SW 252 0 min 0,000 mm 0,0 UV-I 0 W/m 8,0 C 12,1 C 4,8 km/h (1 Bft) 97,87 %
18.06.2017 02:36 12,0 C 22,8 C 76 % 1022,8 hPa 0,0 l/m 1,4 km/h (1 Bft) W-SW 252 0 min 0,000 mm 0,0 UV-I 0 W/m 7,9 C 12,0 C 3,2 km/h (1 Bft) 100,00 %
18.06.2017 02:38 11,9 C 22,8 C 76 % 1022,8 hPa 0,0 l/m 2,5 km/h (1 Bft) W-SW 250 0 min 0,000 mm 0,0 UV-I 0 W/m 7,8 C 11,9 C 4,8 km/h (1 Bft) 98,00 %
18.06.2017 02:40 11,8 C 22,2 C 77 % 1022,9 hPa 0,0 l/m 4,1 km/h (1 Bft) S-SW 195 0 min 0,000 mm 0,0 UV-I 0 W/m 7,9 C 11,8 C 4,8 km/h (1 Bft) 97,87 %
18.06.2017 02:42 11,7 C 22,8 C 77 % 1022,9 hPa 0,0 l/m 3,9 km/h (1 Bft) S-SW 195 0 min 0,000 mm 0,0 UV-I 0 W/m 7,8 C 11,7 C 4,8 km/h (1 Bft) 96,00 %
18.06.2017 02:44 11,7 C 22,8 C 77 % 1022,9 hPa 0,0 l/m 3,2 km/h (1 Bft) S-SW 195 0 min 0,000 mm 0,0 UV-I 0 W/m 7,8 C 11,7 C 4,8 km/h (1 Bft) 100,00 %
18.06.2017 02:46 11,7 C 22,2 C 77 % 1022,8 hPa 0,0 l/m 0,4 km/h (0 Bft) S-SW 195 0 min 0,000 mm 0,0 UV-I 0 W/m 7,8 C 11,7 C 1,6 km/h (1 Bft) 95,12 %
18.06.2017 02:48 11,7 C 22,2 C 77 % 1022,8 hPa 0,0 l/m 1,3 km/h (1 Bft) S-SW 195 0 min 0,000 mm 0,0 UV-I 0 W/m 7,8 C 11,7 C 3,2 km/h (1 Bft) 98,11 %
18.06.2017 02:50 11,7 C 22,2 C 77 % 1022,8 hPa 0,0 l/m 2,8 km/h (1 Bft) S-SW 195 0 min 0,000 mm 0,0 UV-I 0 W/m 7,8 C 11,7 C 6,4 km/h (2 Bft) 95,74 %
18.06.2017 02:52 11,7 C 22,2 C 77 % 1022,8 hPa 0,0 l/m 2,5 km/h (1 Bft) S-SW 195 0 min 0,000 mm 0,0 UV-I 0 W/m 7,8 C 11,7 C 4,8 km/h (1 Bft) 95,74 %
18.06.2017 02:54 11,7 C 22,2 C 77 % 1022,8 hPa 0,0 l/m 2,3 km/h (1 Bft) S-SW 195 0 min 0,000 mm 0,0 UV-I 0 W/m 7,8 C 11,7 C 4,8 km/h (1 Bft) 97,78 %
18.06.2017 02:56 11,7 C 22,2 C 77 % 1022,8 hPa 0,0 l/m 2,4 km/h (1 Bft) S-SW 195 0 min 0,000 mm 0,0 UV-I 0 W/m 7,8 C 11,7 C 4,8 km/h (1 Bft) 94,87 %
18.06.2017 02:58 11,7 C 22,2 C 77 % 1022,8 hPa 0,0 l/m 3,6 km/h (1 Bft) S-SW 195 0 min 0,000 mm 0,0 UV-I 0 W/m 7,8 C 11,7 C 6,4 km/h (2 Bft) 98,00 %
18.06.2017 03:00 11,7 C 22,2 C 77 % 1022,8 hPa 0,0 l/m 4,0 km/h (1 Bft) S-SW 195 0 min 0,025 mm 0,0 UV-I 0 W/m 7,8 C 11,7 C 6,4 km/h (2 Bft) 96,00 %
18.06.2017 03:02 11,8 C 22,2 C 77 % 1022,7 hPa 0,0 l/m 3,4 km/h (1 Bft) S-SW 195 0 min 0,000 mm 0,0 UV-I 0 W/m 7,9 C 11,8 C 4,8 km/h (1 Bft) 94,00 %
18.06.2017 03:04 11,8 C 22,2 C 77 % 1022,8 hPa 0,0 l/m 3,9 km/h (1 Bft) S-SW 195 0 min 0,000 mm 0,0 UV-I 0 W/m 7,9 C 11,8 C 6,4 km/h (2 Bft) 97,87 %
18.06.2017 03:06 11,8 C 22,2 C 77 % 1022,8 hPa 0,0 l/m 4,0 km/h (1 Bft) S-SW 195 0 min 0,000 mm 0,0 UV-I 0 W/m 7,9 C 11,8 C 6,4 km/h (2 Bft) 90,24 %
18.06.2017 03:08 11,8 C 22,2 C 77 % 1022,8 hPa 0,0 l/m 3,5 km/h (1 Bft) S-SW 195 0 min 0,000 mm 0,0 UV-I 0 W/m 7,9 C 11,8 C 4,8 km/h (1 Bft) 98,11 %
18.06.2017 03:10 11,8 C 22,2 C 77 % 1022,8 hPa 0,0 l/m 3,6 km/h (1 Bft) S-SW 195 0 min 0,000 mm 0,0 UV-I 0 W/m 7,9 C 11,8 C 6,4 km/h (2 Bft) 93,62 %
18.06.2017 03:12 11,8 C 22,2 C 77 % 1022,8 hPa 0,0 l/m 2,2 km/h (1 Bft) S-SW 195 0 min 0,000 mm 0,0 UV-I 0 W/m 7,9 C 11,8 C 4,8 km/h (1 Bft) 95,74 %
18.06.2017 03:14 11,8 C 22,2 C 78 % 1022,7 hPa 0,0 l/m 2,5 km/h (1 Bft) S-SW 195 0 min 0,000 mm 0,0 UV-I 0 W/m 8,1 C 11,8 C 3,2 km/h (1 Bft) 97,73 %
18.06.2017 03:16 11,8 C 22,2 C 78 % 1022,7 hPa 0,0 l/m 2,0 km/h (1 Bft) S-SW 195 0 min 0,000 mm 0,0 UV-I 0 W/m 8,1 C 11,8 C 3,2 km/h (1 Bft) 94,00 %
18.06.2017 03:18 11,7 C 22,2 C 77 % 1022,8 hPa 0,0 l/m 1,4 km/h (1 Bft) S-SW 194 0 min 0,000 mm 0,0 UV-I 0 W/m 7,8 C 11,7 C 8,0 km/h (2 Bft) 95,74 %
18.06.2017 03:20 11,3 C 22,2 C 78 % 1022,8 hPa 0,0 l/m 5,5 km/h (1 Bft) NO 38 0 min 0,000 mm 0,0 UV-I 0 W/m 7,6 C 11,3 C 9,7 km/h (2 Bft) 97,37 %
18.06.2017 03:22 11,1 C 22,2 C 80 % 1022,8 hPa 0,0 l/m 0,6 km/h (0 Bft) NO 38 0 min 0,000 mm 0,0 UV-I 0 W/m 7,8 C 11,1 C 3,2 km/h (1 Bft) 98,11 %
18.06.2017 03:24 10,9 C 22,2 C 80 % 1022,9 hPa 0,0 l/m 2,6 km/h (1 Bft) O-NO 77 0 min 0,000 mm 0,0 UV-I 0 W/m 7,6 C 10,9 C 3,2 km/h (1 Bft) 100,00 %
18.06.2017 03:26 10,9 C 22,2 C 81 % 1022,9 hPa 0,0 l/m 3,5 km/h (1 Bft) SO 133 0 min 0,000 mm 0,0 UV-I 0 W/m 7,8 C 10,9 C 6,4 km/h (2 Bft) 98,21 %
18.06.2017 03:28 10,9 C 22,2 C 81 % 1022,9 hPa 0,0 l/m 3,6 km/h (1 Bft) SO 133 0 min 0,000 mm 0,0 UV-I 0 W/m 7,8 C 10,9 C 4,8 km/h (1 Bft) 100,00 %
18.06.2017 03:30 11,0 C 22,2 C 81 % 1022,9 hPa 0,0 l/m 2,8 km/h (1 Bft) SO 133 0 min 0,000 mm 0,0 UV-I 0 W/m 7,9 C 11,0 C 4,8 km/h (1 Bft) 95,56 %
18.06.2017 03:32 11,0 C 22,2 C 80 % 1022,8 hPa 0,0 l/m 3,0 km/h (1 Bft) SO 134 0 min 0,000 mm 0,0 UV-I 0 W/m 7,7 C 11,0 C 4,8 km/h (1 Bft) 98,00 %
18.06.2017 03:34 11,0 C 22,2 C 80 % 1022,8 hPa 0,0 l/m 3,2 km/h (1 Bft) SO 134 0 min 0,000 mm 0,0 UV-I 0 W/m 7,7 C 11,0 C 4,8 km/h (1 Bft) 100,00 %
18.06.2017 03:36 11,0 C 22,2 C 80 % 1022,9 hPa 0,0 l/m 3,0 km/h (1 Bft) SO 134 0 min 0,000 mm 0,0 UV-I 0 W/m 7,7 C 11,0 C 4,8 km/h (1 Bft) 95,74 %
18.06.2017 03:38 10,9 C 22,2 C 81 % 1022,8 hPa 0,0 l/m 3,0 km/h (1 Bft) SO 134 0 min 0,000 mm 0,0 UV-I 0 W/m 7,8 C 10,9 C 4,8 km/h (1 Bft) 100,00 %
18.06.2017 03:40 10,9 C 22,2 C 81 % 1022,9 hPa 0,0 l/m 3,8 km/h (1 Bft) SO 146 0 min 0,000 mm 0,0 UV-I 0 W/m 7,8 C 10,9 C 6,4 km/h (2 Bft) 96,00 %
18.06.2017 03:42 10,8 C 22,2 C 81 % 1022,9 hPa 0,0 l/m 4,2 km/h (1 Bft) S 171 0 min 0,000 mm 0,0 UV-I 0 W/m 7,7 C 10,8 C 8,0 km/h (2 Bft) 97,87 %
18.06.2017 03:44 10,8 C 22,2 C 81 % 1022,9 hPa 0,0 l/m 2,1 km/h (1 Bft) S 171 0 min 0,000 mm 0,0 UV-I 0 W/m 7,7 C 10,8 C 3,2 km/h (1 Bft) 97,87 %
18.06.2017 03:46 10,7 C 22,2 C 81 % 1023,0 hPa 0,0 l/m 2,7 km/h (1 Bft) S 171 0 min 0,000 mm 0,0 UV-I 0 W/m 7,6 C 10,7 C 6,4 km/h (2 Bft) 100,00 %
18.06.2017 03:48 10,6 C 22,2 C 81 % 1022,9 hPa 0,0 l/m 1,6 km/h (1 Bft) S 171 0 min 0,000 mm 0,0 UV-I 0 W/m 7,5 C 10,6 C 3,2 km/h (1 Bft) 97,87 %
18.06.2017 03:50 10,6 C 22,2 C 81 % 1022,9 hPa 0,0 l/m 1,4 km/h (1 Bft) S 171 0 min 0,000 mm 0,0 UV-I 0 W/m 7,5 C 10,6 C 3,2 km/h (1 Bft) 95,74 %
18.06.2017 03:52 10,6 C 22,2 C 82 % 1022,9 hPa 0,0 l/m 1,1 km/h (1 Bft) S 171 0 min 0,000 mm 0,0 UV-I 0 W/m 7,7 C 10,6 C 3,2 km/h (1 Bft) 96,00 %
18.06.2017 03:54 10,7 C 22,2 C 81 % 1022,9 hPa 0,0 l/m 1,6 km/h (1 Bft) S 171 0 min 0,000 mm 0,0 UV-I 0 W/m 7,6 C 10,7 C 6,4 km/h (2 Bft) 96,23 %
18.06.2017 03:56 10,7 C 22,2 C 81 % 1022,8 hPa 0,0 l/m 3,2 km/h (1 Bft) S 171 0 min 0,000 mm 0,0 UV-I 0 W/m 7,6 C 10,7 C 6,4 km/h (2 Bft) 97,37 %
18.06.2017 03:58 10,7 C 22,2 C 81 % 1022,8 hPa 0,0 l/m 5,8 km/h (2 Bft) S 177 0 min 0,000 mm 0,0 UV-I 0 W/m 7,6 C 10,7 C 8,0 km/h (2 Bft) 100,00 %
18.06.2017 04:00 10,7 C 22,2 C 81 % 1022,8 hPa 0,0 l/m 4,3 km/h (1 Bft) S 180 0 min 0,000 mm 0,0 UV-I 0 W/m 7,6 C 10,7 C 8,0 km/h (2 Bft) 94,34 %
18.06.2017 04:02 10,7 C 22,2 C 82 % 1022,9 hPa 0,0 l/m 3,8 km/h (1 Bft) S 184 0 min 0,000 mm 0,0 UV-I 0 W/m 7,8 C 10,7 C 4,8 km/h (1 Bft) 94,12 %
18.06.2017 04:04 10,7 C 22,2 C 82 % 1022,9 hPa 0,0 l/m 3,6 km/h (1 Bft) S 184 0 min 0,000 mm 0,0 UV-I 0 W/m 7,8 C 10,7 C 6,4 km/h (2 Bft) 100,00 %
18.06.2017 04:06 10,7 C 22,2 C 81 % 1022,9 hPa 0,0 l/m 2,0 km/h (1 Bft) S 184 0 min 0,000 mm 0,0 UV-I 0 W/m 7,6 C 10,7 C 3,2 km/h (1 Bft) 96,43 %
18.06.2017 04:08 10,7 C 22,2 C 82 % 1022,9 hPa 0,0 l/m 2,0 km/h (1 Bft) S 184 0 min 0,000 mm 0,0 UV-I 0 W/m 7,8 C 10,7 C 3,2 km/h (1 Bft) 100,00 %
18.06.2017 04:10 10,6 C 22,2 C 82 % 1022,9 hPa 0,0 l/m 3,2 km/h (1 Bft) S 184 0 min 0,000 mm 0,0 UV-I 0 W/m 7,7 C 10,6 C 4,8 km/h (1 Bft) 96,23 %
18.06.2017 04:12 10,6 C 22,2 C 82 % 1022,9 hPa 0,0 l/m 2,6 km/h (1 Bft) S 184 0 min 0,000 mm 0,0 UV-I 0 W/m 7,7 C 10,6 C 3,2 km/h (1 Bft) 97,50 %
18.06.2017 04:14 10,6 C 22,2 C 82 % 1022,9 hPa 0,0 l/m 3,0 km/h (1 Bft) S 184 0 min 0,000 mm 0,0 UV-I 0 W/m 7,7 C 10,6 C 4,8 km/h (1 Bft) 100,00 %
18.06.2017 04:16 10,7 C 22,2 C 82 % 1023,0 hPa 0,0 l/m 2,9 km/h (1 Bft) S 184 0 min 0,000 mm 0,0 UV-I 0 W/m 7,8 C 10,7 C 4,8 km/h (1 Bft) 96,00 %
18.06.2017 04:18 10,7 C 22,2 C 82 % 1023,0 hPa 0,0 l/m 3,7 km/h (1 Bft) S 184 0 min 0,000 mm 0,0 UV-I 0 W/m 7,8 C 10,7 C 6,4 km/h (2 Bft) 97,87 %
18.06.2017 04:20 10,7 C 22,2 C 81 % 1023,0 hPa 0,0 l/m 3,9 km/h (1 Bft) S 186 0 min 0,000 mm 0,0 UV-I 0 W/m 7,6 C 10,7 C 6,4 km/h (2 Bft) 95,45 %
18.06.2017 04:22 10,7 C 22,2 C 81 % 1023,0 hPa 0,0 l/m 3,2 km/h (1 Bft) S 186 0 min 0,000 mm 0,0 UV-I 0 W/m 7,6 C 10,7 C 4,8 km/h (1 Bft) 96,08 %
18.06.2017 04:24 10,7 C 22,2 C 82 % 1023,1 hPa 0,0 l/m 4,2 km/h (1 Bft) S 186 0 min 0,000 mm 0,0 UV-I 0 W/m 7,8 C 10,7 C 4,8 km/h (1 Bft) 97,87 %
18.06.2017 04:26 10,7 C 22,2 C 82 % 1023,0 hPa 0,0 l/m 4,2 km/h (1 Bft) S 189 0 min 0,000 mm 0,0 UV-I 0 W/m 7,8 C 10,7 C 6,4 km/h (2 Bft) 97,56 %
18.06.2017 04:28 10,7 C 22,2 C 82 % 1023,0 hPa 0,0 l/m 3,6 km/h (1 Bft) S 190 0 min 0,000 mm 0,0 UV-I 0 W/m 7,8 C 10,7 C 4,8 km/h (1 Bft) 98,11 %
18.06.2017 04:30 10,6 C 22,2 C 82 % 1023,1 hPa 0,0 l/m 3,3 km/h (1 Bft) S 189 0 min 0,000 mm 0,0 UV-I 0 W/m 7,7 C 10,6 C 4,8 km/h (1 Bft) 97,87 %
18.06.2017 04:32 10,6 C 22,2 C 82 % 1023,0 hPa 0,0 l/m 3,2 km/h (1 Bft) S 189 0 min 0,000 mm 0,0 UV-I 0 W/m 7,7 C 10,6 C 6,4 km/h (2 Bft) 97,37 %
18.06.2017 04:34 10,5 C 22,2 C 82 % 1023,1 hPa 0,0 l/m 2,5 km/h (1 Bft) S 189 0 min 0,000 mm 0,0 UV-I 0 W/m 7,6 C 10,5 C 4,8 km/h (1 Bft) 98,00 %
18.06.2017 04:36 10,4 C 22,2 C 82 % 1023,1 hPa 0,0 l/m 2,0 km/h (1 Bft) S 189 0 min 0,000 mm 0,0 UV-I 0 W/m 7,5 C 10,4 C 3,2 km/h (1 Bft) 95,45 %
18.06.2017 04:38 10,4 C 22,2 C 82 % 1023,1 hPa 0,0 l/m 2,0 km/h (1 Bft) S 189 0 min 0,000 mm 0,0 UV-I 0 W/m 7,5 C 10,4 C 4,8 km/h (1 Bft) 96,23 %
18.06.2017 04:40 10,4 C 22,2 C 82 % 1023,1 hPa 0,0 l/m 2,0 km/h (1 Bft) S 189 0 min 0,000 mm 0,0 UV-I 0 W/m 7,5 C 10,4 C 4,8 km/h (1 Bft) 97,37 %
18.06.2017 04:42 10,5 C 22,2 C 82 % 1023,1 hPa 0,0 l/m 2,4 km/h (1 Bft) S 189 0 min 0,000 mm 0,0 UV-I 0 W/m 7,6 C 10,5 C 6,4 km/h (2 Bft) 96,23 %
18.06.2017 04:44 10,7 C 22,2 C 82 % 1023,2 hPa 0,0 l/m 3,2 km/h (1 Bft) S 189 0 min 0,000 mm 0,0 UV-I 0 W/m 7,8 C 10,7 C 6,4 km/h (2 Bft) 96,23 %
18.06.2017 04:46 10,8 C 22,2 C 82 % 1023,2 hPa 0,0 l/m 4,0 km/h (1 Bft) S 190 0 min 0,000 mm 0,0 UV-I 2 W/m 7,9 C 10,8 C 6,4 km/h (2 Bft) 93,18 %
18.06.2017 04:48 10,9 C 22,2 C 81 % 1023,2 hPa 0,0 l/m 3,1 km/h (1 Bft) S 190 0 min 0,000 mm 0,0 UV-I 5 W/m 7,8 C 10,9 C 6,4 km/h (2 Bft) 98,00 %
18.06.2017 04:50 10,9 C 22,2 C 81 % 1023,2 hPa 0,0 l/m 4,7 km/h (1 Bft) S 190 0 min 0,000 mm 0,0 UV-I 5 W/m 7,8 C 10,9 C 6,4 km/h (2 Bft) 91,67 %
18.06.2017 04:52 11,0 C 22,2 C 81 % 1023,2 hPa 0,0 l/m 4,5 km/h (1 Bft) S 190 0 min 0,000 mm 0,0 UV-I 5 W/m 7,9 C 11,0 C 6,4 km/h (2 Bft) 94,55 %
18.06.2017 04:54 11,0 C 22,2 C 81 % 1023,2 hPa 0,0 l/m 3,6 km/h (1 Bft) S-SW 192 0 min 0,000 mm 0,0 UV-I 5 W/m 7,9 C 11,0 C 6,4 km/h (2 Bft) 95,24 %
18.06.2017 04:56 11,0 C 22,2 C 81 % 1023,2 hPa 0,0 l/m 2,8 km/h (1 Bft) S-SW 192 0 min 0,000 mm 0,0 UV-I 6 W/m 7,9 C 11,0 C 4,8 km/h (1 Bft) 96,00 %
18.06.2017 04:58 10,9 C 22,2 C 80 % 1023,2 hPa 0,0 l/m 3,8 km/h (1 Bft) S-SW 192 0 min 0,000 mm 0,0 UV-I 7 W/m 7,6 C 10,9 C 6,4 km/h (2 Bft) 95,45 %
18.06.2017 05:00 10,9 C 22,2 C 81 % 1023,2 hPa 0,0 l/m 4,3 km/h (1 Bft) S 190 0 min 0,000 mm 0,0 UV-I 7 W/m 7,8 C 10,9 C 8,0 km/h (2 Bft) 93,62 %
18.06.2017 05:02 10,8 C 22,2 C 81 % 1023,2 hPa 0,0 l/m 4,6 km/h (1 Bft) S 191 0 min 0,000 mm 0,0 UV-I 7 W/m 7,7 C 10,8 C 6,4 km/h (2 Bft) 91,49 %
18.06.2017 05:04 10,8 C 22,2 C 81 % 1023,2 hPa 0,0 l/m 4,3 km/h (1 Bft) S-SW 194 0 min 0,000 mm 0,0 UV-I 8 W/m 7,7 C 10,8 C 6,4 km/h (2 Bft) 94,00 %
18.06.2017 05:06 10,9 C 22,2 C 81 % 1023,2 hPa 0,0 l/m 5,0 km/h (1 Bft) S-SW 197 0 min 0,000 mm 0,0 UV-I 9 W/m 7,8 C 10,9 C 6,4 km/h (2 Bft) 94,00 %
18.06.2017 05:08 10,9 C 22,2 C 81 % 1023,3 hPa 0,0 l/m 4,0 km/h (1 Bft) S-SW 197 0 min 0,000 mm 0,0 UV-I 9 W/m 7,8 C 10,9 C 6,4 km/h (2 Bft) 94,74 %
18.06.2017 05:10 10,9 C 22,2 C 81 % 1023,3 hPa 0,0 l/m 5,6 km/h (1 Bft) S-SW 209 0 min 0,000 mm 0,0 UV-I 10 W/m 7,8 C 10,9 C 8,0 km/h (2 Bft) 94,64 %
18.06.2017 05:12 10,9 C 22,2 C 81 % 1023,3 hPa 0,0 l/m 7,2 km/h (2 Bft) S-SW 207 0 min 0,000 mm 0,0 UV-I 11 W/m 7,8 C 10,3 C 9,7 km/h (2 Bft) 94,29 %
18.06.2017 05:14 10,9 C 22,2 C 81 % 1023,3 hPa 0,0 l/m 6,7 km/h (2 Bft) S-SW 208 0 min 0,000 mm 0,0 UV-I 12 W/m 7,8 C 10,7 C 11,3 km/h (2 Bft) 96,43 %
18.06.2017 05:16 10,9 C 22,2 C 81 % 1023,3 hPa 0,0 l/m 5,7 km/h (1 Bft) S-SW 210 2 min 0,000 mm 0,0 UV-I 12 W/m 7,8 C 10,9 C 8,0 km/h (2 Bft) 97,56 %
18.06.2017 05:18 10,9 C 22,2 C 81 % 1023,3 hPa 0,0 l/m 5,6 km/h (1 Bft) S-SW 202 2 min 0,000 mm 0,0 UV-I 13 W/m 7,8 C 10,9 C 8,0 km/h (2 Bft) 97,87 %
18.06.2017 05:20 10,9 C 22,2 C 81 % 1023,3 hPa 0,0 l/m 6,9 km/h (2 Bft) S-SW 202 2 min 0,000 mm 0,0 UV-I 14 W/m 7,8 C 10,6 C 9,7 km/h (2 Bft) 96,00 %
18.06.2017 05:22 10,9 C 22,2 C 81 % 1023,3 hPa 0,0 l/m 6,1 km/h (2 Bft) S-SW 202 2 min 0,000 mm 0,0 UV-I 18 W/m 7,8 C 10,9 C 8,0 km/h (2 Bft) 97,87 %
18.06.2017 05:24 10,9 C 22,2 C 81 % 1023,3 hPa 0,0 l/m 5,2 km/h (1 Bft) S-SW 202 2 min 0,000 mm 0,0 UV-I 22 W/m 7,8 C 10,9 C 8,0 km/h (2 Bft) 96,00 %
18.06.2017 05:26 10,9 C 22,2 C 81 % 1023,4 hPa 0,0 l/m 4,1 km/h (1 Bft) S-SW 202 2 min 0,000 mm 0,0 UV-I 27 W/m 7,8 C 10,9 C 8,0 km/h (2 Bft) 97,37 %
18.06.2017 05:28 11,1 C 22,2 C 81 % 1023,3 hPa 0,0 l/m 4,7 km/h (1 Bft) S-SW 202 2 min 0,000 mm 0,0 UV-I 25 W/m 8,0 C 11,1 C 6,4 km/h (2 Bft) 98,11 %
18.06.2017 05:30 11,1 C 22,2 C 81 % 1023,4 hPa 0,0 l/m 5,0 km/h (1 Bft) S-SW 202 0 min 0,000 mm 0,0 UV-I 20 W/m 8,0 C 11,1 C 6,4 km/h (2 Bft) 100,00 %
18.06.2017 05:32 11,2 C 22,2 C 81 % 1023,4 hPa 0,0 l/m 5,7 km/h (1 Bft) S-SW 203 0 min 0,000 mm 0,0 UV-I 21 W/m 8,1 C 11,2 C 9,7 km/h (2 Bft) 97,44 %
18.06.2017 05:34 11,2 C 22,2 C 81 % 1023,4 hPa 0,0 l/m 5,8 km/h (2 Bft) S-SW 202 0 min 0,000 mm 0,0 UV-I 22 W/m 8,1 C 11,2 C 8,0 km/h (2 Bft) 98,00 %
18.06.2017 05:36 11,3 C 22,2 C 81 % 1023,4 hPa 0,0 l/m 5,0 km/h (1 Bft) S-SW 200 0 min 0,000 mm 0,0 UV-I 25 W/m 8,2 C 11,3 C 9,7 km/h (2 Bft) 95,74 %
18.06.2017 05:38 11,3 C 22,2 C 81 % 1023,4 hPa 0,0 l/m 6,4 km/h (2 Bft) S-SW 202 0 min 0,000 mm 0,0 UV-I 26 W/m 8,2 C 11,3 C 11,3 km/h (2 Bft) 96,23 %
18.06.2017 05:40 11,3 C 22,2 C 81 % 1023,4 hPa 0,0 l/m 3,7 km/h (1 Bft) S-SW 201 0 min 0,000 mm 0,0 UV-I 29 W/m 8,2 C 11,3 C 6,4 km/h (2 Bft) 100,00 %
18.06.2017 05:42 11,3 C 22,2 C 81 % 1023,5 hPa 0,0 l/m 6,5 km/h (2 Bft) S-SW 201 0 min 0,000 mm 0,0 UV-I 31 W/m 8,2 C 11,3 C 8,0 km/h (2 Bft) 98,21 %
18.06.2017 05:44 11,3 C 22,2 C 81 % 1023,5 hPa 0,0 l/m 6,4 km/h (2 Bft) S-SW 202 0 min 0,000 mm 0,0 UV-I 35 W/m 8,2 C 11,3 C 9,7 km/h (2 Bft) 100,00 %
18.06.2017 05:46 11,4 C 22,2 C 81 % 1023,5 hPa 0,0 l/m 5,4 km/h (1 Bft) S-SW 201 0 min 0,000 mm 0,0 UV-I 47 W/m 8,3 C 11,4 C 8,0 km/h (2 Bft) 97,37 %
18.06.2017 05:48 11,4 C 22,2 C 81 % 1023,5 hPa 0,0 l/m 4,0 km/h (1 Bft) S-SW 201 2 min 0,000 mm 0,0 UV-I 67 W/m 8,3 C 11,4 C 6,4 km/h (2 Bft) 100,00 %
18.06.2017 05:50 11,4 C 22,2 C 81 % 1023,5 hPa 0,0 l/m 5,8 km/h (2 Bft) S-SW 201 2 min 0,000 mm 0,0 UV-I 83 W/m 8,3 C 11,4 C 8,0 km/h (2 Bft) 98,00 %
18.06.2017 05:52 11,5 C 22,2 C 81 % 1023,6 hPa 0,0 l/m 4,9 km/h (1 Bft) S-SW 201 2 min 0,000 mm 0,0 UV-I 89 W/m 8,4 C 11,5 C 6,4 km/h (2 Bft) 98,00 %
18.06.2017 05:54 11,6 C 22,2 C 81 % 1023,6 hPa 0,0 l/m 2,6 km/h (1 Bft) S-SW 201 2 min 0,000 mm 0,0 UV-I 94 W/m 8,5 C 11,6 C 6,4 km/h (2 Bft) 100,00 %
18.06.2017 05:56 11,7 C 22,2 C 81 % 1023,6 hPa 0,0 l/m 3,5 km/h (1 Bft) S-SW 201 2 min 0,000 mm 0,0 UV-I 99 W/m 8,5 C 11,7 C 6,4 km/h (2 Bft) 97,87 %
18.06.2017 05:58 11,8 C 22,2 C 80 % 1023,6 hPa 0,0 l/m 3,0 km/h (1 Bft) S-SW 200 2 min 0,000 mm 0,0 UV-I 105 W/m 8,5 C 11,8 C 6,4 km/h (2 Bft) 98,00 %
18.06.2017 06:00 12,0 C 22,2 C 79 % 1023,6 hPa 0,0 l/m 3,5 km/h (1 Bft) S-SW 200 2 min 0,026 mm 0,0 UV-I 110 W/m 8,5 C 12,0 C 6,4 km/h (2 Bft) 100,00 %
18.06.2017 06:02 12,2 C 22,2 C 79 % 1023,5 hPa 0,0 l/m 1,0 km/h (0 Bft) S-SW 200 2 min 0,000 mm 0,0 UV-I 113 W/m 8,7 C 12,2 C 3,2 km/h (1 Bft) 100,00 %
18.06.2017 06:04 12,2 C 22,2 C 80 % 1023,5 hPa 0,0 l/m 0,0 km/h (0 Bft) S-SW 200 2 min 0,000 mm 0,0 UV-I 114 W/m 8,9 C 12,2 C 1,6 km/h (1 Bft) 100,00 %
18.06.2017 06:06 12,3 C 22,2 C 79 % 1023,6 hPa 0,0 l/m 2,0 km/h (1 Bft) S-SW 200 2 min 0,000 mm 0,0 UV-I 116 W/m 8,8 C 12,3 C 4,8 km/h (1 Bft) 100,00 %
18.06.2017 06:08 12,4 C 22,2 C 79 % 1023,6 hPa 0,0 l/m 4,3 km/h (1 Bft) S-SW 200 2 min 0,000 mm 0,0 UV-I 117 W/m 8,9 C 12,4 C 6,4 km/h (2 Bft) 100,00 %
18.06.2017 06:10 12,5 C 22,2 C 78 % 1023,6 hPa 0,0 l/m 3,3 km/h (1 Bft) S-SW 200 2 min 0,000 mm 0,0 UV-I 120 W/m 8,8 C 12,5 C 4,8 km/h (1 Bft) 97,62 %
18.06.2017 06:12 12,6 C 22,2 C 78 % 1023,6 hPa 0,0 l/m 4,1 km/h (1 Bft) S-SW 201 2 min 0,000 mm 0,0 UV-I 122 W/m 8,9 C 12,6 C 6,4 km/h (2 Bft) 100,00 %
18.06.2017 06:14 12,7 C 22,2 C 77 % 1023,6 hPa 0,0 l/m 2,0 km/h (1 Bft) S-SW 201 2 min 0,000 mm 0,0 UV-I 122 W/m 8,8 C 12,7 C 3,2 km/h (1 Bft) 97,22 %
18.06.2017 06:16 12,7 C 22,2 C 77 % 1023,6 hPa 0,0 l/m 1,1 km/h (1 Bft) S-SW 201 2 min 0,000 mm 0,0 UV-I 117 W/m 8,8 C 12,7 C 3,2 km/h (1 Bft) 100,00 %
18.06.2017 06:18 12,7 C 22,2 C 77 % 1023,6 hPa 0,0 l/m 3,6 km/h (1 Bft) S-SW 201 0 min 0,000 mm 0,0 UV-I 92 W/m 8,8 C 12,7 C 4,8 km/h (1 Bft) 96,55 %
18.06.2017 06:20 12,7 C 22,2 C 78 % 1023,7 hPa 0,0 l/m 3,1 km/h (1 Bft) S-SW 201 0 min 0,000 mm 0,0 UV-I 55 W/m 9,0 C 12,7 C 4,8 km/h (1 Bft) 100,00 %
18.06.2017 06:22 12,7 C 22,2 C 78 % 1023,7 hPa 0,0 l/m 2,0 km/h (1 Bft) S-SW 201 0 min 0,000 mm 0,0 UV-I 59 W/m 9,0 C 12,7 C 3,2 km/h (1 Bft) 98,21 %
18.06.2017 06:24 12,7 C 22,2 C 78 % 1023,7 hPa 0,0 l/m 2,8 km/h (1 Bft) S-SW 201 0 min 0,000 mm 0,0 UV-I 91 W/m 9,0 C 12,7 C 4,8 km/h (1 Bft) 97,56 %
18.06.2017 06:26 12,8 C 22,2 C 78 % 1023,7 hPa 0,0 l/m 4,1 km/h (1 Bft) S-SW 201 0 min 0,000 mm 0,0 UV-I 87 W/m 9,1 C 12,8 C 6,4 km/h (2 Bft) 100,00 %
18.06.2017 06:28 12,8 C 22,2 C 78 % 1023,8 hPa 0,0 l/m 4,4 km/h (1 Bft) S-SW 202 0 min 0,000 mm 0,0 UV-I 72 W/m 9,1 C 12,8 C 6,4 km/h (2 Bft) 97,87 %
18.06.2017 06:30 12,8 C 22,8 C 78 % 1023,8 hPa 0,0 l/m 4,6 km/h (1 Bft) S-SW 202 2 min 0,000 mm 0,0 UV-I 129 W/m 9,1 C 12,8 C 6,4 km/h (2 Bft) 98,00 %
18.06.2017 06:32 12,8 C 22,8 C 79 % 1023,7 hPa 0,0 l/m 4,8 km/h (1 Bft) S-SW 205 2 min 0,000 mm 0,0 UV-I 151 W/m 9,2 C 12,8 C 8,0 km/h (2 Bft) 98,00 %
18.06.2017 06:34 12,8 C 22,8 C 79 % 1023,7 hPa 0,0 l/m 6,3 km/h (2 Bft) SW 217 2 min 0,000 mm 0,0 UV-I 157 W/m 9,2 C 12,8 C 9,7 km/h (2 Bft) 97,37 %
18.06.2017 06:36 12,9 C 22,8 C 79 % 1023,8 hPa 0,0 l/m 4,9 km/h (1 Bft) SW 217 2 min 0,000 mm 0,0 UV-I 162 W/m 9,3 C 12,9 C 6,4 km/h (2 Bft) 98,11 %
18.06.2017 06:38 13,0 C 22,8 C 79 % 1023,7 hPa 0,0 l/m 3,8 km/h (1 Bft) SW 217 2 min 0,000 mm 0,0 UV-I 167 W/m 9,4 C 13,0 C 6,4 km/h (2 Bft) 98,00 %
18.06.2017 06:40 13,1 C 22,8 C 79 % 1023,7 hPa 0,0 l/m 3,9 km/h (1 Bft) SW 217 2 min 0,000 mm 0,0 UV-I 173 W/m 9,5 C 13,1 C 6,4 km/h (2 Bft) 97,37 %
18.06.2017 06:42 13,1 C 22,8 C 79 % 1023,8 hPa 0,0 l/m 3,5 km/h (1 Bft) SW 217 2 min 0,000 mm 0,0 UV-I 178 W/m 9,5 C 13,1 C 6,4 km/h (2 Bft) 94,34 %
18.06.2017 06:44 13,2 C 22,8 C 79 % 1023,8 hPa 0,0 l/m 3,4 km/h (1 Bft) SW 218 2 min 0,000 mm 0,0 UV-I 184 W/m 9,6 C 13,2 C 6,4 km/h (2 Bft) 98,00 %
18.06.2017 06:46 13,3 C 22,8 C 79 % 1023,8 hPa 0,0 l/m 5,3 km/h (1 Bft) W-SW 250 2 min 0,000 mm 0,0 UV-I 189 W/m 9,7 C 13,3 C 8,0 km/h (2 Bft) 100,00 %
18.06.2017 06:48 13,4 C 22,8 C 79 % 1023,8 hPa 0,0 l/m 4,8 km/h (1 Bft) W-SW 250 2 min 0,000 mm 0,0 UV-I 194 W/m 9,8 C 13,4 C 8,0 km/h (2 Bft) 97,37 %
18.06.2017 06:50 13,6 C 22,8 C 78 % 1023,9 hPa 0,0 l/m 6,1 km/h (2 Bft) W-SW 251 2 min 0,000 mm 0,0 UV-I 200 W/m 9,8 C 13,6 C 8,0 km/h (2 Bft) 98,08 %
18.06.2017 06:52 13,7 C 22,8 C 77 % 1023,9 hPa 0,0 l/m 8,1 km/h (2 Bft) W-SW 242 2 min 0,000 mm 0,0 UV-I 206 W/m 9,7 C 12,7 C 11,3 km/h (2 Bft) 98,00 %
18.06.2017 06:54 13,8 C 22,8 C 77 % 1023,9 hPa 0,0 l/m 5,4 km/h (1 Bft) SW 217 2 min 0,000 mm 0,0 UV-I 212 W/m 9,8 C 13,8 C 8,0 km/h (2 Bft) 97,44 %
18.06.2017 06:56 13,9 C 22,8 C 76 % 1023,9 hPa 0,0 l/m 7,7 km/h (2 Bft) SW 223 2 min 0,000 mm 0,0 UV-I 219 W/m 9,7 C 13,1 C 11,3 km/h (2 Bft) 98,11 %
18.06.2017 06:58 14,0 C 22,8 C 76 % 1024,0 hPa 0,0 l/m 5,9 km/h (2 Bft) W-SW 246 2 min 0,000 mm 0,0 UV-I 225 W/m 9,8 C 14,0 C 8,0 km/h (2 Bft) 97,87 %
18.06.2017 07:00 14,1 C 22,8 C 76 % 1023,9 hPa 0,0 l/m 4,9 km/h (1 Bft) W-SW 240 2 min 0,076 mm 0,0 UV-I 231 W/m 9,9 C 14,1 C 8,0 km/h (2 Bft) 95,74 %
18.06.2017 07:02 14,2 C 22,8 C 75 % 1023,9 hPa 0,0 l/m 5,1 km/h (1 Bft) W-SW 257 2 min 0,000 mm 0,0 UV-I 236 W/m 9,8 C 14,2 C 9,7 km/h (2 Bft) 95,74 %
18.06.2017 07:04 14,3 C 22,2 C 75 % 1023,9 hPa 0,0 l/m 5,0 km/h (1 Bft) W 263 2 min 0,000 mm 0,0 UV-I 240 W/m 9,9 C 14,3 C 6,4 km/h (2 Bft) 95,12 %
18.06.2017 07:06 14,3 C 22,2 C 75 % 1023,9 hPa 0,0 l/m 7,5 km/h (2 Bft) W 273 2 min 0,000 mm 0,1 UV-I 246 W/m 9,9 C 13,7 C 14,5 km/h (3 Bft) 94,00 %
18.06.2017 07:08 14,4 C 22,8 C 75 % 1023,9 hPa 0,0 l/m 3,4 km/h (1 Bft) W 273 2 min 0,000 mm 0,5 UV-I 250 W/m 10,0 C 14,4 C 6,4 km/h (2 Bft) 94,74 %
18.06.2017 07:10 14,6 C 22,8 C 75 % 1023,9 hPa 0,0 l/m 3,7 km/h (1 Bft) SW 234 2 min 0,000 mm 0,5 UV-I 257 W/m 10,2 C 14,6 C 6,4 km/h (2 Bft) 96,23 %
18.06.2017 07:12 14,7 C 22,2 C 75 % 1023,9 hPa 0,0 l/m 3,0 km/h (1 Bft) W-SW 237 2 min 0,000 mm 0,5 UV-I 261 W/m 10,3 C 14,7 C 4,8 km/h (1 Bft) 98,00 %
18.06.2017 07:14 14,8 C 22,2 C 75 % 1023,9 hPa 0,0 l/m 5,5 km/h (1 Bft) W 262 2 min 0,000 mm 0,5 UV-I 266 W/m 10,4 C 14,8 C 9,7 km/h (2 Bft) 96,00 %
18.06.2017 07:16 14,9 C 21,7 C 74 % 1023,9 hPa 0,0 l/m 3,3 km/h (1 Bft) W 276 2 min 0,000 mm 0,5 UV-I 272 W/m 10,3 C 14,9 C 4,8 km/h (1 Bft) 94,74 %
18.06.2017 07:18 15,1 C 21,7 C 74 % 1023,9 hPa 0,0 l/m 2,1 km/h (1 Bft) W 265 2 min 0,000 mm 0,6 UV-I 277 W/m 10,5 C 15,1 C 6,4 km/h (2 Bft) 96,00 %
18.06.2017 07:20 15,1 C 21,7 C 73 % 1023,9 hPa 0,0 l/m 4,3 km/h (1 Bft) W-SW 252 2 min 0,000 mm 0,6 UV-I 283 W/m 10,3 C 15,1 C 6,4 km/h (2 Bft) 92,45 %
18.06.2017 07:22 15,2 C 22,2 C 74 % 1023,9 hPa 0,0 l/m 3,3 km/h (1 Bft) W-SW 253 2 min 0,000 mm 0,6 UV-I 288 W/m 10,6 C 15,2 C 4,8 km/h (1 Bft) 95,12 %
18.06.2017 07:24 15,3 C 22,2 C 73 % 1023,9 hPa 0,0 l/m 3,4 km/h (1 Bft) W-SW 255 2 min 0,000 mm 0,6 UV-I 293 W/m 10,5 C 15,3 C 6,4 km/h (2 Bft) 94,00 %
18.06.2017 07:26 15,3 C 22,2 C 73 % 1023,9 hPa 0,0 l/m 5,6 km/h (1 Bft) W 261 2 min 0,000 mm 0,6 UV-I 300 W/m 10,5 C 15,3 C 9,7 km/h (2 Bft) 94,00 %
18.06.2017 07:28 15,3 C 22,2 C 72 % 1023,9 hPa 0,0 l/m 5,4 km/h (1 Bft) SW 233 2 min 0,000 mm 0,7 UV-I 303 W/m 10,3 C 15,3 C 9,7 km/h (2 Bft) 94,87 %
18.06.2017 07:30 15,4 C 22,2 C 72 % 1023,9 hPa 0,0 l/m 5,4 km/h (1 Bft) W 267 2 min 0,000 mm 0,7 UV-I 310 W/m 10,4 C 15,4 C 9,7 km/h (2 Bft) 92,73 %
18.06.2017 07:32 15,4 C 22,2 C 71 % 1023,9 hPa 0,0 l/m 4,9 km/h (1 Bft) W 269 2 min 0,000 mm 0,7 UV-I 320 W/m 10,2 C 15,4 C 9,7 km/h (2 Bft) 95,24 %
18.06.2017 07:34 15,3 C 22,2 C 71 % 1023,9 hPa 0,0 l/m 9,2 km/h (2 Bft) W-SW 252 2 min 0,000 mm 0,7 UV-I 332 W/m 10,1 C 13,8 C 14,5 km/h (3 Bft) 95,74 %
18.06.2017 07:36 15,4 C 22,2 C 71 % 1024,0 hPa 0,0 l/m 5,5 km/h (1 Bft) W 260 2 min 0,000 mm 0,8 UV-I 341 W/m 10,2 C 15,4 C 11,3 km/h (2 Bft) 96,00 %
18.06.2017 07:38 15,5 C 22,2 C 71 % 1024,0 hPa 0,0 l/m 3,9 km/h (1 Bft) W 265 2 min 0,000 mm 0,8 UV-I 349 W/m 10,3 C 15,5 C 6,4 km/h (2 Bft) 97,56 %
18.06.2017 07:40 15,6 C 22,2 C 70 % 1024,0 hPa 0,0 l/m 10,7 km/h (2 Bft) SW 231 2 min 0,000 mm 0,8 UV-I 356 W/m 10,1 C 13,5 C 16,1 km/h (3 Bft) 94,34 %
18.06.2017 07:42 15,6 C 22,2 C 69 % 1024,0 hPa 0,0 l/m 9,0 km/h (2 Bft) W 267 2 min 0,000 mm 0,8 UV-I 358 W/m 9,9 C 14,2 C 16,1 km/h (3 Bft) 97,37 %
18.06.2017 07:44 15,7 C 22,2 C 70 % 1024,0 hPa 0,0 l/m 5,0 km/h (1 Bft) W-NW 294 2 min 0,000 mm 0,9 UV-I 356 W/m 10,2 C 15,7 C 11,3 km/h (2 Bft) 96,00 %
18.06.2017 07:46 15,7 C 22,2 C 69 % 1024,0 hPa 0,0 l/m 8,7 km/h (2 Bft) W-SW 240 2 min 0,000 mm 0,9 UV-I 357 W/m 10,0 C 14,5 C 14,5 km/h (3 Bft) 98,00 %
18.06.2017 07:48 15,7 C 22,2 C 69 % 1024,0 hPa 0,0 l/m 9,4 km/h (2 Bft) SW 225 2 min 0,000 mm 0,9 UV-I 362 W/m 10,0 C 14,2 C 16,1 km/h (3 Bft) 96,00 %
18.06.2017 07:50 15,8 C 22,2 C 69 % 1024,0 hPa 0,0 l/m 5,8 km/h (2 Bft) W 267 2 min 0,000 mm 0,9 UV-I 368 W/m 10,1 C 15,8 C 11,3 km/h (2 Bft) 95,12 %
18.06.2017 07:52 15,9 C 22,2 C 69 % 1024,1 hPa 0,0 l/m 5,5 km/h (1 Bft) W 269 2 min 0,000 mm 1,0 UV-I 373 W/m 10,2 C 15,9 C 11,3 km/h (2 Bft) 96,23 %
18.06.2017 07:54 15,9 C 22,2 C 69 % 1024,1 hPa 0,0 l/m 6,9 km/h (2 Bft) W-SW 237 2 min 0,000 mm 1,0 UV-I 383 W/m 10,2 C 15,6 C 11,3 km/h (2 Bft) 95,12 %
18.06.2017 07:56 15,9 C 22,2 C 68 % 1024,1 hPa 0,0 l/m 7,9 km/h (2 Bft) W-SW 251 2 min 0,000 mm 1,0 UV-I 390 W/m 10,0 C 15,1 C 14,5 km/h (3 Bft) 95,74 %
18.06.2017 07:58 16,0 C 22,2 C 68 % 1024,2 hPa 0,0 l/m 8,6 km/h (2 Bft) W-NW 286 2 min 0,000 mm 1,0 UV-I 396 W/m 10,1 C 14,9 C 12,9 km/h (3 Bft) 97,87 %
18.06.2017 08:00 16,0 C 22,2 C 69 % 1024,1 hPa 0,0 l/m 5,5 km/h (1 Bft) W-SW 243 2 min 0,000 mm 1,1 UV-I 403 W/m 10,3 C 16,0 C 12,9 km/h (3 Bft) 95,74 %
18.06.2017 08:02 16,2 C 22,2 C 68 % 1024,2 hPa 0,0 l/m 5,5 km/h (1 Bft) W 275 2 min 0,178 mm 1,1 UV-I 411 W/m 10,3 C 16,2 C 9,7 km/h (2 Bft) 95,74 %
18.06.2017 08:04 16,2 C 22,2 C 68 % 1024,2 hPa 0,0 l/m 5,8 km/h (2 Bft) W-SW 250 2 min 0,000 mm 1,1 UV-I 366 W/m 10,3 C 16,2 C 11,3 km/h (2 Bft) 100,00 %
18.06.2017 08:06 16,1 C 22,2 C 67 % 1024,2 hPa 0,0 l/m 6,0 km/h (2 Bft) SW 234 2 min 0,000 mm 1,1 UV-I 357 W/m 10,0 C 16,1 C 11,3 km/h (2 Bft) 96,00 %
18.06.2017 08:08 16,1 C 22,2 C 67 % 1024,2 hPa 0,0 l/m 9,5 km/h (2 Bft) SW 235 2 min 0,000 mm 1,1 UV-I 268 W/m 10,0 C 14,6 C 12,9 km/h (3 Bft) 100,00 %
18.06.2017 08:10 16,0 C 22,2 C 67 % 1024,2 hPa 0,0 l/m 4,8 km/h (1 Bft) W-SW 240 2 min 0,000 mm 1,1 UV-I 287 W/m 9,9 C 16,0 C 9,7 km/h (2 Bft) 97,44 %
18.06.2017 08:12 15,9 C 22,2 C 67 % 1024,3 hPa 0,0 l/m 7,3 km/h (2 Bft) W-SW 248 2 min 0,000 mm 1,2 UV-I 321 W/m 9,8 C 15,4 C 14,5 km/h (3 Bft) 100,00 %
18.06.2017 08:14 15,9 C 22,2 C 68 % 1024,3 hPa 0,0 l/m 6,3 km/h (2 Bft) W-SW 247 2 min 0,000 mm 1,2 UV-I 298 W/m 10,0 C 15,9 C 11,3 km/h (2 Bft) 98,00 %
18.06.2017 08:16 15,9 C 21,7 C 67 % 1024,4 hPa 0,0 l/m 5,7 km/h (1 Bft) SW 236 0 min 0,000 mm 1,1 UV-I 245 W/m 9,8 C 15,9 C 12,9 km/h (3 Bft) 96,23 %
18.06.2017 08:18 15,9 C 22,2 C 68 % 1024,3 hPa 0,0 l/m 6,1 km/h (2 Bft) W-SW 257 0 min 0,000 mm 1,2 UV-I 257 W/m 10,0 C 15,9 C 11,3 km/h (2 Bft) 100,00 %
18.06.2017 08:20 15,9 C 22,2 C 68 % 1024,2 hPa 0,0 l/m 4,4 km/h (1 Bft) W-SW 240 2 min 0,000 mm 1,2 UV-I 269 W/m 10,0 C 15,9 C 6,4 km/h (2 Bft) 97,73 %
18.06.2017 08:22 15,9 C 22,2 C 67 % 1024,2 hPa 0,0 l/m 5,2 km/h (1 Bft) W-SW 241 2 min 0,000 mm 1,3 UV-I 301 W/m 9,8 C 15,9 C 11,3 km/h (2 Bft) 100,00 %
18.06.2017 08:24 15,9 C 22,2 C 67 % 1024,2 hPa 0,0 l/m 7,2 km/h (2 Bft) W 267 2 min 0,000 mm 1,3 UV-I 341 W/m 9,8 C 15,5 C 11,3 km/h (2 Bft) 97,56 %
18.06.2017 08:26 16,0 C 22,2 C 68 % 1024,2 hPa 0,0 l/m 7,8 km/h (2 Bft) W-SW 255 2 min 0,000 mm 1,4 UV-I 385 W/m 10,1 C 15,3 C 11,3 km/h (2 Bft) 100,00 %
18.06.2017 08:28 16,2 C 22,2 C 67 % 1024,2 hPa 0,0 l/m 6,1 km/h (2 Bft) W 266 2 min 0,000 mm 1,5 UV-I 500 W/m 10,1 C 16,2 C 11,3 km/h (2 Bft) 95,45 %
18.06.2017 08:30 16,4 C 22,2 C 68 % 1024,2 hPa 0,0 l/m 3,8 km/h (1 Bft) SW 217 2 min 0,000 mm 1,6 UV-I 511 W/m 10,5 C 16,4 C 6,4 km/h (2 Bft) 97,87 %
18.06.2017 08:32 16,7 C 22,2 C 66 % 1024,2 hPa 0,0 l/m 4,3 km/h (1 Bft) W-SW 254 2 min 0,000 mm 1,6 UV-I 469 W/m 10,3 C 16,7 C 9,7 km/h (2 Bft) 100,00 %
18.06.2017 08:34 16,9 C 22,2 C 67 % 1024,2 hPa 0,0 l/m 7,2 km/h (2 Bft) SW 236 2 min 0,000 mm 1,6 UV-I 459 W/m 10,7 C 16,5 C 11,3 km/h (2 Bft) 98,00 %
18.06.2017 08:36 16,9 C 22,2 C 65 % 1024,2 hPa 0,0 l/m 7,0 km/h (2 Bft) W-SW 246 2 min 0,000 mm 1,6 UV-I 486 W/m 10,3 C 16,6 C 9,7 km/h (2 Bft) 100,00 %
18.06.2017 08:38 16,9 C 22,2 C 65 % 1024,2 hPa 0,0 l/m 5,0 km/h (1 Bft) W-SW 246 2 min 0,000 mm 1,5 UV-I 465 W/m 10,3 C 16,9 C 9,7 km/h (2 Bft) 93,62 %
18.06.2017 08:40 16,9 C 22,2 C 64 % 1024,2 hPa 0,0 l/m 6,8 km/h (2 Bft) W 259 0 min 0,000 mm 1,4 UV-I 262 W/m 10,0 C 16,7 C 11,3 km/h (2 Bft) 95,74 %
18.06.2017 08:42 16,8 C 22,2 C 64 % 1024,2 hPa 0,0 l/m 4,3 km/h (1 Bft) W-SW 250 0 min 0,000 mm 1,5 UV-I 279 W/m 10,0 C 16,8 C 6,4 km/h (2 Bft) 100,00 %
18.06.2017 08:44 16,8 C 22,2 C 64 % 1024,3 hPa 0,0 l/m 5,1 km/h (1 Bft) W-SW 243 0 min 0,000 mm 1,5 UV-I 266 W/m 10,0 C 16,8 C 6,4 km/h (2 Bft) 100,00 %
18.06.2017 08:46 16,8 C 22,2 C 64 % 1024,3 hPa 0,0 l/m 6,2 km/h (2 Bft) W-NW 290 0 min 0,000 mm 1,5 UV-I 285 W/m 10,0 C 16,8 C 11,3 km/h (2 Bft) 97,87 %
18.06.2017 08:48 16,7 C 22,2 C 63 % 1024,2 hPa 0,0 l/m 6,1 km/h (2 Bft) W 262 0 min 0,000 mm 1,5 UV-I 259 W/m 9,6 C 16,7 C 9,7 km/h (2 Bft) 100,00 %
18.06.2017 08:50 16,7 C 22,2 C 64 % 1024,3 hPa 0,0 l/m 5,4 km/h (1 Bft) W-NW 284 0 min 0,000 mm 1,6 UV-I 285 W/m 9,9 C 16,7 C 9,7 km/h (2 Bft) 100,00 %
18.06.2017 08:52 16,6 C 22,2 C 65 % 1024,3 hPa 0,0 l/m 4,4 km/h (1 Bft) W 262 0 min 0,000 mm 1,6 UV-I 267 W/m 10,0 C 16,6 C 9,7 km/h (2 Bft) 100,00 %
18.06.2017 08:54 16,6 C 22,2 C 65 % 1024,3 hPa 0,0 l/m 4,2 km/h (1 Bft) W 278 0 min 0,000 mm 1,7 UV-I 310 W/m 10,0 C 16,6 C 6,4 km/h (2 Bft) 96,23 %
18.06.2017 08:56 16,7 C 22,2 C 65 % 1024,3 hPa 0,0 l/m 4,0 km/h (1 Bft) S-SW 206 2 min 0,000 mm 1,8 UV-I 328 W/m 10,1 C 16,7 C 8,0 km/h (2 Bft) 96,00 %
18.06.2017 08:58 16,9 C 22,2 C 65 % 1024,2 hPa 0,0 l/m 3,0 km/h (1 Bft) S 175 2 min 0,000 mm 2,0 UV-I 501 W/m 10,3 C 16,9 C 6,4 km/h (2 Bft) 97,87 %
18.06.2017 09:00 17,2 C 22,2 C 65 % 1024,2 hPa 0,0 l/m 3,6 km/h (1 Bft) S 187 2 min 0,203 mm 2,1 UV-I 530 W/m 10,6 C 17,2 C 6,4 km/h (2 Bft) 95,12 %
18.06.2017 09:02 17,4 C 22,2 C 64 % 1024,2 hPa 0,0 l/m 6,3 km/h (2 Bft) SW 217 2 min 0,000 mm 2,2 UV-I 596 W/m 10,5 C 17,4 C 9,7 km/h (2 Bft) 96,23 %
18.06.2017 09:04 17,7 C 22,2 C 61 % 1024,2 hPa 0,0 l/m 7,5 km/h (2 Bft) SW 232 2 min 0,000 mm 2,3 UV-I 626 W/m 10,1 C 17,2 C 9,7 km/h (2 Bft) 93,62 %
18.06.2017 09:06 17,8 C 22,2 C 60 % 1024,2 hPa 0,0 l/m 6,2 km/h (2 Bft) W 271 2 min 0,000 mm 2,3 UV-I 610 W/m 9,9 C 17,8 C 9,7 km/h (2 Bft) 95,12 %
18.06.2017 09:08 17,7 C 22,2 C 60 % 1024,2 hPa 0,0 l/m 1,5 km/h (1 Bft) W 271 2 min 0,000 mm 2,5 UV-I 627 W/m 9,8 C 17,7 C 4,8 km/h (1 Bft) 96,23 %
18.06.2017 09:10 17,7 C 22,2 C 61 % 1024,2 hPa 0,0 l/m 3,1 km/h (1 Bft) W 268 2 min 0,000 mm 2,5 UV-I 632 W/m 10,1 C 17,7 C 8,0 km/h (2 Bft) 97,56 %
18.06.2017 09:12 17,9 C 22,2 C 61 % 1024,2 hPa 0,0 l/m 4,3 km/h (1 Bft) W-SW 250 2 min 0,000 mm 2,3 UV-I 624 W/m 10,3 C 17,9 C 9,7 km/h (2 Bft) 95,74 %
18.06.2017 09:14 17,9 C 22,2 C 60 % 1024,2 hPa 0,0 l/m 7,2 km/h (2 Bft) W-SW 250 2 min 0,000 mm 2,5 UV-I 508 W/m 10,0 C 17,5 C 12,9 km/h (3 Bft) 97,56 %
18.06.2017 09:16 17,8 C 22,2 C 60 % 1024,2 hPa 0,0 l/m 4,0 km/h (1 Bft) W 262 2 min 0,000 mm 2,2 UV-I 380 W/m 9,9 C 17,8 C 6,4 km/h (2 Bft) 95,45 %
18.06.2017 09:18 17,7 C 22,2 C 59 % 1024,1 hPa 0,0 l/m 2,8 km/h (1 Bft) S-SO 148 2 min 0,000 mm 2,4 UV-I 375 W/m 9,6 C 17,7 C 6,4 km/h (2 Bft) 96,77 %
18.06.2017 09:20 17,8 C 22,2 C 61 % 1024,1 hPa 0,0 l/m 1,3 km/h (1 Bft) W 264 2 min 0,000 mm 2,4 UV-I 470 W/m 10,2 C 17,8 C 4,8 km/h (1 Bft) 95,74 %
18.06.2017 09:22 17,9 C 22,2 C 61 % 1024,1 hPa 0,0 l/m 3,7 km/h (1 Bft) W-NW 286 2 min 0,000 mm 2,7 UV-I 517 W/m 10,3 C 17,9 C 11,3 km/h (2 Bft) 95,74 %
18.06.2017 09:24 17,9 C 22,2 C 59 % 1024,1 hPa 0,0 l/m 4,9 km/h (1 Bft) W 279 2 min 0,000 mm 2,8 UV-I 562 W/m 9,8 C 17,9 C 9,7 km/h (2 Bft) 100,00 %
18.06.2017 09:26 17,9 C 22,2 C 60 % 1024,2 hPa 0,0 l/m 1,3 km/h (1 Bft) W 279 2 min 0,000 mm 2,9 UV-I 640 W/m 10,0 C 17,9 C 3,2 km/h (1 Bft) 100,00 %
18.06.2017 09:28 18,1 C 22,2 C 59 % 1024,2 hPa 0,0 l/m 6,1 km/h (2 Bft) W 268 2 min 0,000 mm 3,0 UV-I 636 W/m 10,0 C 18,1 C 9,7 km/h (2 Bft) 97,56 %
18.06.2017 09:30 18,1 C 22,2 C 58 % 1024,2 hPa 0,0 l/m 4,7 km/h (1 Bft) W 262 2 min 0,000 mm 3,0 UV-I 622 W/m 9,7 C 18,1 C 9,7 km/h (2 Bft) 100,00 %
18.06.2017 09:32 18,1 C 22,2 C 58 % 1024,2 hPa 0,0 l/m 5,7 km/h (1 Bft) NW 319 2 min 0,000 mm 3,1 UV-I 645 W/m 9,7 C 18,1 C 9,7 km/h (2 Bft) 98,00 %
18.06.2017 09:34 18,1 C 22,2 C 59 % 1024,1 hPa 0,0 l/m 4,4 km/h (1 Bft) NW 318 2 min 0,000 mm 3,1 UV-I 650 W/m 10,0 C 18,1 C 6,4 km/h (2 Bft) 97,73 %
18.06.2017 09:36 18,2 C 22,2 C 59 % 1024,2 hPa 0,0 l/m 2,7 km/h (1 Bft) W-NW 301 2 min 0,000 mm 3,2 UV-I 656 W/m 10,1 C 18,2 C 6,4 km/h (2 Bft) 97,37 %
18.06.2017 09:38 18,3 C 22,2 C 58 % 1024,2 hPa 0,0 l/m 2,3 km/h (1 Bft) W-NW 300 2 min 0,000 mm 3,2 UV-I 661 W/m 9,9 C 18,3 C 4,8 km/h (1 Bft) 96,77 %
18.06.2017 09:40 18,4 C 22,2 C 58 % 1024,2 hPa 0,0 l/m 1,6 km/h (1 Bft) W-NW 298 2 min 0,000 mm 3,3 UV-I 665 W/m 10,0 C 18,4 C 4,8 km/h (1 Bft) 100,00 %
18.06.2017 09:42 18,6 C 22,2 C 60 % 1024,2 hPa 0,0 l/m 0,6 km/h (0 Bft) W-NW 298 2 min 0,000 mm 3,3 UV-I 669 W/m 10,7 C 18,6 C 1,6 km/h (1 Bft) 100,00 %
18.06.2017 09:44 18,7 C 22,2 C 57 % 1024,2 hPa 0,0 l/m 5,2 km/h (1 Bft) O 81 2 min 0,000 mm 3,4 UV-I 676 W/m 10,0 C 18,7 C 6,4 km/h (2 Bft) 100,00 %
18.06.2017 09:46 18,7 C 22,2 C 57 % 1024,2 hPa 0,0 l/m 2,9 km/h (1 Bft) O 79 2 min 0,000 mm 3,5 UV-I 682 W/m 10,0 C 18,7 C 4,8 km/h (1 Bft) 100,00 %
18.06.2017 09:48 18,8 C 22,2 C 57 % 1024,2 hPa 0,0 l/m 0,3 km/h (0 Bft) O 79 2 min 0,000 mm 3,5 UV-I 690 W/m 10,1 C 18,8 C 1,6 km/h (1 Bft) 97,37 %
18.06.2017 09:50 18,9 C 22,2 C 58 % 1024,2 hPa 0,0 l/m 2,4 km/h (1 Bft) NO 39 2 min 0,000 mm 3,6 UV-I 695 W/m 10,5 C 18,9 C 6,4 km/h (2 Bft) 95,12 %
18.06.2017 09:52 19,2 C 22,2 C 58 % 1024,2 hPa 0,0 l/m 3,7 km/h (1 Bft) SW 225 2 min 0,000 mm 3,7 UV-I 700 W/m 10,7 C 19,2 C 6,4 km/h (2 Bft) 100,00 %
18.06.2017 09:54 19,2 C 22,2 C 56 % 1024,2 hPa 0,0 l/m 1,4 km/h (1 Bft) W-NW 283 2 min 0,000 mm 3,7 UV-I 702 W/m 10,2 C 19,2 C 4,8 km/h (1 Bft) 100,00 %
18.06.2017 09:56 19,2 C 22,2 C 55 % 1024,2 hPa 0,0 l/m 0,5 km/h (0 Bft) W-NW 283 2 min 0,000 mm 3,8 UV-I 710 W/m 9,9 C 19,2 C 1,6 km/h (1 Bft) 100,00 %
18.06.2017 09:58 19,2 C 22,2 C 55 % 1024,2 hPa 0,0 l/m 1,9 km/h (1 Bft) NW 319 2 min 0,000 mm 3,9 UV-I 721 W/m 9,9 C 19,2 C 4,8 km/h (1 Bft) 98,00 %
18.06.2017 10:00 19,3 C 22,2 C 59 % 1024,1 hPa 0,0 l/m 4,3 km/h (1 Bft) N 9 2 min 0,355 mm 3,9 UV-I 732 W/m 11,1 C 19,3 C 8,0 km/h (2 Bft) 100,00 %
18.06.2017 10:02 19,6 C 22,2 C 58 % 1024,2 hPa 0,0 l/m 5,4 km/h (1 Bft) NO 51 2 min 0,000 mm 3,9 UV-I 749 W/m 11,1 C 19,6 C 11,3 km/h (2 Bft) 100,00 %
18.06.2017 10:04 19,7 C 22,2 C 55 % 1024,2 hPa 0,0 l/m 2,7 km/h (1 Bft) NW 324 2 min 0,000 mm 3,8 UV-I 767 W/m 10,4 C 19,7 C 6,4 km/h (2 Bft) 96,00 %
18.06.2017 10:06 19,5 C 22,2 C 55 % 1024,2 hPa 0,0 l/m 2,8 km/h (1 Bft) N-NW 346 2 min 0,000 mm 3,3 UV-I 722 W/m 10,2 C 19,5 C 6,4 km/h (2 Bft) 100,00 %
18.06.2017 10:08 19,1 C 22,2 C 54 % 1024,2 hPa 0,0 l/m 0,7 km/h (0 Bft) O 92 0 min 0,000 mm 2,7 UV-I 181 W/m 9,6 C 19,1 C 4,8 km/h (1 Bft) 98,00 %
18.06.2017 10:10 18,8 C 22,2 C 56 % 1024,2 hPa 0,0 l/m 2,7 km/h (1 Bft) O 92 0 min 0,000 mm 2,6 UV-I 179 W/m 9,8 C 18,8 C 6,4 km/h (2 Bft) 98,00 %
18.06.2017 10:12 18,6 C 22,2 C 57 % 1024,2 hPa 0,0 l/m 3,5 km/h (1 Bft) NW 319 0 min 0,000 mm 2,6 UV-I 208 W/m 9,9 C 18,6 C 8,0 km/h (2 Bft) 97,87 %
18.06.2017 10:14 18,4 C 22,2 C 58 % 1024,2 hPa 0,0 l/m 2,4 km/h (1 Bft) N 355 0 min 0,000 mm 2,7 UV-I 229 W/m 10,0 C 18,4 C 6,4 km/h (2 Bft) 96,00 %
18.06.2017 10:16 18,4 C 22,2 C 58 % 1024,2 hPa 0,0 l/m 1,8 km/h (1 Bft) N 360 0 min 0,000 mm 3,7 UV-I 237 W/m 10,0 C 18,4 C 6,4 km/h (2 Bft) 93,62 %
18.06.2017 10:18 18,8 C 22,2 C 58 % 1024,2 hPa 0,0 l/m 1,9 km/h (1 Bft) N 349 2 min 0,000 mm 4,5 UV-I 892 W/m 10,4 C 18,8 C 4,8 km/h (1 Bft) 95,74 %
18.06.2017 10:20 19,2 C 22,2 C 55 % 1024,1 hPa 0,0 l/m 2,7 km/h (1 Bft) W 277 2 min 0,000 mm 4,5 UV-I 895 W/m 9,9 C 19,2 C 4,8 km/h (1 Bft) 95,74 %
18.06.2017 10:22 19,4 C 22,2 C 53 % 1024,2 hPa 0,0 l/m 3,3 km/h (1 Bft) W-SW 256 2 min 0,000 mm 4,5 UV-I 885 W/m 9,6 C 19,4 C 6,4 km/h (2 Bft) 93,62 %
18.06.2017 10:24 19,4 C 22,2 C 53 % 1024,2 hPa 0,0 l/m 5,4 km/h (1 Bft) S-SW 208 2 min 0,000 mm 4,5 UV-I 892 W/m 9,6 C 19,4 C 8,0 km/h (2 Bft) 95,00 %
18.06.2017 10:26 19,3 C 22,2 C 54 % 1024,2 hPa 0,0 l/m 2,3 km/h (1 Bft) S 176 2 min 0,000 mm 3,6 UV-I 891 W/m 9,8 C 19,3 C 4,8 km/h (1 Bft) 97,87 %
18.06.2017 10:28 19,3 C 22,2 C 52 % 1024,2 hPa 0,0 l/m 2,7 km/h (1 Bft) S-SO 148 0 min 0,000 mm 3,0 UV-I 354 W/m 9,2 C 19,3 C 6,4 km/h (2 Bft) 95,74 %
18.06.2017 10:30 19,2 C 22,2 C 53 % 1024,2 hPa 0,0 l/m 4,3 km/h (1 Bft) S-SW 200 0 min 0,000 mm 4,5 UV-I 302 W/m 9,4 C 19,2 C 8,0 km/h (2 Bft) 95,74 %
18.06.2017 10:32 19,4 C 22,2 C 54 % 1024,1 hPa 0,0 l/m 5,0 km/h (1 Bft) O-NO 69 2 min 0,000 mm 4,5 UV-I 785 W/m 9,8 C 19,4 C 9,7 km/h (2 Bft) 95,74 %
18.06.2017 10:34 19,7 C 22,2 C 51 % 1024,1 hPa 0,0 l/m 2,0 km/h (1 Bft) O 86 2 min 0,000 mm 4,4 UV-I 817 W/m 9,3 C 19,7 C 4,8 km/h (1 Bft) 95,74 %
18.06.2017 10:36 19,7 C 22,2 C 54 % 1024,1 hPa 0,0 l/m 2,9 km/h (1 Bft) O 79 2 min 0,000 mm 4,1 UV-I 711 W/m 10,1 C 19,7 C 4,8 km/h (1 Bft) 94,00 %
18.06.2017 10:38 19,7 C 22,2 C 51 % 1024,1 hPa 0,0 l/m 2,6 km/h (1 Bft) O 83 2 min 0,000 mm 3,2 UV-I 643 W/m 9,3 C 19,7 C 4,8 km/h (1 Bft) 93,62 %
18.06.2017 10:40 19,5 C 22,2 C 52 % 1024,1 hPa 0,0 l/m 3,0 km/h (1 Bft) O 83 2 min 0,000 mm 3,2 UV-I 643 W/m 9,4 C 19,5 C 4,8 km/h (1 Bft) 93,62 %
18.06.2017 10:42 19,5 C 22,2 C 52 % 1024,1 hPa 0,0 l/m 2,4 km/h (1 Bft) SO 140 2 min 0,000 mm 4,3 UV-I 643 W/m 9,4 C 19,5 C 6,4 km/h (2 Bft) 92,00 %
18.06.2017 10:44 19,5 C 22,2 C 53 % 1024,0 hPa 0,0 l/m 2,5 km/h (1 Bft) S-SO 155 0 min 0,000 mm 2,9 UV-I 382 W/m 9,7 C 19,5 C 6,4 km/h (2 Bft) 95,74 %
18.06.2017 10:46 19,3 C 22,2 C 51 % 1024,0 hPa 0,0 l/m 1,0 km/h (0 Bft) S-SO 155 0 min 0,000 mm 3,0 UV-I 317 W/m 8,9 C 19,3 C 3,2 km/h (1 Bft) 97,87 %
18.06.2017 10:48 19,1 C 22,2 C 53 % 1024,0 hPa 0,0 l/m 4,2 km/h (1 Bft) W 279 0 min 0,000 mm 3,3 UV-I 361 W/m 9,3 C 19,1 C 9,7 km/h (2 Bft) 97,22 %
18.06.2017 10:50 19,1 C 22,2 C 54 % 1023,9 hPa 0,0 l/m 2,9 km/h (1 Bft) W-NW 285 0 min 0,000 mm 3,9 UV-I 412 W/m 9,6 C 19,1 C 6,4 km/h (2 Bft) 94,00 %
18.06.2017 10:52 19,3 C 22,2 C 56 % 1024,0 hPa 0,0 l/m 4,7 km/h (1 Bft) SW 214 2 min 0,000 mm 4,1 UV-I 540 W/m 10,3 C 19,3 C 8,0 km/h (2 Bft) 96,23 %
18.06.2017 10:54 19,6 C 22,2 C 53 % 1024,0 hPa 0,0 l/m 7,6 km/h (2 Bft) S-SW 196 2 min 0,000 mm 3,7 UV-I 500 W/m 9,8 C 19,1 C 12,9 km/h (3 Bft) 95,74 %
18.06.2017 10:56 19,7 C 22,2 C 51 % 1024,0 hPa 0,0 l/m 2,1 km/h (1 Bft) W 268 2 min 0,000 mm 3,6 UV-I 506 W/m 9,3 C 19,7 C 4,8 km/h (1 Bft) 94,74 %
18.06.2017 10:58 19,7 C 22,2 C 51 % 1024,0 hPa 0,0 l/m 2,1 km/h (1 Bft) W 268 2 min 0,000 mm 3,5 UV-I 512 W/m 9,3 C 19,7 C 4,8 km/h (1 Bft) 91,49 %
18.06.2017 11:00 19,7 C 22,2 C 53 % 1024,1 hPa 0,0 l/m 4,8 km/h (1 Bft) SW 222 0 min 0,000 mm 3,1 UV-I 424 W/m 9,8 C 19,7 C 11,3 km/h (2 Bft) 93,62 %
18.06.2017 11:02 19,6 C 22,2 C 51 % 1024,1 hPa 0,0 l/m 2,6 km/h (1 Bft) S-SO 152 0 min 0,331 mm 2,7 UV-I 390 W/m 9,2 C 19,6 C 6,4 km/h (2 Bft) 94,34 %
18.06.2017 11:04 19,6 C 22,2 C 53 % 1024,1 hPa 0,0 l/m 3,6 km/h (1 Bft) W-SW 257 0 min 0,000 mm 2,4 UV-I 348 W/m 9,8 C 19,6 C 8,0 km/h (2 Bft) 91,49 %
18.06.2017 11:06 19,6 C 22,2 C 52 % 1024,1 hPa 0,0 l/m 3,7 km/h (1 Bft) W-SW 257 0 min 0,000 mm 2,2 UV-I 320 W/m 9,5 C 19,6 C 6,4 km/h (2 Bft) 93,62 %
18.06.2017 11:08 19,6 C 22,2 C 51 % 1024,1 hPa 0,0 l/m 2,9 km/h (1 Bft) S 175 0 min 0,000 mm 2,1 UV-I 309 W/m 9,2 C 19,6 C 4,8 km/h (1 Bft) 93,62 %
18.06.2017 11:10 19,6 C 22,2 C 52 % 1024,1 hPa 0,0 l/m 2,5 km/h (1 Bft) S-SO 155 0 min 0,000 mm 2,1 UV-I 314 W/m 9,5 C 19,6 C 6,4 km/h (2 Bft) 96,00 %
18.06.2017 11:12 19,6 C 22,2 C 50 % 1024,1 hPa 0,0 l/m 1,7 km/h (1 Bft) S 170 0 min 0,000 mm 2,3 UV-I 343 W/m 8,9 C 19,6 C 6,4 km/h (2 Bft) 91,49 %
18.06.2017 11:14 19,6 C 22,2 C 50 % 1024,1 hPa 0,0 l/m 4,6 km/h (1 Bft) SW 236 0 min 0,000 mm 2,5 UV-I 381 W/m 8,9 C 19,6 C 6,4 km/h (2 Bft) 91,49 %
18.06.2017 11:16 19,6 C 22,2 C 50 % 1024,1 hPa 0,0 l/m 4,3 km/h (1 Bft) SW 235 0 min 0,000 mm 2,7 UV-I 392 W/m 8,9 C 19,6 C 8,0 km/h (2 Bft) 93,62 %
18.06.2017 11:18 19,5 C 22,2 C 49 % 1024,0 hPa 0,0 l/m 0,5 km/h (0 Bft) SW 235 0 min 0,000 mm 2,9 UV-I 404 W/m 8,5 C 19,5 C 1,6 km/h (1 Bft) 94,74 %
18.06.2017 11:20 19,5 C 22,2 C 51 % 1024,1 hPa 0,0 l/m 0,8 km/h (0 Bft) SW 235 0 min 0,000 mm 2,9 UV-I 405 W/m 9,1 C 19,5 C 3,2 km/h (1 Bft) 89,36 %
18.06.2017 11:22 19,7 C 22,2 C 53 % 1024,1 hPa 0,0 l/m 0,2 km/h (0 Bft) SW 235 0 min 0,000 mm 2,9 UV-I 401 W/m 9,8 C 19,7 C 1,6 km/h (1 Bft) 95,83 %
18.06.2017 11:24 19,7 C 22,2 C 54 % 1024,1 hPa 0,0 l/m 0,1 km/h (0 Bft) SW 235 0 min 0,000 mm 2,7 UV-I 396 W/m 10,1 C 19,7 C 1,6 km/h (1 Bft) 95,74 %
18.06.2017 11:26 19,8 C 22,2 C 52 % 1024,1 hPa 0,0 l/m 2,3 km/h (1 Bft) SW 235 0 min 0,000 mm 2,6 UV-I 377 W/m 9,7 C 19,8 C 4,8 km/h (1 Bft) 97,87 %
18.06.2017 11:28 19,8 C 22,2 C 49 % 1024,1 hPa 0,0 l/m 4,8 km/h (1 Bft) W 265 0 min 0,000 mm 2,6 UV-I 372 W/m 8,8 C 19,8 C 11,3 km/h (2 Bft) 100,00 %
18.06.2017 11:30 19,7 C 22,2 C 49 % 1024,1 hPa 0,0 l/m 0,8 km/h (0 Bft) W 267 0 min 0,000 mm 2,6 UV-I 365 W/m 8,7 C 19,7 C 1,6 km/h (1 Bft) 97,87 %
18.06.2017 11:32 19,7 C 22,2 C 49 % 1024,1 hPa 0,0 l/m 2,3 km/h (1 Bft) W 267 0 min 0,000 mm 2,6 UV-I 360 W/m 8,7 C 19,7 C 4,8 km/h (1 Bft) 100,00 %
18.06.2017 11:34 19,6 C 22,2 C 50 % 1024,1 hPa 0,0 l/m 0,5 km/h (0 Bft) W 267 0 min 0,000 mm 2,6 UV-I 363 W/m 8,9 C 19,6 C 3,2 km/h (1 Bft) 97,87 %
18.06.2017 11:36 19,6 C 22,2 C 54 % 1024,1 hPa 0,0 l/m 2,0 km/h (1 Bft) W 269 0 min 0,000 mm 2,8 UV-I 380 W/m 10,0 C 19,6 C 4,8 km/h (1 Bft) 97,87 %
18.06.2017 11:38 19,6 C 22,2 C 53 % 1024,1 hPa 0,0 l/m 1,9 km/h (1 Bft) W-NW 291 0 min 0,000 mm 3,4 UV-I 407 W/m 9,8 C 19,6 C 4,8 km/h (1 Bft) 97,87 %
18.06.2017 11:40 19,7 C 22,2 C 52 % 1024,1 hPa 0,0 l/m 2,2 km/h (1 Bft) N-NW 331 0 min 0,000 mm 3,4 UV-I 469 W/m 9,6 C 19,7 C 6,4 km/h (2 Bft) 100,00 %
18.06.2017 11:42 19,7 C 22,2 C 52 % 1024,0 hPa 0,0 l/m 1,1 km/h (1 Bft) N-NW 330 0 min 0,000 mm 3,1 UV-I 449 W/m 9,6 C 19,7 C 3,2 km/h (1 Bft) 93,62 %
18.06.2017 11:44 19,7 C 22,2 C 50 % 1024,1 hPa 0,0 l/m 3,3 km/h (1 Bft) W-NW 290 0 min 0,000 mm 3,1 UV-I 437 W/m 9,0 C 19,7 C 6,4 km/h (2 Bft) 96,00 %
18.06.2017 11:46 19,7 C 22,2 C 52 % 1024,1 hPa 0,0 l/m 1,7 km/h (1 Bft) W-NW 290 0 min 0,000 mm 3,2 UV-I 431 W/m 9,6 C 19,7 C 3,2 km/h (1 Bft) 91,49 %
18.06.2017 11:48 19,7 C 22,2 C 48 % 1024,1 hPa 0,0 l/m 3,7 km/h (1 Bft) W-NW 284 0 min 0,000 mm 3,3 UV-I 451 W/m 8,4 C 19,7 C 9,7 km/h (2 Bft) 97,87 %
18.06.2017 11:50 19,7 C 22,2 C 51 % 1024,1 hPa 0,0 l/m 2,7 km/h (1 Bft) W-NW 303 0 min 0,000 mm 3,2 UV-I 434 W/m 9,3 C 19,7 C 11,3 km/h (2 Bft) 100,00 %
18.06.2017 11:52 19,7 C 22,2 C 49 % 1024,1 hPa 0,0 l/m 2,4 km/h (1 Bft) NW 306 0 min 0,000 mm 3,1 UV-I 423 W/m 8,7 C 19,7 C 6,4 km/h (2 Bft) 100,00 %
18.06.2017 11:54 19,7 C 22,2 C 51 % 1024,1 hPa 0,0 l/m 1,2 km/h (1 Bft) NW 307 0 min 0,000 mm 3,0 UV-I 412 W/m 9,3 C 19,7 C 3,2 km/h (1 Bft) 100,00 %
18.06.2017 11:56 19,7 C 22,2 C 50 % 1024,1 hPa 0,0 l/m 1,0 km/h (0 Bft) NW 308 0 min 0,000 mm 2,8 UV-I 393 W/m 9,0 C 19,7 C 4,8 km/h (1 Bft) 97,87 %
18.06.2017 11:58 19,7 C 22,2 C 51 % 1024,0 hPa 0,0 l/m 2,3 km/h (1 Bft) NW 322 0 min 0,000 mm 2,8 UV-I 373 W/m 9,3 C 19,7 C 4,8 km/h (1 Bft) 100,00 %
18.06.2017 12:00 19,7 C 22,2 C 52 % 1024,1 hPa 0,0 l/m 1,0 km/h (0 Bft) NW 321 0 min 0,254 mm 2,6 UV-I 357 W/m 9,6 C 19,7 C 3,2 km/h (1 Bft) 97,87 %
18.06.2017 12:02 19,8 C 22,2 C 52 % 1024,1 hPa 0,0 l/m 3,1 km/h (1 Bft) W-NW 302 0 min 0,000 mm 2,6 UV-I 351 W/m 9,7 C 19,8 C 9,7 km/h (2 Bft) 95,74 %
18.06.2017 12:04 19,8 C 22,2 C 50 % 1024,1 hPa 0,0 l/m 2,6 km/h (1 Bft) N-NW 334 0 min 0,000 mm 2,7 UV-I 358 W/m 9,1 C 19,8 C 6,4 km/h (2 Bft) 96,00 %
18.06.2017 12:06 19,7 C 22,2 C 51 % 1024,1 hPa 0,0 l/m 2,1 km/h (1 Bft) N-NW 335 0 min 0,000 mm 2,7 UV-I 351 W/m 9,3 C 19,7 C 4,8 km/h (1 Bft) 97,92 %
18.06.2017 12:08 19,7 C 22,2 C 52 % 1024,1 hPa 0,0 l/m 2,3 km/h (1 Bft) N 349 0 min 0,000 mm 2,8 UV-I 361 W/m 9,6 C 19,7 C 6,4 km/h (2 Bft) 97,14 %
18.06.2017 12:10 19,7 C 22,2 C 52 % 1024,1 hPa 0,0 l/m 2,3 km/h (1 Bft) NW 323 0 min 0,000 mm 3,0 UV-I 367 W/m 9,6 C 19,7 C 6,4 km/h (2 Bft) 100,00 %
18.06.2017 12:12 19,7 C 22,2 C 49 % 1024,1 hPa 0,0 l/m 1,2 km/h (1 Bft) NW 323 0 min 0,000 mm 3,1 UV-I 368 W/m 8,7 C 19,7 C 4,8 km/h (1 Bft) 95,74 %
18.06.2017 12:14 19,7 C 22,2 C 49 % 1024,1 hPa 0,0 l/m 2,2 km/h (1 Bft) NW 319 0 min 0,000 mm 3,3 UV-I 384 W/m 8,7 C 19,7 C 4,8 km/h (1 Bft) 100,00 %
18.06.2017 12:16 19,6 C 22,2 C 48 % 1024,0 hPa 0,0 l/m 1,5 km/h (1 Bft) W-NW 295 0 min 0,000 mm 3,6 UV-I 408 W/m 8,3 C 19,6 C 6,4 km/h (2 Bft) 96,00 %
18.06.2017 12:18 19,6 C 22,2 C 49 % 1024,0 hPa 0,0 l/m 4,0 km/h (1 Bft) W 281 0 min 0,000 mm 3,9 UV-I 436 W/m 8,6 C 19,6 C 6,4 km/h (2 Bft) 97,87 %
18.06.2017 12:20 19,7 C 22,2 C 48 % 1024,0 hPa 0,0 l/m 0,6 km/h (0 Bft) W 281 0 min 0,000 mm 4,0 UV-I 456 W/m 8,4 C 19,7 C 3,2 km/h (1 Bft) 100,00 %
18.06.2017 12:22 19,7 C 22,2 C 49 % 1024,0 hPa 0,0 l/m 2,3 km/h (1 Bft) W-NW 285 2 min 0,000 mm 4,3 UV-I 497 W/m 8,7 C 19,7 C 4,8 km/h (1 Bft) 96,00 %
18.06.2017 12:24 19,7 C 22,2 C 47 % 1024,0 hPa 0,0 l/m 1,8 km/h (1 Bft) W-NW 285 2 min 0,000 mm 5,0 UV-I 574 W/m 8,1 C 19,7 C 3,2 km/h (1 Bft) 100,00 %
18.06.2017 12:26 19,7 C 22,2 C 48 % 1024,0 hPa 0,0 l/m 0,7 km/h (0 Bft) W-NW 285 2 min 0,000 mm 4,9 UV-I 564 W/m 8,4 C 19,7 C 1,6 km/h (1 Bft) 95,74 %
18.06.2017 12:28 19,7 C 22,2 C 48 % 1024,0 hPa 0,0 l/m 2,1 km/h (1 Bft) W-NW 285 2 min 0,000 mm 4,9 UV-I 562 W/m 8,4 C 19,7 C 3,2 km/h (1 Bft) 97,87 %
18.06.2017 12:30 19,9 C 22,2 C 49 % 1024,0 hPa 0,0 l/m 3,5 km/h (1 Bft) N-NO 23 2 min 0,000 mm 5,5 UV-I 611 W/m 8,9 C 19,9 C 8,0 km/h (2 Bft) 100,00 %
18.06.2017 12:32 20,2 C 22,2 C 48 % 1024,0 hPa 0,0 l/m 3,6 km/h (1 Bft) NO 38 2 min 0,000 mm 6,5 UV-I 679 W/m 8,8 C 20,2 C 8,0 km/h (2 Bft) 100,00 %
18.06.2017 12:34 20,6 C 22,2 C 48 % 1024,0 hPa 0,0 l/m 5,4 km/h (1 Bft) O-NO 61 2 min 0,000 mm 8,1 UV-I 731 W/m 9,2 C 20,6 C 8,0 km/h (2 Bft) 100,00 %
18.06.2017 12:36 21,0 C 22,2 C 46 % 1024,0 hPa 0,0 l/m 1,7 km/h (1 Bft) S-SO 150 2 min 0,000 mm 7,0 UV-I 731 W/m 8,9 C 21,0 C 3,2 km/h (1 Bft) 100,00 %
18.06.2017 12:38 21,0 C 22,2 C 46 % 1024,0 hPa 0,0 l/m 5,4 km/h (1 Bft) S-SO 160 2 min 0,000 mm 6,0 UV-I 729 W/m 8,9 C 21,0 C 8,0 km/h (2 Bft) 93,62 %
18.06.2017 12:40 20,9 C 22,2 C 46 % 1024,0 hPa 0,0 l/m 4,9 km/h (1 Bft) S-SW 207 2 min 0,000 mm 5,9 UV-I 679 W/m 8,8 C 20,9 C 8,0 km/h (2 Bft) 100,00 %
18.06.2017 12:42 20,8 C 22,2 C 46 % 1023,9 hPa 0,0 l/m 5,5 km/h (1 Bft) S-SW 195 2 min 0,000 mm 5,9 UV-I 650 W/m 8,8 C 20,8 C 8,0 km/h (2 Bft) 97,87 %
18.06.2017 12:44 21,0 C 22,8 C 47 % 1024,0 hPa 0,0 l/m 4,4 km/h (1 Bft) S-SW 213 2 min 0,000 mm 6,8 UV-I 641 W/m 9,3 C 21,0 C 9,7 km/h (2 Bft) 95,74 %
18.06.2017 12:46 20,8 C 22,8 C 45 % 1024,0 hPa 0,0 l/m 5,5 km/h (1 Bft) S-SO 158 2 min 0,000 mm 4,9 UV-I 615 W/m 8,4 C 20,8 C 11,3 km/h (2 Bft) 93,62 %
18.06.2017 12:48 20,6 C 22,8 C 47 % 1023,9 hPa 0,0 l/m 3,0 km/h (1 Bft) SO 138 2 min 0,000 mm 4,5 UV-I 589 W/m 8,9 C 20,6 C 6,4 km/h (2 Bft) 96,00 %
18.06.2017 12:50 20,7 C 22,8 C 46 % 1023,9 hPa 0,0 l/m 3,8 km/h (1 Bft) O-SO 109 2 min 0,000 mm 3,9 UV-I 513 W/m 8,7 C 20,7 C 11,3 km/h (2 Bft) 95,74 %
18.06.2017 12:52 20,5 C 22,8 C 46 % 1023,9 hPa 0,0 l/m 3,4 km/h (1 Bft) O-SO 109 0 min 0,000 mm 3,5 UV-I 461 W/m 8,5 C 20,5 C 11,3 km/h (2 Bft) 97,87 %
18.06.2017 12:54 20,4 C 22,8 C 46 % 1023,9 hPa 0,0 l/m 1,9 km/h (1 Bft) O-SO 109 0 min 0,000 mm 3,1 UV-I 403 W/m 8,4 C 20,4 C 3,2 km/h (1 Bft) 97,87 %
18.06.2017 12:56 20,4 C 22,8 C 49 % 1023,9 hPa 0,0 l/m 2,4 km/h (1 Bft) O 90 0 min 0,000 mm 2,8 UV-I 364 W/m 9,3 C 20,4 C 4,8 km/h (1 Bft) 97,87 %
18.06.2017 12:58 20,6 C 22,8 C 49 % 1023,9 hPa 0,0 l/m 2,6 km/h (1 Bft) NO 55 0 min 0,000 mm 2,5 UV-I 338 W/m 9,5 C 20,6 C 6,4 km/h (2 Bft) 97,87 %
18.06.2017 13:00 20,6 C 22,8 C 49 % 1023,9 hPa 0,0 l/m 2,4 km/h (1 Bft) NO 55 0 min 0,330 mm 2,4 UV-I 321 W/m 9,5 C 20,6 C 6,4 km/h (2 Bft) 93,62 %
18.06.2017 13:02 20,4 C 22,8 C 46 % 1023,9 hPa 0,0 l/m 1,2 km/h (1 Bft) NO 55 0 min 0,000 mm 2,3 UV-I 306 W/m 8,4 C 20,4 C 3,2 km/h (1 Bft) 97,92 %
18.06.2017 13:04 20,3 C 22,8 C 46 % 1023,9 hPa 0,0 l/m 0,0 km/h (0 Bft) NO 55 0 min 0,000 mm 2,2 UV-I 300 W/m 8,3 C 20,3 C 1,6 km/h (1 Bft) 95,74 %
18.06.2017 13:06 20,2 C 22,8 C 48 % 1024,0 hPa 0,0 l/m 0,3 km/h (0 Bft) NO 55 0 min 0,000 mm 2,2 UV-I 303 W/m 8,8 C 20,2 C 1,6 km/h (1 Bft) 93,62 %
18.06.2017 13:08 20,3 C 22,8 C 49 % 1023,9 hPa 0,0 l/m 2,2 km/h (1 Bft) N-NW 331 0 min 0,000 mm 2,4 UV-I 315 W/m 9,2 C 20,3 C 6,4 km/h (2 Bft) 97,37 %
18.06.2017 13:10 20,3 C 22,8 C 49 % 1023,9 hPa 0,0 l/m 1,8 km/h (1 Bft) N-NW 328 0 min 0,000 mm 2,6 UV-I 335 W/m 9,2 C 20,3 C 4,8 km/h (1 Bft) 93,62 %
18.06.2017 13:12 20,2 C 22,8 C 49 % 1023,9 hPa 0,0 l/m 1,9 km/h (1 Bft) W-NW 302 0 min 0,000 mm 2,7 UV-I 354 W/m 9,1 C 20,2 C 6,4 km/h (2 Bft) 97,92 %
18.06.2017 13:14 20,2 C 22,8 C 49 % 1023,9 hPa 0,0 l/m 2,0 km/h (1 Bft) W-NW 303 0 min 0,000 mm 2,9 UV-I 375 W/m 9,1 C 20,2 C 3,2 km/h (1 Bft) 98,00 %
18.06.2017 13:16 20,3 C 22,8 C 49 % 1023,9 hPa 0,0 l/m 2,3 km/h (1 Bft) W-NW 296 0 min 0,000 mm 3,1 UV-I 396 W/m 9,2 C 20,3 C 4,8 km/h (1 Bft) 100,00 %
18.06.2017 13:18 20,3 C 22,8 C 47 % 1023,9 hPa 0,0 l/m 1,8 km/h (1 Bft) NO 42 0 min 0,000 mm 3,3 UV-I 412 W/m 8,6 C 20,3 C 4,8 km/h (1 Bft) 91,49 %
18.06.2017 13:20 20,3 C 22,8 C 47 % 1023,8 hPa 0,0 l/m 1,0 km/h (0 Bft) NO 42 0 min 0,000 mm 3,4 UV-I 428 W/m 8,6 C 20,3 C 3,2 km/h (1 Bft) 100,00 %
18.06.2017 13:22 20,3 C 22,8 C 50 % 1023,8 hPa 0,0 l/m 0,9 km/h (0 Bft) NO 36 0 min 0,000 mm 3,7 UV-I 439 W/m 9,5 C 20,3 C 3,2 km/h (1 Bft) 94,00 %
18.06.2017 13:24 20,5 C 22,8 C 47 % 1023,8 hPa 0,0 l/m 1,1 km/h (1 Bft) SW 223 0 min 0,000 mm 3,9 UV-I 448 W/m 8,8 C 20,5 C 3,2 km/h (1 Bft) 100,00 %
18.06.2017 13:26 20,5 C 22,8 C 48 % 1023,8 hPa 0,0 l/m 0,6 km/h (0 Bft) SW 219 0 min 0,000 mm 4,1 UV-I 461 W/m 9,1 C 20,5 C 1,6 km/h (1 Bft) 94,00 %
18.06.2017 13:28 20,6 C 22,8 C 49 % 1023,8 hPa 0,0 l/m 1,3 km/h (1 Bft) NW 323 2 min 0,000 mm 4,5 UV-I 498 W/m 9,5 C 20,6 C 4,8 km/h (1 Bft) 100,00 %
18.06.2017 13:30 20,7 C 22,8 C 49 % 1023,8 hPa 0,0 l/m 0,4 km/h (0 Bft) NW 316 2 min 0,000 mm 5,1 UV-I 580 W/m 9,6 C 20,7 C 1,6 km/h (1 Bft) 95,74 %
18.06.2017 13:32 20,8 C 22,8 C 47 % 1023,7 hPa 0,0 l/m 2,8 km/h (1 Bft) W-NW 284 2 min 0,000 mm 6,9 UV-I 629 W/m 9,1 C 20,8 C 6,4 km/h (2 Bft) 95,74 %
18.06.2017 13:34 21,2 C 22,8 C 49 % 1023,7 hPa 0,0 l/m 5,1 km/h (1 Bft) W 264 2 min 0,000 mm 7,1 UV-I 728 W/m 10,1 C 21,2 C 9,7 km/h (2 Bft) 97,87 %
18.06.2017 13:36 21,4 C 22,8 C 45 % 1023,7 hPa 0,0 l/m 5,1 km/h (1 Bft) S-SW 201 2 min 0,000 mm 6,7 UV-I 1049 W/m 9,0 C 21,4 C 9,7 km/h (2 Bft) 97,87 %
18.06.2017 13:38 21,7 C 22,8 C 48 % 1023,7 hPa 0,0 l/m 4,0 km/h (1 Bft) S-SO 165 2 min 0,000 mm 6,9 UV-I 1060 W/m 10,2 C 21,7 C 9,7 km/h (2 Bft) 95,74 %
18.06.2017 13:40 21,8 C 22,8 C 45 % 1023,6 hPa 0,0 l/m 2,3 km/h (1 Bft) S-SO 168 2 min 0,000 mm 7,3 UV-I 1122 W/m 9,3 C 21,8 C 6,4 km/h (2 Bft) 97,87 %
18.06.2017 13:42 21,8 C 22,8 C 44 % 1023,6 hPa 0,0 l/m 2,9 km/h (1 Bft) O-SO 122 2 min 0,000 mm 5,4 UV-I 1131 W/m 9,0 C 21,8 C 6,4 km/h (2 Bft) 100,00 %
18.06.2017 13:44 21,6 C 22,8 C 44 % 1023,6 hPa 0,0 l/m 3,3 km/h (1 Bft) N-NO 31 2 min 0,000 mm 4,9 UV-I 568 W/m 8,8 C 21,6 C 11,3 km/h (2 Bft) 98,00 %
18.06.2017 13:46 21,3 C 22,8 C 45 % 1023,6 hPa 0,0 l/m 4,2 km/h (1 Bft) NO 40 2 min 0,000 mm 4,6 UV-I 504 W/m 8,9 C 21,3 C 8,0 km/h (2 Bft) 100,00 %
18.06.2017 13:48 21,2 C 22,8 C 48 % 1023,6 hPa 0,0 l/m 1,9 km/h (1 Bft) N-NO 24 0 min 0,000 mm 4,4 UV-I 463 W/m 9,7 C 21,2 C 3,2 km/h (1 Bft) 95,74 %
18.06.2017 13:50 21,4 C 22,8 C 47 % 1023,6 hPa 0,0 l/m 2,3 km/h (1 Bft) NO 40 2 min 0,000 mm 4,8 UV-I 491 W/m 9,6 C 21,4 C 6,4 km/h (2 Bft) 97,87 %
18.06.2017 13:52 21,6 C 22,8 C 48 % 1023,6 hPa 0,0 l/m 2,5 km/h (1 Bft) N-NO 15 2 min 0,000 mm 6,3 UV-I 637 W/m 10,1 C 21,6 C 4,8 km/h (1 Bft) 98,11 %
18.06.2017 13:54 21,9 C 22,8 C 46 % 1023,6 hPa 0,0 l/m 5,6 km/h (1 Bft) SW 229 2 min 0,000 mm 6,9 UV-I 1098 W/m 9,7 C 21,9 C 9,7 km/h (2 Bft) 100,00 %
18.06.2017 13:56 22,2 C 22,8 C 46 % 1023,6 hPa 0,0 l/m 2,0 km/h (1 Bft) N-NW 340 2 min 0,000 mm 6,8 UV-I 1039 W/m 10,0 C 22,2 C 6,4 km/h (2 Bft) 97,87 %
18.06.2017 13:58 22,1 C 22,8 C 44 % 1023,6 hPa 0,0 l/m 4,6 km/h (1 Bft) N-NW 340 2 min 0,000 mm 6,8 UV-I 1005 W/m 9,3 C 22,1 C 9,7 km/h (2 Bft) 97,37 %
18.06.2017 14:00 22,0 C 22,8 C 45 % 1023,6 hPa 0,0 l/m 2,5 km/h (1 Bft) NW 315 2 min 0,381 mm 5,8 UV-I 778 W/m 9,5 C 22,0 C 6,4 km/h (2 Bft) 97,87 %
18.06.2017 14:02 21,9 C 22,8 C 45 % 1023,6 hPa 0,0 l/m 4,0 km/h (1 Bft) NW 312 2 min 0,000 mm 7,1 UV-I 541 W/m 9,4 C 21,9 C 8,0 km/h (2 Bft) 97,87 %
18.06.2017 14:04 21,9 C 22,8 C 42 % 1023,5 hPa 0,0 l/m 2,1 km/h (1 Bft) NW 318 2 min 0,000 mm 7,1 UV-I 541 W/m 8,4 C 21,9 C 4,8 km/h (1 Bft) 97,87 %
18.06.2017 14:06 22,1 C 22,8 C 49 % 1023,6 hPa 0,0 l/m 1,8 km/h (1 Bft) O-NO 59 2 min 0,000 mm 7,4 UV-I 810 W/m 10,9 C 22,1 C 3,2 km/h (1 Bft) 100,00 %
18.06.2017 14:08 22,3 C 22,8 C 43 % 1023,5 hPa 0,0 l/m 3,1 km/h (1 Bft) N-NO 24 2 min 0,000 mm 6,5 UV-I 1104 W/m 9,1 C 22,3 C 6,4 km/h (2 Bft) 95,74 %
18.06.2017 14:10 22,3 C 22,8 C 43 % 1023,5 hPa 0,0 l/m 6,7 km/h (2 Bft) W-NW 286 2 min 0,000 mm 7,0 UV-I 1104 W/m 9,1 C 22,2 C 14,5 km/h (3 Bft) 97,87 %
18.06.2017 14:12 22,3 C 22,8 C 43 % 1023,5 hPa 0,0 l/m 4,8 km/h (1 Bft) W-NW 300 2 min 0,000 mm 6,4 UV-I 1104 W/m 9,1 C 22,3 C 12,9 km/h (3 Bft) 97,87 %
18.06.2017 14:14 22,2 C 22,8 C 44 % 1023,5 hPa 0,0 l/m 3,2 km/h (1 Bft) N-NW 345 2 min 0,000 mm 5,0 UV-I 751 W/m 9,4 C 22,2 C 6,4 km/h (2 Bft) 95,74 %
18.06.2017 14:16 22,2 C 22,8 C 45 % 1023,5 hPa 0,0 l/m 2,6 km/h (1 Bft) N 355 2 min 0,000 mm 4,8 UV-I 494 W/m 9,7 C 22,2 C 4,8 km/h (1 Bft) 97,87 %
18.06.2017 14:18 22,2 C 22,8 C 44 % 1023,5 hPa 0,0 l/m 4,1 km/h (1 Bft) NW 307 2 min 0,000 mm 4,8 UV-I 506 W/m 9,4 C 22,2 C 6,4 km/h (2 Bft) 97,87 %
18.06.2017 14:20 22,2 C 22,8 C 44 % 1023,5 hPa 0,0 l/m 1,0 km/h (0 Bft) N 5 2 min 0,000 mm 5,5 UV-I 531 W/m 9,4 C 22,2 C 1,6 km/h (1 Bft) 97,87 %
18.06.2017 14:22 22,2 C 22,8 C 43 % 1023,4 hPa 0,0 l/m 1,0 km/h (0 Bft) N 355 2 min 0,000 mm 6,6 UV-I 876 W/m 9,0 C 22,2 C 1,6 km/h (1 Bft) 95,74 %
18.06.2017 14:24 22,2 C 22,8 C 45 % 1023,4 hPa 0,0 l/m 1,7 km/h (1 Bft) N 11 2 min 0,000 mm 6,6 UV-I 984 W/m 9,7 C 22,2 C 4,8 km/h (1 Bft) 97,56 %
18.06.2017 14:26 22,6 C 22,8 C 46 % 1023,4 hPa 0,0 l/m 4,6 km/h (1 Bft) N-NO 30 2 min 0,000 mm 6,6 UV-I 958 W/m 10,4 C 22,6 C 12,9 km/h (3 Bft) 96,00 %
18.06.2017 14:28 22,8 C 22,8 C 42 % 1023,5 hPa 0,0 l/m 3,5 km/h (1 Bft) N-NO 12 2 min 0,000 mm 6,4 UV-I 940 W/m 9,2 C 22,8 C 8,0 km/h (2 Bft) 97,87 %
18.06.2017 14:30 22,7 C 22,8 C 44 % 1023,4 hPa 0,0 l/m 7,8 km/h (2 Bft) NO 46 2 min 0,000 mm 6,5 UV-I 902 W/m 9,8 C 22,2 C 12,9 km/h (3 Bft) 95,74 %
18.06.2017 14:32 22,7 C 22,8 C 44 % 1023,4 hPa 0,0 l/m 5,5 km/h (1 Bft) O-NO 57 2 min 0,000 mm 6,4 UV-I 953 W/m 9,8 C 22,7 C 9,7 km/h (2 Bft) 97,87 %
18.06.2017 14:34 22,7 C 22,8 C 42 % 1023,4 hPa 0,0 l/m 2,2 km/h (1 Bft) N-NO 24 2 min 0,000 mm 6,4 UV-I 966 W/m 9,1 C 22,7 C 8,0 km/h (2 Bft) 93,62 %
18.06.2017 14:36 22,7 C 22,8 C 42 % 1023,4 hPa 0,0 l/m 2,4 km/h (1 Bft) W-NW 300 2 min 0,000 mm 6,3 UV-I 939 W/m 9,1 C 22,7 C 4,8 km/h (1 Bft) 97,87 %
18.06.2017 14:38 22,7 C 22,8 C 43 % 1023,4 hPa 0,0 l/m 1,5 km/h (1 Bft) O-NO 61 2 min 0,000 mm 6,3 UV-I 927 W/m 9,5 C 22,7 C 4,8 km/h (1 Bft) 93,75 %
18.06.2017 14:40 22,6 C 22,8 C 40 % 1023,4 hPa 0,0 l/m 2,4 km/h (1 Bft) O-NO 76 2 min 0,000 mm 6,1 UV-I 902 W/m 8,3 C 22,6 C 4,8 km/h (1 Bft) 91,49 %
18.06.2017 14:42 22,6 C 22,8 C 43 % 1023,3 hPa 0,0 l/m 2,2 km/h (1 Bft) O-SO 123 2 min 0,000 mm 6,1 UV-I 920 W/m 9,4 C 22,6 C 4,8 km/h (1 Bft) 95,74 %
18.06.2017 14:44 22,8 C 22,8 C 41 % 1023,3 hPa 0,0 l/m 4,1 km/h (1 Bft) SO 144 2 min 0,000 mm 6,1 UV-I 928 W/m 8,9 C 22,8 C 8,0 km/h (2 Bft) 92,00 %
18.06.2017 14:46 22,9 C 22,8 C 43 % 1023,3 hPa 0,0 l/m 5,5 km/h (1 Bft) S 170 2 min 0,000 mm 6,1 UV-I 934 W/m 9,6 C 22,9 C 11,3 km/h (2 Bft) 93,62 %
18.06.2017 14:48 22,9 C 22,8 C 41 % 1023,3 hPa 0,0 l/m 7,8 km/h (2 Bft) W-SW 248 2 min 0,000 mm 6,0 UV-I 946 W/m 8,9 C 22,5 C 16,1 km/h (3 Bft) 92,11 %
18.06.2017 14:50 23,1 C 22,8 C 42 % 1023,3 hPa 0,0 l/m 7,4 km/h (2 Bft) SW 214 2 min 0,000 mm 4,9 UV-I 958 W/m 9,5 C 22,8 C 14,5 km/h (3 Bft) 93,62 %
18.06.2017 14:52 22,9 C 23,3 C 42 % 1023,3 hPa 0,0 l/m 6,3 km/h (2 Bft) SW 223 2 min 0,000 mm 5,0 UV-I 958 W/m 9,3 C 22,9 C 12,9 km/h (3 Bft) 91,49 %
18.06.2017 14:54 22,9 C 22,8 C 41 % 1023,2 hPa 0,0 l/m 7,2 km/h (2 Bft) S-SO 164 2 min 0,000 mm 5,9 UV-I 910 W/m 8,9 C 22,6 C 11,3 km/h (2 Bft) 91,49 %
18.06.2017 14:56 22,7 C 23,3 C 42 % 1023,2 hPa 0,0 l/m 4,1 km/h (1 Bft) S-SW 198 2 min 0,000 mm 5,8 UV-I 891 W/m 9,1 C 22,7 C 9,7 km/h (2 Bft) 93,88 %
18.06.2017 14:58 22,8 C 23,3 C 42 % 1023,2 hPa 0,0 l/m 4,8 km/h (1 Bft) S-SO 155 2 min 0,000 mm 5,6 UV-I 852 W/m 9,2 C 22,8 C 11,3 km/h (2 Bft) 94,00 %
18.06.2017 15:00 22,8 C 23,3 C 42 % 1023,2 hPa 0,0 l/m 2,1 km/h (1 Bft) S 179 2 min 0,000 mm 5,4 UV-I 852 W/m 9,2 C 22,8 C 4,8 km/h (1 Bft) 92,00 %
18.06.2017 15:02 23,1 C 23,3 C 43 % 1023,2 hPa 0,0 l/m 1,4 km/h (1 Bft) S 190 2 min 0,559 mm 5,6 UV-I 859 W/m 9,8 C 23,1 C 3,2 km/h (1 Bft) 95,74 %
18.06.2017 15:04 23,0 C 23,3 C 40 % 1023,2 hPa 0,0 l/m 2,2 km/h (1 Bft) S-SO 152 2 min 0,000 mm 5,5 UV-I 845 W/m 8,7 C 23,0 C 4,8 km/h (1 Bft) 93,62 %
18.06.2017 15:06 22,7 C 23,3 C 41 % 1023,2 hPa 0,0 l/m 1,8 km/h (1 Bft) N-NO 32 2 min 0,000 mm 5,6 UV-I 878 W/m 8,8 C 22,7 C 6,4 km/h (2 Bft) 94,59 %
18.06.2017 15:08 22,9 C 23,3 C 42 % 1023,2 hPa 0,0 l/m 3,8 km/h (1 Bft) N 5 2 min 0,000 mm 5,6 UV-I 896 W/m 9,3 C 22,9 C 8,0 km/h (2 Bft) 95,74 %
18.06.2017 15:10 23,0 C 23,3 C 44 % 1023,2 hPa 0,0 l/m 3,7 km/h (1 Bft) N-NW 334 2 min 0,000 mm 5,5 UV-I 889 W/m 10,1 C 23,0 C 9,7 km/h (2 Bft) 95,74 %
18.06.2017 15:12 23,1 C 23,3 C 43 % 1023,1 hPa 0,0 l/m 3,7 km/h (1 Bft) N-NO 30 2 min 0,000 mm 5,2 UV-I 869 W/m 9,8 C 23,1 C 9,7 km/h (2 Bft) 93,75 %
18.06.2017 15:14 23,2 C 23,3 C 42 % 1023,1 hPa 0,0 l/m 3,6 km/h (1 Bft) N-NO 22 2 min 0,000 mm 4,0 UV-I 857 W/m 9,6 C 23,2 C 6,4 km/h (2 Bft) 95,92 %
18.06.2017 15:16 23,0 C 23,3 C 41 % 1023,1 hPa 0,0 l/m 5,1 km/h (1 Bft) O-NO 63 2 min 0,000 mm 5,3 UV-I 825 W/m 9,0 C 23,0 C 9,7 km/h (2 Bft) 96,00 %
18.06.2017 15:18 22,8 C 23,3 C 43 % 1023,1 hPa 0,0 l/m 2,9 km/h (1 Bft) N-NO 33 2 min 0,000 mm 5,2 UV-I 835 W/m 9,6 C 22,8 C 6,4 km/h (2 Bft) 91,67 %
18.06.2017 15:20 22,8 C 23,3 C 44 % 1023,1 hPa 0,0 l/m 5,9 km/h (2 Bft) N-NO 23 2 min 0,000 mm 5,2 UV-I 846 W/m 9,9 C 22,8 C 9,7 km/h (2 Bft) 97,87 %
18.06.2017 15:22 23,1 C 23,3 C 44 % 1023,1 hPa 0,0 l/m 3,6 km/h (1 Bft) NW 324 2 min 0,000 mm 5,2 UV-I 854 W/m 10,2 C 23,1 C 8,0 km/h (2 Bft) 94,74 %
18.06.2017 15:24 23,3 C 23,3 C 42 % 1023,0 hPa 0,0 l/m 5,4 km/h (1 Bft) N-NO 22 2 min 0,000 mm 5,2 UV-I 860 W/m 9,7 C 23,3 C 11,3 km/h (2 Bft) 94,34 %
18.06.2017 15:26 23,4 C 23,3 C 43 % 1022,9 hPa 0,0 l/m 4,6 km/h (1 Bft) NO 49 2 min 0,000 mm 5,2 UV-I 868 W/m 10,1 C 23,4 C 9,7 km/h (2 Bft) 97,87 %
18.06.2017 15:28 23,6 C 23,3 C 41 % 1022,9 hPa 0,0 l/m 5,0 km/h (1 Bft) N 11 2 min 0,000 mm 5,1 UV-I 848 W/m 9,6 C 23,6 C 12,9 km/h (3 Bft) 97,87 %
18.06.2017 15:30 23,4 C 23,3 C 42 % 1022,9 hPa 0,0 l/m 1,5 km/h (1 Bft) N-NW 338 2 min 0,000 mm 5,0 UV-I 820 W/m 9,7 C 23,4 C 4,8 km/h (1 Bft) 95,74 %
18.06.2017 15:32 23,5 C 23,3 C 42 % 1022,8 hPa 0,0 l/m 2,7 km/h (1 Bft) S-SW 207 2 min 0,000 mm 5,0 UV-I 814 W/m 9,8 C 23,5 C 6,4 km/h (2 Bft) 100,00 %
18.06.2017 15:34 23,5 C 23,3 C 39 % 1022,9 hPa 0,0 l/m 2,6 km/h (1 Bft) N-NW 327 2 min 0,000 mm 5,0 UV-I 807 W/m 8,7 C 23,5 C 6,4 km/h (2 Bft) 95,74 %
18.06.2017 15:36 23,3 C 23,3 C 40 % 1022,9 hPa 0,0 l/m 6,3 km/h (2 Bft) W-NW 286 2 min 0,000 mm 4,9 UV-I 787 W/m 8,9 C 23,3 C 12,9 km/h (3 Bft) 95,74 %
18.06.2017 15:38 23,2 C 23,3 C 39 % 1022,9 hPa 0,0 l/m 8,9 km/h (2 Bft) NW 306 2 min 0,000 mm 4,9 UV-I 792 W/m 8,5 C 22,5 C 16,1 km/h (3 Bft) 100,00 %
18.06.2017 15:40 23,1 C 23,3 C 40 % 1022,9 hPa 0,0 l/m 5,7 km/h (1 Bft) NW 319 2 min 0,000 mm 4,7 UV-I 782 W/m 8,8 C 23,1 C 16,1 km/h (3 Bft) 100,00 %
18.06.2017 15:42 23,2 C 23,3 C 41 % 1022,8 hPa 0,0 l/m 3,3 km/h (1 Bft) NW 325 2 min 0,000 mm 4,7 UV-I 771 W/m 9,2 C 23,2 C 6,4 km/h (2 Bft) 97,87 %
18.06.2017 15:44 23,4 C 23,3 C 40 % 1022,9 hPa 0,0 l/m 4,6 km/h (1 Bft) SW 223 2 min 0,000 mm 4,6 UV-I 762 W/m 9,0 C 23,4 C 11,3 km/h (2 Bft) 95,74 %
18.06.2017 15:46 23,4 C 23,3 C 40 % 1022,8 hPa 0,0 l/m 6,5 km/h (2 Bft) W-NW 298 2 min 0,000 mm 4,6 UV-I 762 W/m 9,0 C 23,4 C 16,1 km/h (3 Bft) 100,00 %
18.06.2017 15:48 23,4 C 23,3 C 40 % 1022,8 hPa 0,0 l/m 4,5 km/h (1 Bft) NO 34 2 min 0,000 mm 4,5 UV-I 749 W/m 9,0 C 23,4 C 11,3 km/h (2 Bft) 97,87 %
18.06.2017 15:50 23,7 C 23,3 C 42 % 1022,8 hPa 0,0 l/m 7,2 km/h (2 Bft) N-NO 17 2 min 0,000 mm 4,4 UV-I 750 W/m 10,0 C 23,5 C 14,5 km/h (3 Bft) 95,74 %
18.06.2017 15:52 23,8 C 23,3 C 41 % 1022,8 hPa 0,0 l/m 5,6 km/h (1 Bft) NO 37 2 min 0,000 mm 4,4 UV-I 742 W/m 9,7 C 23,8 C 14,5 km/h (3 Bft) 100,00 %
18.06.2017 15:54 23,8 C 23,3 C 41 % 1022,7 hPa 0,0 l/m 4,8 km/h (1 Bft) N-NW 335 2 min 0,000 mm 4,4 UV-I 759 W/m 9,7 C 23,8 C 11,3 km/h (2 Bft) 95,74 %
18.06.2017 15:56 23,5 C 23,3 C 38 % 1022,8 hPa 0,0 l/m 2,8 km/h (1 Bft) N-NO 24 2 min 0,000 mm 4,3 UV-I 747 W/m 8,4 C 23,5 C 6,4 km/h (2 Bft) 100,00 %
18.06.2017 15:58 23,3 C 23,3 C 39 % 1022,7 hPa 0,0 l/m 2,8 km/h (1 Bft) O 98 2 min 0,000 mm 4,3 UV-I 751 W/m 8,6 C 23,3 C 6,4 km/h (2 Bft) 97,22 %
18.06.2017 16:00 23,3 C 23,3 C 43 % 1022,7 hPa 0,0 l/m 7,8 km/h (2 Bft) NO 34 2 min 0,533 mm 4,3 UV-I 754 W/m 10,0 C 22,9 C 14,5 km/h (3 Bft) 100,00 %
18.06.2017 16:03 23,7 C 23,3 C 41 % 1022,7 hPa 0,0 l/m 6,5 km/h (2 Bft) O-NO 71 3 min 0,000 mm 4,2 UV-I 747 W/m 9,7 C 23,7 C 14,5 km/h (3 Bft) 97,14 %
18.06.2017 16:04 23,7 C 23,3 C 38 % 1022,7 hPa 0,0 l/m 7,0 km/h (2 Bft) O-NO 75 1 min 0,000 mm 4,1 UV-I 742 W/m 8,5 C 23,5 C 9,7 km/h (2 Bft) 95,83 %
18.06.2017 16:06 23,3 C 23,3 C 39 % 1022,7 hPa 0,0 l/m 2,9 km/h (1 Bft) O 89 2 min 0,000 mm 4,0 UV-I 728 W/m 8,6 C 23,3 C 6,4 km/h (2 Bft) 97,87 %
18.06.2017 16:08 23,2 C 23,3 C 39 % 1022,6 hPa 0,0 l/m 2,9 km/h (1 Bft) O-NO 74 2 min 0,000 mm 4,0 UV-I 717 W/m 8,5 C 23,2 C 6,4 km/h (2 Bft) 97,87 %
18.06.2017 16:10 23,0 C 23,3 C 38 % 1022,6 hPa 0,0 l/m 3,1 km/h (1 Bft) O 79 2 min 0,000 mm 3,9 UV-I 683 W/m 7,9 C 23,0 C 6,4 km/h (2 Bft) 98,00 %
18.06.2017 16:12 23,1 C 23,3 C 39 % 1022,6 hPa 0,0 l/m 6,6 km/h (2 Bft) O-SO 115 2 min 0,000 mm 3,8 UV-I 683 W/m 8,4 C 23,0 C 14,5 km/h (3 Bft) 95,74 %
18.06.2017 16:14 23,1 C 23,3 C 41 % 1022,6 hPa 0,0 l/m 4,8 km/h (1 Bft) O-NO 78 2 min 0,000 mm 3,8 UV-I 696 W/m 9,1 C 23,1 C 8,0 km/h (2 Bft) 97,87 %
18.06.2017 16:16 23,2 C 23,3 C 41 % 1022,6 hPa 0,0 l/m 4,8 km/h (1 Bft) NO 51 2 min 0,000 mm 3,8 UV-I 686 W/m 9,2 C 23,2 C 8,0 km/h (2 Bft) 97,87 %
18.06.2017 16:18 23,3 C 23,3 C 41 % 1022,6 hPa 0,0 l/m 4,4 km/h (1 Bft) N-NO 28 2 min 0,000 mm 3,7 UV-I 683 W/m 9,3 C 23,3 C 6,4 km/h (2 Bft) 95,74 %
18.06.2017 16:20 23,6 C 23,3 C 42 % 1022,6 hPa 0,0 l/m 3,3 km/h (1 Bft) N-NO 24 2 min 0,000 mm 3,7 UV-I 687 W/m 9,9 C 23,6 C 6,4 km/h (2 Bft) 100,00 %
18.06.2017 16:22 23,9 C 23,3 C 43 % 1022,6 hPa 0,0 l/m 3,2 km/h (1 Bft) NO 44 2 min 0,000 mm 3,6 UV-I 684 W/m 10,5 C 23,9 C 4,8 km/h (1 Bft) 95,74 %
18.06.2017 16:24 24,1 C 23,3 C 40 % 1022,6 hPa 0,0 l/m 2,8 km/h (1 Bft) O-NO 67 2 min 0,000 mm 3,6 UV-I 678 W/m 9,6 C 24,1 C 4,8 km/h (1 Bft) 100,00 %
18.06.2017 16:26 23,9 C 23,3 C 37 % 1022,5 hPa 0,0 l/m 4,5 km/h (1 Bft) O-SO 123 2 min 0,000 mm 3,5 UV-I 671 W/m 8,3 C 23,9 C 8,0 km/h (2 Bft) 97,87 %
18.06.2017 16:28 23,6 C 23,3 C 37 % 1022,5 hPa 0,0 l/m 2,5 km/h (1 Bft) O-SO 123 2 min 0,000 mm 3,4 UV-I 669 W/m 8,0 C 23,6 C 4,8 km/h (1 Bft) 97,87 %
18.06.2017 16:30 23,3 C 23,3 C 39 % 1022,5 hPa 0,0 l/m 1,0 km/h (0 Bft) S 190 2 min 0,000 mm 3,4 UV-I 662 W/m 8,6 C 23,3 C 4,8 km/h (1 Bft) 97,87 %
18.06.2017 16:32 23,4 C 23,3 C 40 % 1022,5 hPa 0,0 l/m 4,2 km/h (1 Bft) W-NW 288 2 min 0,000 mm 3,4 UV-I 657 W/m 9,0 C 23,4 C 6,4 km/h (2 Bft) 97,87 %
18.06.2017 16:34 23,6 C 23,3 C 41 % 1022,5 hPa 0,0 l/m 3,7 km/h (1 Bft) N-NW 342 2 min 0,000 mm 3,3 UV-I 649 W/m 9,6 C 23,6 C 6,4 km/h (2 Bft) 95,74 %
18.06.2017 16:36 23,6 C 23,3 C 40 % 1022,5 hPa 0,0 l/m 1,5 km/h (1 Bft) N-NW 348 2 min 0,000 mm 3,3 UV-I 653 W/m 9,2 C 23,6 C 4,8 km/h (1 Bft) 97,87 %
18.06.2017 16:38 23,6 C 23,3 C 39 % 1022,5 hPa 0,0 l/m 3,9 km/h (1 Bft) N-NO 17 2 min 0,000 mm 3,3 UV-I 650 W/m 8,8 C 23,6 C 9,7 km/h (2 Bft) 95,83 %
18.06.2017 16:40 23,4 C 23,3 C 41 % 1022,5 hPa 0,0 l/m 2,7 km/h (1 Bft) O-NO 66 2 min 0,000 mm 3,2 UV-I 645 W/m 9,4 C 23,4 C 6,4 km/h (2 Bft) 93,62 %
18.06.2017 16:42 23,3 C 23,3 C 41 % 1022,4 hPa 0,0 l/m 0,9 km/h (0 Bft) O-NO 66 2 min 0,000 mm 3,1 UV-I 641 W/m 9,3 C 23,3 C 3,2 km/h (1 Bft) 97,87 %
18.06.2017 16:44 23,2 C 23,3 C 40 % 1022,5 hPa 0,0 l/m 1,4 km/h (1 Bft) SO 131 2 min 0,000 mm 3,1 UV-I 634 W/m 8,8 C 23,2 C 4,8 km/h (1 Bft) 93,62 %
18.06.2017 16:46 23,3 C 23,3 C 39 % 1022,4 hPa 0,0 l/m 0,6 km/h (0 Bft) SO 131 2 min 0,000 mm 3,0 UV-I 626 W/m 8,6 C 23,3 C 3,2 km/h (1 Bft) 97,87 %
18.06.2017 16:48 23,3 C 23,3 C 39 % 1022,4 hPa 0,0 l/m 1,1 km/h (1 Bft) SO 131 2 min 0,000 mm 3,0 UV-I 626 W/m 8,6 C 23,3 C 3,2 km/h (1 Bft) 91,43 %
18.06.2017 16:50 23,4 C 23,3 C 42 % 1022,4 hPa 0,0 l/m 2,6 km/h (1 Bft) N 9 2 min 0,000 mm 2,9 UV-I 627 W/m 9,7 C 23,4 C 4,8 km/h (1 Bft) 95,74 %
18.06.2017 16:52 23,5 C 23,3 C 40 % 1022,4 hPa 0,0 l/m 1,9 km/h (1 Bft) N 5 2 min 0,000 mm 2,9 UV-I 631 W/m 9,1 C 23,5 C 3,2 km/h (1 Bft) 97,87 %
18.06.2017 16:54 23,6 C 23,3 C 39 % 1022,4 hPa 0,0 l/m 1,2 km/h (1 Bft) N-NW 334 2 min 0,000 mm 2,9 UV-I 636 W/m 8,8 C 23,6 C 3,2 km/h (1 Bft) 96,00 %
18.06.2017 16:56 23,7 C 23,3 C 40 % 1022,4 hPa 0,0 l/m 1,6 km/h (1 Bft) SW 225 2 min 0,000 mm 2,8 UV-I 641 W/m 9,3 C 23,7 C 4,8 km/h (1 Bft) 93,62 %
18.06.2017 16:58 23,9 C 23,9 C 39 % 1022,4 hPa 0,0 l/m 5,3 km/h (1 Bft) W-SW 243 2 min 0,000 mm 2,8 UV-I 651 W/m 9,1 C 23,9 C 9,7 km/h (2 Bft) 97,87 %
18.06.2017 17:00 23,9 C 23,9 C 40 % 1022,4 hPa 0,0 l/m 4,0 km/h (1 Bft) W-NW 301 2 min 0,000 mm 2,7 UV-I 655 W/m 9,5 C 23,9 C 8,0 km/h (2 Bft) 100,00 %
18.06.2017 17:02 23,9 C 23,9 C 40 % 1022,4 hPa 0,0 l/m 6,2 km/h (2 Bft) NW 317 2 min 0,432 mm 2,7 UV-I 654 W/m 9,5 C 23,9 C 12,9 km/h (3 Bft) 100,00 %
18.06.2017 17:04 23,8 C 23,9 C 39 % 1022,4 hPa 0,0 l/m 5,8 km/h (2 Bft) W-NW 291 2 min 0,000 mm 2,6 UV-I 654 W/m 9,0 C 23,8 C 12,9 km/h (3 Bft) 96,00 %
18.06.2017 17:06 23,7 C 23,9 C 40 % 1022,4 hPa 0,0 l/m 7,0 km/h (2 Bft) W 259 2 min 0,000 mm 2,6 UV-I 638 W/m 9,3 C 23,5 C 11,3 km/h (2 Bft) 95,74 %
18.06.2017 17:08 23,7 C 23,9 C 39 % 1022,3 hPa 0,0 l/m 5,0 km/h (1 Bft) W 271 2 min 0,000 mm 2,5 UV-I 588 W/m 8,9 C 23,7 C 8,0 km/h (2 Bft) 100,00 %
18.06.2017 17:10 23,7 C 23,9 C 40 % 1022,3 hPa 0,0 l/m 1,6 km/h (1 Bft) N-NW 340 2 min 0,000 mm 2,5 UV-I 600 W/m 9,3 C 23,7 C 3,2 km/h (1 Bft) 93,62 %
18.06.2017 17:12 23,7 C 23,9 C 40 % 1022,2 hPa 0,0 l/m 5,3 km/h (1 Bft) W-SW 257 2 min 0,000 mm 2,4 UV-I 581 W/m 9,3 C 23,7 C 9,7 km/h (2 Bft) 100,00 %
18.06.2017 17:14 23,7 C 23,9 C 39 % 1022,2 hPa 0,0 l/m 5,4 km/h (1 Bft) W-NW 289 2 min 0,000 mm 2,4 UV-I 566 W/m 8,9 C 23,7 C 11,3 km/h (2 Bft) 95,74 %
18.06.2017 17:16 23,8 C 23,9 C 42 % 1022,2 hPa 0,0 l/m 2,6 km/h (1 Bft) NW 321 2 min 0,000 mm 2,3 UV-I 555 W/m 10,1 C 23,8 C 4,8 km/h (1 Bft) 100,00 %
18.06.2017 17:18 23,8 C 23,9 C 40 % 1022,3 hPa 0,0 l/m 2,5 km/h (1 Bft) NW 317 2 min 0,000 mm 2,3 UV-I 548 W/m 9,4 C 23,8 C 4,8 km/h (1 Bft) 100,00 %
18.06.2017 17:20 23,8 C 23,9 C 40 % 1022,2 hPa 0,0 l/m 0,6 km/h (0 Bft) NW 317 2 min 0,000 mm 2,2 UV-I 538 W/m 9,4 C 23,8 C 1,6 km/h (1 Bft) 97,87 %
18.06.2017 17:22 23,8 C 23,9 C 39 % 1022,2 hPa 0,0 l/m 1,4 km/h (1 Bft) NW 319 2 min 0,000 mm 2,2 UV-I 530 W/m 9,0 C 23,8 C 3,2 km/h (1 Bft) 96,00 %
18.06.2017 17:24 23,7 C 23,9 C 42 % 1022,2 hPa 0,0 l/m 4,9 km/h (1 Bft) NO 44 2 min 0,000 mm 2,1 UV-I 523 W/m 10,0 C 23,7 C 9,7 km/h (2 Bft) 100,00 %
18.06.2017 17:26 23,8 C 23,9 C 41 % 1022,2 hPa 0,0 l/m 7,5 km/h (2 Bft) NO 43 2 min 0,000 mm 2,1 UV-I 514 W/m 9,7 C 23,5 C 11,3 km/h (2 Bft) 100,00 %
18.06.2017 17:28 23,8 C 23,9 C 39 % 1022,2 hPa 0,0 l/m 3,0 km/h (1 Bft) O-SO 107 2 min 0,000 mm 2,0 UV-I 511 W/m 9,0 C 23,8 C 4,8 km/h (1 Bft) 97,87 %
18.06.2017 17:30 23,7 C 23,9 C 40 % 1022,1 hPa 0,0 l/m 4,5 km/h (1 Bft) NO 43 2 min 0,000 mm 2,0 UV-I 499 W/m 9,3 C 23,7 C 8,0 km/h (2 Bft) 97,87 %
18.06.2017 17:32 23,8 C 23,9 C 40 % 1022,1 hPa 0,0 l/m 5,8 km/h (2 Bft) NO 35 2 min 0,000 mm 1,9 UV-I 498 W/m 9,4 C 23,8 C 9,7 km/h (2 Bft) 97,87 %
18.06.2017 17:34 23,7 C 23,9 C 42 % 1022,1 hPa 0,0 l/m 3,6 km/h (1 Bft) N-NO 32 2 min 0,000 mm 1,9 UV-I 492 W/m 10,0 C 23,7 C 6,4 km/h (2 Bft) 97,87 %
18.06.2017 17:36 23,7 C 23,9 C 41 % 1022,1 hPa 0,0 l/m 3,8 km/h (1 Bft) NO 49 2 min 0,000 mm 1,8 UV-I 485 W/m 9,7 C 23,7 C 4,8 km/h (1 Bft) 100,00 %
18.06.2017 17:38 23,8 C 23,9 C 42 % 1022,1 hPa 0,0 l/m 0,6 km/h (0 Bft) NO 49 2 min 0,000 mm 1,8 UV-I 478 W/m 10,1 C 23,8 C 3,2 km/h (1 Bft) 95,74 %
18.06.2017 17:40 24,0 C 23,9 C 42 % 1022,1 hPa 0,0 l/m 2,0 km/h (1 Bft) NO 49 2 min 0,000 mm 1,8 UV-I 477 W/m 10,3 C 24,0 C 3,2 km/h (1 Bft) 97,87 %
18.06.2017 17:42 24,1 C 23,9 C 39 % 1022,0 hPa 0,0 l/m 3,0 km/h (1 Bft) O-SO 113 2 min 0,000 mm 1,7 UV-I 471 W/m 9,3 C 24,1 C 6,4 km/h (2 Bft) 100,00 %
18.06.2017 17:44 23,9 C 23,9 C 38 % 1022,0 hPa 0,0 l/m 4,2 km/h (1 Bft) O 90 2 min 0,000 mm 1,7 UV-I 462 W/m 8,7 C 23,9 C 6,4 km/h (2 Bft) 97,14 %
18.06.2017 17:46 23,8 C 23,9 C 39 % 1022,0 hPa 0,0 l/m 5,0 km/h (1 Bft) S-SO 152 2 min 0,000 mm 1,6 UV-I 461 W/m 9,0 C 23,8 C 11,3 km/h (2 Bft) 97,87 %
18.06.2017 17:48 23,6 C 23,9 C 39 % 1022,0 hPa 0,0 l/m 5,8 km/h (2 Bft) S 171 2 min 0,000 mm 1,6 UV-I 455 W/m 8,8 C 23,6 C 8,0 km/h (2 Bft) 100,00 %
18.06.2017 17:50 23,5 C 23,9 C 40 % 1022,1 hPa 0,0 l/m 3,3 km/h (1 Bft) S-SW 210 2 min 0,000 mm 1,5 UV-I 435 W/m 9,1 C 23,5 C 8,0 km/h (2 Bft) 98,44 %
18.06.2017 17:52 23,4 C 23,9 C 42 % 1022,1 hPa 0,0 l/m 3,8 km/h (1 Bft) S-SW 207 2 min 0,000 mm 1,5 UV-I 444 W/m 9,7 C 23,4 C 6,4 km/h (2 Bft) 97,87 %
18.06.2017 17:54 23,4 C 23,9 C 40 % 1022,0 hPa 0,0 l/m 2,7 km/h (1 Bft) S-SW 205 2 min 0,000 mm 1,5 UV-I 438 W/m 9,0 C 23,4 C 6,4 km/h (2 Bft) 97,92 %
18.06.2017 17:56 23,4 C 23,9 C 41 % 1022,1 hPa 0,0 l/m 2,3 km/h (1 Bft) S-SO 161 2 min 0,000 mm 1,4 UV-I 429 W/m 9,4 C 23,4 C 6,4 km/h (2 Bft) 98,00 %
18.06.2017 17:58 23,4 C 23,9 C 39 % 1022,0 hPa 0,0 l/m 3,3 km/h (1 Bft) SO 146 2 min 0,000 mm 1,4 UV-I 421 W/m 8,6 C 23,4 C 6,4 km/h (2 Bft) 97,87 %
18.06.2017 18:00 23,3 C 23,9 C 39 % 1022,0 hPa 0,0 l/m 2,4 km/h (1 Bft) SO 146 2 min 0,355 mm 1,4 UV-I 417 W/m 8,6 C 23,3 C 4,8 km/h (1 Bft) 100,00 %
18.06.2017 18:02 23,3 C 23,9 C 41 % 1022,0 hPa 0,0 l/m 2,6 km/h (1 Bft) SO 146 2 min 0,000 mm 1,3 UV-I 390 W/m 9,3 C 23,3 C 4,8 km/h (1 Bft) 97,87 %
18.06.2017 18:04 23,6 C 23,9 C 43 % 1022,0 hPa 0,0 l/m 1,8 km/h (1 Bft) SO 146 2 min 0,000 mm 1,3 UV-I 405 W/m 10,3 C 23,6 C 4,8 km/h (1 Bft) 97,87 %
18.06.2017 18:06 23,8 C 23,9 C 40 % 1022,1 hPa 0,0 l/m 2,7 km/h (1 Bft) S 173 2 min 0,000 mm 1,3 UV-I 405 W/m 9,4 C 23,8 C 4,8 km/h (1 Bft) 89,74 %
18.06.2017 18:08 23,8 C 23,9 C 41 % 1022,0 hPa 0,0 l/m 2,5 km/h (1 Bft) S 173 2 min 0,000 mm 1,2 UV-I 395 W/m 9,7 C 23,8 C 4,8 km/h (1 Bft) 96,00 %
18.06.2017 18:10 23,9 C 23,9 C 40 % 1022,0 hPa 0,0 l/m 1,6 km/h (1 Bft) S 191 2 min 0,000 mm 1,2 UV-I 390 W/m 9,5 C 23,9 C 4,8 km/h (1 Bft) 100,00 %
18.06.2017 18:12 23,9 C 23,9 C 40 % 1022,0 hPa 0,0 l/m 2,1 km/h (1 Bft) S 186 2 min 0,000 mm 1,2 UV-I 390 W/m 9,5 C 23,9 C 4,8 km/h (1 Bft) 95,74 %
18.06.2017 18:14 23,9 C 23,9 C 39 % 1022,0 hPa 0,0 l/m 2,3 km/h (1 Bft) S 188 2 min 0,000 mm 1,2 UV-I 396 W/m 9,1 C 23,9 C 4,8 km/h (1 Bft) 100,00 %
18.06.2017 18:16 23,8 C 23,9 C 40 % 1021,9 hPa 0,0 l/m 2,3 km/h (1 Bft) S 186 2 min 0,000 mm 1,1 UV-I 395 W/m 9,4 C 23,8 C 3,2 km/h (1 Bft) 95,74 %
18.06.2017 18:18 23,7 C 23,9 C 40 % 1021,9 hPa 0,0 l/m 1,3 km/h (1 Bft) S 186 2 min 0,000 mm 1,0 UV-I 373 W/m 9,3 C 23,7 C 3,2 km/h (1 Bft) 93,62 %
18.06.2017 18:20 23,6 C 23,9 C 40 % 1021,9 hPa 0,0 l/m 2,7 km/h (1 Bft) O-NO 65 0 min 0,000 mm 0,9 UV-I 148 W/m 9,2 C 23,6 C 6,4 km/h (2 Bft) 97,87 %
18.06.2017 18:22 23,5 C 23,9 C 40 % 1022,0 hPa 0,0 l/m 4,4 km/h (1 Bft) O-NO 61 0 min 0,000 mm 0,9 UV-I 151 W/m 9,1 C 23,5 C 6,4 km/h (2 Bft) 98,00 %
18.06.2017 18:24 23,6 C 23,9 C 41 % 1021,9 hPa 0,0 l/m 2,2 km/h (1 Bft) O-NO 60 2 min 0,000 mm 0,8 UV-I 244 W/m 9,6 C 23,6 C 4,8 km/h (1 Bft) 95,74 %
18.06.2017 18:26 23,6 C 23,9 C 42 % 1021,9 hPa 0,0 l/m 1,6 km/h (1 Bft) O-NO 60 2 min 0,000 mm 0,8 UV-I 294 W/m 9,9 C 23,6 C 3,2 km/h (1 Bft) 95,74 %
18.06.2017 18:28 23,4 C 23,9 C 41 % 1021,8 hPa 0,0 l/m 0,5 km/h (0 Bft) O-NO 60 0 min 0,000 mm 0,8 UV-I 156 W/m 9,4 C 23,4 C 1,6 km/h (1 Bft) 93,62 %
18.06.2017 18:30 23,3 C 23,9 C 41 % 1021,8 hPa 0,0 l/m 1,8 km/h (1 Bft) NO 37 2 min 0,000 mm 0,8 UV-I 225 W/m 9,3 C 23,3 C 4,8 km/h (1 Bft) 94,44 %
18.06.2017 18:32 23,4 C 23,9 C 47 % 1021,8 hPa 0,0 l/m 0,5 km/h (0 Bft) N-NO 28 2 min 0,000 mm 0,8 UV-I 309 W/m 11,4 C 23,4 C 3,2 km/h (1 Bft) 93,62 %
18.06.2017 18:34 23,3 C 23,9 C 42 % 1021,8 hPa 0,0 l/m 1,0 km/h (0 Bft) N-NO 26 2 min 0,000 mm 0,8 UV-I 264 W/m 9,7 C 23,3 C 3,2 km/h (1 Bft) 90,57 %
18.06.2017 18:36 23,2 C 23,9 C 43 % 1021,8 hPa 0,0 l/m 3,2 km/h (1 Bft) N-NO 27 0 min 0,000 mm 0,8 UV-I 154 W/m 9,9 C 23,2 C 4,8 km/h (1 Bft) 91,49 %
18.06.2017 18:38 23,1 C 23,9 C 43 % 1021,8 hPa 0,0 l/m 3,3 km/h (1 Bft) N-NO 28 0 min 0,000 mm 0,7 UV-I 149 W/m 9,8 C 23,1 C 4,8 km/h (1 Bft) 93,62 %
18.06.2017 18:40 22,9 C 23,9 C 43 % 1021,8 hPa 0,0 l/m 0,7 km/h (0 Bft) N-NO 28 0 min 0,000 mm 0,7 UV-I 156 W/m 9,6 C 22,9 C 3,2 km/h (1 Bft) 97,87 %
18.06.2017 18:42 22,9 C 23,9 C 43 % 1021,8 hPa 0,0 l/m 0,6 km/h (0 Bft) N-NO 28 0 min 0,000 mm 0,7 UV-I 117 W/m 9,6 C 22,9 C 3,2 km/h (1 Bft) 93,62 %
18.06.2017 18:44 23,1 C 23,9 C 41 % 1021,8 hPa 0,0 l/m 1,5 km/h (1 Bft) N-NO 28 2 min 0,000 mm 0,7 UV-I 289 W/m 9,1 C 23,1 C 3,2 km/h (1 Bft) 95,74 %
18.06.2017 18:46 23,2 C 23,9 C 43 % 1021,8 hPa 0,0 l/m 1,7 km/h (1 Bft) N-NO 30 2 min 0,000 mm 0,7 UV-I 290 W/m 9,9 C 23,2 C 4,8 km/h (1 Bft) 95,74 %
18.06.2017 18:48 23,3 C 23,9 C 43 % 1021,8 hPa 0,0 l/m 4,1 km/h (1 Bft) NO 54 2 min 0,000 mm 0,7 UV-I 288 W/m 10,0 C 23,3 C 8,0 km/h (2 Bft) 98,00 %
18.06.2017 18:50 23,3 C 23,9 C 42 % 1021,8 hPa 0,0 l/m 3,9 km/h (1 Bft) NO 54 2 min 0,000 mm 0,6 UV-I 270 W/m 9,7 C 23,3 C 8,0 km/h (2 Bft) 95,74 %
18.06.2017 18:52 23,3 C 23,9 C 42 % 1021,8 hPa 0,0 l/m 3,0 km/h (1 Bft) O-NO 68 2 min 0,000 mm 0,6 UV-I 265 W/m 9,7 C 23,3 C 6,4 km/h (2 Bft) 93,62 %
18.06.2017 18:54 23,4 C 23,9 C 42 % 1021,8 hPa 0,0 l/m 4,4 km/h (1 Bft) O-NO 69 2 min 0,000 mm 0,6 UV-I 258 W/m 9,7 C 23,4 C 6,4 km/h (2 Bft) 91,49 %
18.06.2017 18:56 23,4 C 23,9 C 42 % 1021,8 hPa 0,0 l/m 4,5 km/h (1 Bft) NO 53 2 min 0,000 mm 0,6 UV-I 254 W/m 9,7 C 23,4 C 6,4 km/h (2 Bft) 100,00 %
18.06.2017 18:58 23,5 C 23,9 C 41 % 1021,8 hPa 0,0 l/m 5,7 km/h (1 Bft) O-NO 75 2 min 0,000 mm 0,6 UV-I 251 W/m 9,5 C 23,5 C 8,0 km/h (2 Bft) 95,74 %
18.06.2017 19:00 23,4 C 23,9 C 41 % 1021,8 hPa 0,0 l/m 4,3 km/h (1 Bft) O 84 2 min 0,204 mm 0,5 UV-I 236 W/m 9,4 C 23,4 C 6,4 km/h (2 Bft) 95,74 %
18.06.2017 19:02 23,4 C 23,9 C 42 % 1021,8 hPa 0,0 l/m 5,9 km/h (2 Bft) O-NO 76 2 min 0,000 mm 0,5 UV-I 226 W/m 9,7 C 23,4 C 8,0 km/h (2 Bft) 97,87 %
18.06.2017 19:04 23,5 C 23,9 C 43 % 1021,8 hPa 0,0 l/m 3,6 km/h (1 Bft) O-NO 76 2 min 0,000 mm 0,5 UV-I 225 W/m 10,2 C 23,5 C 6,4 km/h (2 Bft) 97,87 %
18.06.2017 19:06 23,5 C 23,9 C 41 % 1021,8 hPa 0,0 l/m 4,2 km/h (1 Bft) O-NO 76 2 min 0,000 mm 0,5 UV-I 191 W/m 9,5 C 23,5 C 6,4 km/h (2 Bft) 93,75 %
18.06.2017 19:08 23,3 C 23,9 C 42 % 1021,8 hPa 0,0 l/m 4,9 km/h (1 Bft) O-NO 76 0 min 0,000 mm 0,0 UV-I 87 W/m 9,7 C 23,3 C 6,4 km/h (2 Bft) 95,74 %
18.06.2017 19:10 23,1 C 23,9 C 42 % 1021,7 hPa 0,0 l/m 4,5 km/h (1 Bft) NO 56 0 min 0,000 mm 0,0 UV-I 127 W/m 9,5 C 23,1 C 8,0 km/h (2 Bft) 97,87 %
18.06.2017 19:12 23,1 C 23,9 C 40 % 1021,7 hPa 0,0 l/m 2,2 km/h (1 Bft) NO 56 2 min 0,000 mm 0,0 UV-I 191 W/m 8,8 C 23,1 C 4,8 km/h (1 Bft) 98,00 %
18.06.2017 19:14 23,1 C 23,9 C 42 % 1021,7 hPa 0,0 l/m 0,4 km/h (0 Bft) NO 56 2 min 0,000 mm 0,0 UV-I 188 W/m 9,5 C 23,1 C 1,6 km/h (1 Bft) 97,87 %
18.06.2017 19:16 22,9 C 23,9 C 41 % 1021,8 hPa 0,0 l/m 0,3 km/h (0 Bft) NO 56 2 min 0,000 mm 0,0 UV-I 181 W/m 8,9 C 22,9 C 1,6 km/h (1 Bft) 93,62 %
18.06.2017 19:18 22,9 C 23,9 C 41 % 1021,7 hPa 0,0 l/m 0,0 km/h (0 Bft) NO 56 2 min 0,000 mm 0,0 UV-I 181 W/m 8,9 C 22,9 C 0,0 km/h (0 Bft) 95,74 %
18.06.2017 19:20 22,9 C 23,9 C 41 % 1021,7 hPa 0,0 l/m 2,1 km/h (1 Bft) NO 56 2 min 0,000 mm 0,0 UV-I 176 W/m 8,9 C 22,9 C 4,8 km/h (1 Bft) 92,00 %
18.06.2017 19:22 22,9 C 23,9 C 42 % 1021,7 hPa 0,0 l/m 2,5 km/h (1 Bft) O-NO 57 2 min 0,000 mm 0,0 UV-I 170 W/m 9,3 C 22,9 C 4,8 km/h (1 Bft) 95,74 %
18.06.2017 19:24 23,1 C 23,9 C 41 % 1021,7 hPa 0,0 l/m 3,7 km/h (1 Bft) O-SO 108 2 min 0,000 mm 0,0 UV-I 165 W/m 9,1 C 23,1 C 6,4 km/h (2 Bft) 97,87 %
18.06.2017 19:26 23,0 C 23,9 C 41 % 1021,7 hPa 0,0 l/m 4,2 km/h (1 Bft) O-SO 109 2 min 0,000 mm 0,0 UV-I 161 W/m 9,0 C 23,0 C 6,4 km/h (2 Bft) 97,87 %
18.06.2017 19:28 23,0 C 23,9 C 41 % 1021,7 hPa 0,0 l/m 3,2 km/h (1 Bft) O-SO 109 2 min 0,000 mm 0,0 UV-I 156 W/m 9,0 C 23,0 C 4,8 km/h (1 Bft) 97,87 %
18.06.2017 19:30 23,0 C 23,9 C 42 % 1021,7 hPa 0,0 l/m 2,5 km/h (1 Bft) O-SO 108 2 min 0,000 mm 0,0 UV-I 153 W/m 9,4 C 23,0 C 4,8 km/h (1 Bft) 95,74 %
18.06.2017 19:32 23,0 C 23,9 C 41 % 1021,7 hPa 0,0 l/m 1,0 km/h (0 Bft) O-SO 108 2 min 0,000 mm 0,0 UV-I 148 W/m 9,0 C 23,0 C 1,6 km/h (1 Bft) 97,87 %
18.06.2017 19:34 22,9 C 23,9 C 42 % 1021,7 hPa 0,0 l/m 3,8 km/h (1 Bft) O-NO 78 2 min 0,000 mm 0,0 UV-I 143 W/m 9,3 C 22,9 C 4,8 km/h (1 Bft) 95,74 %
18.06.2017 19:36 22,9 C 23,9 C 42 % 1021,7 hPa 0,0 l/m 3,8 km/h (1 Bft) O-NO 74 2 min 0,000 mm 0,0 UV-I 137 W/m 9,3 C 22,9 C 4,8 km/h (1 Bft) 95,74 %
18.06.2017 19:38 22,7 C 23,9 C 45 % 1021,7 hPa 0,0 l/m 4,7 km/h (1 Bft) O-NO 69 2 min 0,000 mm 0,0 UV-I 134 W/m 10,1 C 22,7 C 6,4 km/h (2 Bft) 95,74 %
18.06.2017 19:40 22,7 C 23,9 C 44 % 1021,7 hPa 0,0 l/m 2,8 km/h (1 Bft) O-NO 69 2 min 0,000 mm 0,0 UV-I 128 W/m 9,8 C 22,7 C 4,8 km/h (1 Bft) 93,62 %
18.06.2017 19:42 22,6 C 23,9 C 47 % 1021,7 hPa 0,0 l/m 2,5 km/h (1 Bft) O-NO 69 2 min 0,000 mm 0,0 UV-I 124 W/m 10,7 C 22,6 C 4,8 km/h (1 Bft) 100,00 %
18.06.2017 19:44 22,6 C 23,9 C 45 % 1021,7 hPa 0,0 l/m 2,5 km/h (1 Bft) O-NO 73 2 min 0,000 mm 0,0 UV-I 119 W/m 10,1 C 22,6 C 4,8 km/h (1 Bft) 95,74 %
18.06.2017 19:46 22,6 C 23,3 C 43 % 1021,7 hPa 0,0 l/m 3,4 km/h (1 Bft) O-SO 115 2 min 0,000 mm 0,0 UV-I 113 W/m 9,4 C 22,6 C 4,8 km/h (1 Bft) 100,00 %
18.06.2017 19:48 22,7 C 23,3 C 43 % 1021,8 hPa 0,0 l/m 3,3 km/h (1 Bft) S-SO 148 2 min 0,000 mm 0,0 UV-I 108 W/m 9,5 C 22,7 C 8,0 km/h (2 Bft) 97,87 %
18.06.2017 19:50 22,7 C 23,3 C 42 % 1021,7 hPa 0,0 l/m 3,3 km/h (1 Bft) S-SO 150 2 min 0,000 mm 0,0 UV-I 105 W/m 9,1 C 22,7 C 8,0 km/h (2 Bft) 95,74 %
18.06.2017 19:52 22,7 C 23,3 C 43 % 1021,8 hPa 0,0 l/m 2,0 km/h (1 Bft) S-SO 157 2 min 0,000 mm 0,0 UV-I 103 W/m 9,5 C 22,7 C 4,8 km/h (1 Bft) 100,00 %
18.06.2017 19:54 22,6 C 23,3 C 44 % 1021,8 hPa 0,0 l/m 3,9 km/h (1 Bft) SO 130 2 min 0,000 mm 0,0 UV-I 100 W/m 9,7 C 22,6 C 4,8 km/h (1 Bft) 95,74 %
18.06.2017 19:56 22,6 C 23,3 C 43 % 1021,8 hPa 0,0 l/m 2,8 km/h (1 Bft) SO 131 2 min 0,000 mm 0,0 UV-I 96 W/m 9,4 C 22,6 C 4,8 km/h (1 Bft) 100,00 %
18.06.2017 19:58 22,6 C 23,3 C 43 % 1021,8 hPa 0,0 l/m 2,5 km/h (1 Bft) SO 131 2 min 0,000 mm 0,0 UV-I 94 W/m 9,4 C 22,6 C 4,8 km/h (1 Bft) 96,00 %
18.06.2017 20:00 22,6 C 23,3 C 44 % 1021,8 hPa 0,0 l/m 2,2 km/h (1 Bft) SO 131 2 min 0,000 mm 0,0 UV-I 90 W/m 9,7 C 22,6 C 4,8 km/h (1 Bft) 97,87 %
18.06.2017 20:03 22,6 C 23,3 C 43 % 1021,8 hPa 0,0 l/m 2,6 km/h (1 Bft) SO 131 3 min 0,127 mm 0,0 UV-I 85 W/m 9,4 C 22,6 C 4,8 km/h (1 Bft) 95,77 %
18.06.2017 20:04 22,6 C 23,3 C 45 % 1021,8 hPa 0,0 l/m 0,8 km/h (0 Bft) SO 131 1 min 0,000 mm 0,0 UV-I 83 W/m 10,1 C 22,6 C 3,2 km/h (1 Bft) 100,00 %
18.06.2017 20:06 22,6 C 23,3 C 43 % 1021,8 hPa 0,0 l/m 0,6 km/h (0 Bft) SO 131 2 min 0,000 mm 0,0 UV-I 79 W/m 9,4 C 22,6 C 1,6 km/h (1 Bft) 92,00 %
18.06.2017 20:08 22,5 C 23,3 C 44 % 1021,8 hPa 0,0 l/m 0,8 km/h (0 Bft) SO 131 2 min 0,000 mm 0,0 UV-I 75 W/m 9,6 C 22,5 C 3,2 km/h (1 Bft) 97,37 %
18.06.2017 20:10 22,4 C 23,3 C 44 % 1021,8 hPa 0,0 l/m 1,7 km/h (1 Bft) SO 131 2 min 0,000 mm 0,0 UV-I 73 W/m 9,5 C 22,4 C 3,2 km/h (1 Bft) 95,74 %
18.06.2017 20:12 22,3 C 23,3 C 45 % 1021,8 hPa 0,0 l/m 2,2 km/h (1 Bft) SO 135 2 min 0,000 mm 0,0 UV-I 69 W/m 9,8 C 22,3 C 4,8 km/h (1 Bft) 97,87 %
18.06.2017 20:14 22,3 C 23,3 C 45 % 1021,8 hPa 0,0 l/m 0,8 km/h (0 Bft) SO 135 2 min 0,000 mm 0,0 UV-I 67 W/m 9,8 C 22,3 C 3,2 km/h (1 Bft) 95,74 %
18.06.2017 20:16 22,2 C 23,3 C 45 % 1021,8 hPa 0,0 l/m 1,5 km/h (1 Bft) SO 135 2 min 0,000 mm 0,0 UV-I 62 W/m 9,7 C 22,2 C 3,2 km/h (1 Bft) 93,62 %
18.06.2017 20:18 22,1 C 23,3 C 45 % 1021,8 hPa 0,0 l/m 1,4 km/h (1 Bft) SO 135 2 min 0,000 mm 0,0 UV-I 59 W/m 9,6 C 22,1 C 3,2 km/h (1 Bft) 97,87 %
18.06.2017 20:20 22,1 C 23,3 C 45 % 1021,8 hPa 0,0 l/m 0,8 km/h (0 Bft) SO 135 2 min 0,000 mm 0,0 UV-I 55 W/m 9,6 C 22,1 C 3,2 km/h (1 Bft) 97,87 %
18.06.2017 20:22 22,0 C 23,3 C 45 % 1021,8 hPa 0,0 l/m 1,2 km/h (1 Bft) SO 135 2 min 0,000 mm 0,0 UV-I 53 W/m 9,5 C 22,0 C 3,2 km/h (1 Bft) 93,62 %
18.06.2017 20:24 21,9 C 23,3 C 47 % 1021,8 hPa 0,0 l/m 1,0 km/h (0 Bft) SO 135 2 min 0,000 mm 0,0 UV-I 49 W/m 10,1 C 21,9 C 3,2 km/h (1 Bft) 91,49 %
18.06.2017 20:26 21,8 C 23,3 C 49 % 1021,8 hPa 0,0 l/m 0,3 km/h (0 Bft) SO 135 2 min 0,000 mm 0,0 UV-I 47 W/m 10,6 C 21,8 C 1,6 km/h (1 Bft) 95,74 %
18.06.2017 20:28 21,6 C 23,3 C 48 % 1021,8 hPa 0,0 l/m 0,4 km/h (0 Bft) SO 135 2 min 0,000 mm 0,0 UV-I 44 W/m 10,1 C 21,6 C 1,6 km/h (1 Bft) 92,00 %
18.06.2017 20:30 21,4 C 23,3 C 50 % 1021,8 hPa 0,0 l/m 1,3 km/h (1 Bft) SO 135 2 min 0,000 mm 0,0 UV-I 41 W/m 10,5 C 21,4 C 3,2 km/h (1 Bft) 95,83 %
18.06.2017 20:32 21,2 C 23,3 C 51 % 1021,8 hPa 0,0 l/m 1,0 km/h (0 Bft) SO 135 2 min 0,000 mm 0,0 UV-I 39 W/m 10,7 C 21,2 C 3,2 km/h (1 Bft) 91,49 %
18.06.2017 20:34 21,0 C 23,3 C 52 % 1021,8 hPa 0,0 l/m 1,2 km/h (1 Bft) SO 135 2 min 0,000 mm 0,0 UV-I 36 W/m 10,8 C 21,0 C 3,2 km/h (1 Bft) 95,74 %
18.06.2017 20:36 20,8 C 23,3 C 53 % 1021,8 hPa 0,0 l/m 2,0 km/h (1 Bft) SO 135 2 min 0,000 mm 0,0 UV-I 34 W/m 10,9 C 20,8 C 3,2 km/h (1 Bft) 97,87 %
18.06.2017 20:38 20,6 C 23,3 C 53 % 1021,8 hPa 0,0 l/m 2,4 km/h (1 Bft) SO 135 2 min 0,000 mm 0,0 UV-I 33 W/m 10,7 C 20,6 C 3,2 km/h (1 Bft) 97,87 %
18.06.2017 20:40 20,5 C 23,3 C 53 % 1021,8 hPa 0,0 l/m 2,5 km/h (1 Bft) SO 135 2 min 0,000 mm 0,0 UV-I 30 W/m 10,6 C 20,5 C 3,2 km/h (1 Bft) 94,74 %
18.06.2017 20:42 20,3 C 23,3 C 55 % 1021,8 hPa 0,0 l/m 2,4 km/h (1 Bft) SO 135 2 min 0,000 mm 0,0 UV-I 27 W/m 11,0 C 20,3 C 3,2 km/h (1 Bft) 91,49 %
18.06.2017 20:44 20,0 C 23,3 C 55 % 1021,7 hPa 0,0 l/m 2,5 km/h (1 Bft) SO 135 2 min 0,000 mm 0,0 UV-I 26 W/m 10,7 C 20,0 C 3,2 km/h (1 Bft) 97,37 %
18.06.2017 20:46 19,8 C 23,3 C 56 % 1021,7 hPa 0,0 l/m 2,1 km/h (1 Bft) SO 135 2 min 0,000 mm 0,0 UV-I 25 W/m 10,8 C 19,8 C 3,2 km/h (1 Bft) 96,92 %
18.06.2017 20:48 19,7 C 23,3 C 56 % 1021,7 hPa 0,0 l/m 1,8 km/h (1 Bft) SO 135 2 min 0,000 mm 0,0 UV-I 22 W/m 10,7 C 19,7 C 3,2 km/h (1 Bft) 95,74 %
18.06.2017 20:50 19,6 C 23,3 C 56 % 1021,7 hPa 0,0 l/m 2,0 km/h (1 Bft) SO 135 2 min 0,000 mm 0,0 UV-I 21 W/m 10,6 C 19,6 C 3,2 km/h (1 Bft) 97,87 %
18.06.2017 20:52 19,5 C 23,3 C 57 % 1021,8 hPa 0,0 l/m 2,3 km/h (1 Bft) SO 135 2 min 0,000 mm 0,0 UV-I 18 W/m 10,8 C 19,5 C 4,8 km/h (1 Bft) 97,87 %
18.06.2017 20:54 19,4 C 23,3 C 59 % 1021,7 hPa 0,0 l/m 2,3 km/h (1 Bft) SO 135 2 min 0,000 mm 0,0 UV-I 16 W/m 11,2 C 19,4 C 3,2 km/h (1 Bft) 97,30 %
18.06.2017 20:56 19,2 C 23,3 C 60 % 1021,8 hPa 0,0 l/m 2,2 km/h (1 Bft) SO 135 0 min 0,000 mm 0,0 UV-I 14 W/m 11,2 C 19,2 C 3,2 km/h (1 Bft) 97,87 %
18.06.2017 20:58 19,0 C 23,3 C 61 % 1021,8 hPa 0,0 l/m 2,3 km/h (1 Bft) SO 135 0 min 0,000 mm 0,0 UV-I 13 W/m 11,3 C 19,0 C 3,2 km/h (1 Bft) 100,00 %
18.06.2017 21:00 18,8 C 23,3 C 60 % 1021,8 hPa 0,0 l/m 1,3 km/h (1 Bft) SO 135 0 min 0,050 mm 0,0 UV-I 12 W/m 10,9 C 18,8 C 3,2 km/h (1 Bft) 94,00 %
18.06.2017 21:02 18,7 C 23,3 C 60 % 1021,8 hPa 0,0 l/m 0,1 km/h (0 Bft) SO 135 0 min 0,000 mm 0,0 UV-I 11 W/m 10,8 C 18,7 C 1,6 km/h (1 Bft) 93,62 %
18.06.2017 21:04 18,7 C 23,3 C 60 % 1021,8 hPa 0,0 l/m 1,3 km/h (1 Bft) SO 135 0 min 0,000 mm 0,0 UV-I 11 W/m 10,8 C 18,7 C 3,2 km/h (1 Bft) 97,96 %
18.06.2017 21:06 18,7 C 23,3 C 61 % 1021,8 hPa 0,0 l/m 2,0 km/h (1 Bft) SO 135 0 min 0,000 mm 0,0 UV-I 10 W/m 11,0 C 18,7 C 3,2 km/h (1 Bft) 95,74 %
18.06.2017 21:08 18,6 C 23,3 C 59 % 1021,8 hPa 0,0 l/m 2,1 km/h (1 Bft) SO 135 0 min 0,000 mm 0,0 UV-I 9 W/m 10,4 C 18,6 C 3,2 km/h (1 Bft) 100,00 %
18.06.2017 21:10 18,6 C 23,3 C 60 % 1021,8 hPa 0,0 l/m 2,1 km/h (1 Bft) SO 135 0 min 0,000 mm 0,0 UV-I 9 W/m 10,7 C 18,6 C 3,2 km/h (1 Bft) 98,00 %
18.06.2017 21:12 18,4 C 23,3 C 61 % 1021,9 hPa 0,0 l/m 2,3 km/h (1 Bft) SO 135 0 min 0,000 mm 0,0 UV-I 7 W/m 10,7 C 18,4 C 3,2 km/h (1 Bft) 97,87 %
18.06.2017 21:14 18,3 C 23,3 C 62 % 1021,8 hPa 0,0 l/m 2,0 km/h (1 Bft) SO 135 0 min 0,000 mm 0,0 UV-I 7 W/m 10,9 C 18,3 C 3,2 km/h (1 Bft) 98,00 %
18.06.2017 21:16 18,3 C 23,3 C 62 % 1021,8 hPa 0,0 l/m 2,1 km/h (1 Bft) SO 135 0 min 0,000 mm 0,0 UV-I 7 W/m 10,9 C 18,3 C 3,2 km/h (1 Bft) 95,74 %
18.06.2017 21:18 18,2 C 23,3 C 62 % 1021,8 hPa 0,0 l/m 1,2 km/h (1 Bft) SO 135 0 min 0,000 mm 0,0 UV-I 7 W/m 10,8 C 18,2 C 3,2 km/h (1 Bft) 97,87 %
18.06.2017 21:20 18,2 C 23,3 C 61 % 1021,9 hPa 0,0 l/m 0,1 km/h (0 Bft) SO 135 0 min 0,000 mm 0,0 UV-I 5 W/m 10,6 C 18,2 C 1,6 km/h (1 Bft) 95,74 %
18.06.2017 21:22 18,2 C 23,3 C 61 % 1021,9 hPa 0,0 l/m 0,0 km/h (0 Bft) SO 135 0 min 0,000 mm 0,0 UV-I 5 W/m 10,6 C 18,2 C 0,0 km/h (0 Bft) 98,00 %
18.06.2017 21:24 18,1 C 23,3 C 61 % 1021,9 hPa 0,0 l/m 0,0 km/h (0 Bft) SO 135 0 min 0,000 mm 0,0 UV-I 5 W/m 10,5 C 18,1 C 0,0 km/h (0 Bft) 97,96 %
18.06.2017 21:26 18,1 C 23,3 C 62 % 1021,9 hPa 0,0 l/m 0,0 km/h (0 Bft) SO 135 0 min 0,000 mm 0,0 UV-I 5 W/m 10,7 C 18,1 C 0,0 km/h (0 Bft) 92,11 %
18.06.2017 21:28 18,0 C 23,3 C 62 % 1021,9 hPa 0,0 l/m 0,0 km/h (0 Bft) SO 135 0 min 0,000 mm 0,0 UV-I 5 W/m 10,6 C 18,0 C 0,0 km/h (0 Bft) 100,00 %
18.06.2017 21:30 18,1 C 23,3 C 62 % 1021,9 hPa 0,0 l/m 0,0 km/h (0 Bft) SO 135 0 min 0,000 mm 0,0 UV-I 1 W/m 10,7 C 18,1 C 0,0 km/h (0 Bft) 96,00 %
18.06.2017 21:32 18,0 C 23,3 C 62 % 1021,9 hPa 0,0 l/m 0,0 km/h (0 Bft) SO 135 0 min 0,000 mm 0,0 UV-I 0 W/m 10,6 C 18,0 C 0,0 km/h (0 Bft) 95,74 %
18.06.2017 21:34 17,9 C 23,3 C 60 % 1021,9 hPa 0,0 l/m 0,5 km/h (0 Bft) SO 135 0 min 0,000 mm 0,0 UV-I 0 W/m 10,0 C 17,9 C 3,2 km/h (1 Bft) 97,87 %
18.06.2017 21:36 17,9 C 23,3 C 62 % 1021,9 hPa 0,0 l/m 1,2 km/h (1 Bft) SO 135 0 min 0,000 mm 0,0 UV-I 0 W/m 10,5 C 17,9 C 1,6 km/h (1 Bft) 100,00 %
18.06.2017 21:38 17,7 C 23,3 C 63 % 1021,9 hPa 0,0 l/m 1,9 km/h (1 Bft) SO 135 0 min 0,000 mm 0,0 UV-I 0 W/m 10,6 C 17,7 C 3,2 km/h (1 Bft) 96,00 %
18.06.2017 21:40 17,6 C 23,3 C 63 % 1021,9 hPa 0,0 l/m 2,7 km/h (1 Bft) SO 135 0 min 0,000 mm 0,0 UV-I 0 W/m 10,5 C 17,6 C 3,2 km/h (1 Bft) 95,74 %
18.06.2017 21:42 17,4 C 23,3 C 64 % 1022,0 hPa 0,0 l/m 2,6 km/h (1 Bft) SO 135 0 min 0,000 mm 0,0 UV-I 0 W/m 10,5 C 17,4 C 3,2 km/h (1 Bft) 95,74 %
18.06.2017 21:44 17,3 C 23,3 C 64 % 1022,0 hPa 0,0 l/m 2,1 km/h (1 Bft) SO 135 0 min 0,000 mm 0,0 UV-I 0 W/m 10,4 C 17,3 C 3,2 km/h (1 Bft) 94,87 %
18.06.2017 21:46 17,2 C 23,3 C 65 % 1021,9 hPa 0,0 l/m 2,0 km/h (1 Bft) SO 135 0 min 0,000 mm 0,0 UV-I 0 W/m 10,6 C 17,2 C 3,2 km/h (1 Bft) 97,87 %
18.06.2017 21:48 17,2 C 23,3 C 65 % 1022,0 hPa 0,0 l/m 1,6 km/h (1 Bft) SO 135 0 min 0,000 mm 0,0 UV-I 0 W/m 10,6 C 17,2 C 3,2 km/h (1 Bft) 97,87 %
18.06.2017 21:50 17,1 C 23,3 C 64 % 1022,0 hPa 0,0 l/m 1,5 km/h (1 Bft) SO 135 0 min 0,000 mm 0,0 UV-I 0 W/m 10,2 C 17,1 C 3,2 km/h (1 Bft) 95,74 %
18.06.2017 21:52 17,0 C 23,3 C 65 % 1022,0 hPa 0,0 l/m 1,5 km/h (1 Bft) SO 135 0 min 0,000 mm 0,0 UV-I 0 W/m 10,4 C 17,0 C 3,2 km/h (1 Bft) 98,00 %
18.06.2017 21:54 16,9 C 23,3 C 64 % 1022,0 hPa 0,0 l/m 1,4 km/h (1 Bft) SO 135 0 min 0,000 mm 0,0 UV-I 0 W/m 10,0 C 16,9 C 1,6 km/h (1 Bft) 95,74 %
18.06.2017 21:56 17,0 C 23,3 C 63 % 1022,0 hPa 0,0 l/m 0,7 km/h (0 Bft) SO 135 0 min 0,000 mm 0,0 UV-I 0 W/m 9,9 C 17,0 C 1,6 km/h (1 Bft) 96,00 %
18.06.2017 21:58 17,1 C 23,3 C 64 % 1022,0 hPa 0,0 l/m 0,1 km/h (0 Bft) SO 135 0 min 0,000 mm 0,0 UV-I 0 W/m 10,2 C 17,1 C 1,6 km/h (1 Bft) 97,87 %
18.06.2017 22:00 17,2 C 23,3 C 65 % 1022,0 hPa 0,0 l/m 0,0 km/h (0 Bft) SO 135 0 min 0,000 mm 0,0 UV-I 0 W/m 10,6 C 17,2 C 0,0 km/h (0 Bft) 93,62 %
18.06.2017 22:02 17,2 C 23,3 C 65 % 1022,0 hPa 0,0 l/m 0,0 km/h (0 Bft) SO 135 0 min 0,026 mm 0,0 UV-I 0 W/m 10,6 C 17,2 C 0,0 km/h (0 Bft) 100,00 %
18.06.2017 22:04 17,1 C 23,3 C 65 % 1022,1 hPa 0,0 l/m 0,3 km/h (0 Bft) SO 135 0 min 0,000 mm 0,0 UV-I 0 W/m 10,5 C 17,1 C 1,6 km/h (1 Bft) 97,87 %
18.06.2017 22:06 17,1 C 23,3 C 65 % 1022,1 hPa 0,0 l/m 1,5 km/h (1 Bft) SO 135 0 min 0,000 mm 0,0 UV-I 0 W/m 10,5 C 17,1 C 1,6 km/h (1 Bft) 97,14 %
18.06.2017 22:08 17,1 C 23,3 C 65 % 1022,1 hPa 0,0 l/m 1,6 km/h (1 Bft) SO 135 0 min 0,000 mm 0,0 UV-I 0 W/m 10,5 C 17,1 C 3,2 km/h (1 Bft) 100,00 %
18.06.2017 22:10 17,1 C 23,3 C 64 % 1022,1 hPa 0,0 l/m 0,9 km/h (0 Bft) SO 135 0 min 0,000 mm 0,0 UV-I 0 W/m 10,2 C 17,1 C 1,6 km/h (1 Bft) 91,49 %
18.06.2017 22:12 17,0 C 23,3 C 66 % 1022,2 hPa 0,0 l/m 0,4 km/h (0 Bft) SO 135 0 min 0,000 mm 0,0 UV-I 0 W/m 10,6 C 17,0 C 1,6 km/h (1 Bft) 95,74 %
18.06.2017 22:14 16,8 C 23,3 C 66 % 1022,1 hPa 0,0 l/m 0,0 km/h (0 Bft) SO 135 0 min 0,000 mm 0,0 UV-I 0 W/m 10,4 C 16,8 C 0,0 km/h (0 Bft) 93,62 %
18.06.2017 22:16 16,6 C 23,3 C 66 % 1022,2 hPa 0,0 l/m 0,0 km/h (0 Bft) SO 135 0 min 0,000 mm 0,0 UV-I 0 W/m 10,2 C 16,6 C 0,0 km/h (0 Bft) 94,00 %
18.06.2017 22:18 16,5 C 23,3 C 67 % 1022,2 hPa 0,0 l/m 0,0 km/h (0 Bft) SO 135 0 min 0,000 mm 0,0 UV-I 0 W/m 10,4 C 16,5 C 1,6 km/h (1 Bft) 93,62 %
18.06.2017 22:20 16,4 C 23,3 C 67 % 1022,2 hPa 0,0 l/m 0,0 km/h (0 Bft) SO 135 0 min 0,000 mm 0,0 UV-I 0 W/m 10,3 C 16,4 C 1,6 km/h (1 Bft) 93,62 %
18.06.2017 22:22 16,3 C 23,3 C 68 % 1022,2 hPa 0,0 l/m 0,0 km/h (0 Bft) SO 135 0 min 0,000 mm 0,0 UV-I 0 W/m 10,4 C 16,3 C 0,0 km/h (0 Bft) 91,49 %
18.06.2017 22:24 16,2 C 23,3 C 69 % 1022,2 hPa 0,0 l/m 0,0 km/h (0 Bft) SO 135 0 min 0,000 mm 0,0 UV-I 0 W/m 10,5 C 16,2 C 0,0 km/h (0 Bft) 91,67 %
18.06.2017 22:26 16,1 C 23,3 C 68 % 1022,3 hPa 0,0 l/m 0,0 km/h (0 Bft) SO 135 0 min 0,000 mm 0,0 UV-I 0 W/m 10,2 C 16,1 C 0,0 km/h (0 Bft) 91,49 %
18.06.2017 22:28 16,2 C 23,3 C 67 % 1022,3 hPa 0,0 l/m 0,0 km/h (0 Bft) SO 135 0 min 0,000 mm 0,0 UV-I 0 W/m 10,1 C 16,2 C 0,0 km/h (0 Bft) 96,00 %
18.06.2017 22:30 16,3 C 23,3 C 67 % 1022,4 hPa 0,0 l/m 0,0 km/h (0 Bft) SO 135 0 min 0,000 mm 0,0 UV-I 0 W/m 10,2 C 16,3 C 0,0 km/h (0 Bft) 95,74 %
18.06.2017 22:32 16,3 C 23,3 C 66 % 1022,3 hPa 0,0 l/m 0,0 km/h (0 Bft) SO 135 0 min 0,000 mm 0,0 UV-I 0 W/m 9,9 C 16,3 C 0,0 km/h (0 Bft) 93,62 %
18.06.2017 22:34 16,3 C 23,3 C 67 % 1022,3 hPa 0,0 l/m 0,0 km/h (0 Bft) SO 135 0 min 0,000 mm 0,0 UV-I 0 W/m 10,2 C 16,3 C 0,0 km/h (0 Bft) 93,62 %
18.06.2017 22:36 16,2 C 23,3 C 68 % 1022,3 hPa 0,0 l/m 0,0 km/h (0 Bft) SO 135 0 min 0,000 mm 0,0 UV-I 0 W/m 10,3 C 16,2 C 1,6 km/h (1 Bft) 95,74 %
18.06.2017 22:38 16,1 C 23,3 C 68 % 1022,3 hPa 0,0 l/m 0,0 km/h (0 Bft) SO 135 0 min 0,000 mm 0,0 UV-I 0 W/m 10,2 C 16,1 C 0,0 km/h (0 Bft) 87,23 %
18.06.2017 22:40 16,1 C 23,3 C 69 % 1022,3 hPa 0,0 l/m 0,1 km/h (0 Bft) SO 135 0 min 0,000 mm 0,0 UV-I 0 W/m 10,4 C 16,1 C 1,6 km/h (1 Bft) 93,62 %
18.06.2017 22:42 16,1 C 23,3 C 68 % 1022,3 hPa 0,0 l/m 0,5 km/h (0 Bft) SO 135 0 min 0,000 mm 0,0 UV-I 0 W/m 10,2 C 16,1 C 1,6 km/h (1 Bft) 89,36 %
18.06.2017 22:44 16,0 C 23,3 C 68 % 1022,4 hPa 0,0 l/m 0,0 km/h (0 Bft) SO 135 0 min 0,000 mm 0,0 UV-I 0 W/m 10,1 C 16,0 C 0,0 km/h (0 Bft) 95,74 %
18.06.2017 22:46 15,9 C 23,3 C 68 % 1022,4 hPa 0,0 l/m 0,0 km/h (0 Bft) SO 135 0 min 0,000 mm 0,0 UV-I 0 W/m 10,0 C 15,9 C 0,0 km/h (0 Bft) 93,62 %
18.06.2017 22:48 15,9 C 23,3 C 68 % 1022,4 hPa 0,0 l/m 0,0 km/h (0 Bft) SO 135 0 min 0,000 mm 0,0 UV-I 0 W/m 10,0 C 15,9 C 0,0 km/h (0 Bft) 97,87 %
18.06.2017 22:50 16,0 C 23,3 C 68 % 1022,4 hPa 0,0 l/m 0,0 km/h (0 Bft) SO 135 0 min 0,000 mm 0,0 UV-I 0 W/m 10,1 C 16,0 C 0,0 km/h (0 Bft) 93,62 %
18.06.2017 22:52 16,0 C 23,3 C 69 % 1022,4 hPa 0,0 l/m 0,0 km/h (0 Bft) SO 135 0 min 0,000 mm 0,0 UV-I 0 W/m 10,3 C 16,0 C 0,0 km/h (0 Bft) 100,00 %
18.06.2017 22:54 16,0 C 23,3 C 69 % 1022,4 hPa 0,0 l/m 0,0 km/h (0 Bft) SO 135 0 min 0,000 mm 0,0 UV-I 0 W/m 10,3 C 16,0 C 0,0 km/h (0 Bft) 87,23 %
18.06.2017 22:56 15,9 C 23,3 C 70 % 1022,4 hPa 0,0 l/m 0,3 km/h (0 Bft) SO 135 0 min 0,000 mm 0,0 UV-I 0 W/m 10,4 C 15,9 C 1,6 km/h (1 Bft) 91,67 %
18.06.2017 22:58 15,8 C 23,3 C 69 % 1022,4 hPa 0,0 l/m 0,2 km/h (0 Bft) SO 135 0 min 0,000 mm 0,0 UV-I 0 W/m 10,1 C 15,8 C 1,6 km/h (1 Bft) 95,08 %
18.06.2017 23:00 15,7 C 23,3 C 69 % 1022,4 hPa 0,0 l/m 1,0 km/h (0 Bft) SO 135 0 min 0,000 mm 0,0 UV-I 0 W/m 10,0 C 15,7 C 1,6 km/h (1 Bft) 89,36 %
18.06.2017 23:02 15,6 C 23,3 C 69 % 1022,4 hPa 0,0 l/m 1,2 km/h (1 Bft) SO 135 0 min 0,000 mm 0,0 UV-I 0 W/m 9,9 C 15,6 C 3,2 km/h (1 Bft) 95,83 %
18.06.2017 23:04 15,6 C 23,3 C 69 % 1022,4 hPa 0,0 l/m 0,5 km/h (0 Bft) SO 135 0 min 0,000 mm 0,0 UV-I 0 W/m 9,9 C 15,6 C 1,6 km/h (1 Bft) 95,83 %
18.06.2017 23:06 15,6 C 23,3 C 69 % 1022,5 hPa 0,0 l/m 0,5 km/h (0 Bft) SO 135 0 min 0,000 mm 0,0 UV-I 0 W/m 9,9 C 15,6 C 1,6 km/h (1 Bft) 97,87 %
18.06.2017 23:08 15,5 C 23,3 C 69 % 1022,4 hPa 0,0 l/m 0,0 km/h (0 Bft) SO 135 0 min 0,000 mm 0,0 UV-I 0 W/m 9,8 C 15,5 C 0,0 km/h (0 Bft) 93,62 %
18.06.2017 23:10 15,4 C 23,3 C 69 % 1022,4 hPa 0,0 l/m 0,0 km/h (0 Bft) SO 135 0 min 0,000 mm 0,0 UV-I 0 W/m 9,7 C 15,4 C 0,0 km/h (0 Bft) 93,62 %
18.06.2017 23:12 15,4 C 23,3 C 69 % 1022,4 hPa 0,0 l/m 0,4 km/h (0 Bft) SO 135 0 min 0,000 mm 0,0 UV-I 0 W/m 9,7 C 15,4 C 1,6 km/h (1 Bft) 91,49 %
18.06.2017 23:14 15,5 C 23,3 C 68 % 1022,5 hPa 0,0 l/m 0,3 km/h (0 Bft) SO 135 0 min 0,000 mm 0,0 UV-I 0 W/m 9,6 C 15,5 C 1,6 km/h (1 Bft) 91,49 %
18.06.2017 23:16 15,6 C 23,3 C 69 % 1022,5 hPa 0,0 l/m 0,2 km/h (0 Bft) SO 135 0 min 0,000 mm 0,0 UV-I 0 W/m 9,9 C 15,6 C 1,6 km/h (1 Bft) 95,74 %
18.06.2017 23:18 15,5 C 23,3 C 69 % 1022,4 hPa 0,0 l/m 1,2 km/h (1 Bft) SO 135 0 min 0,000 mm 0,0 UV-I 0 W/m 9,8 C 15,5 C 3,2 km/h (1 Bft) 93,62 %
18.06.2017 23:20 15,3 C 23,3 C 69 % 1022,5 hPa 0,0 l/m 1,7 km/h (1 Bft) SO 135 0 min 0,000 mm 0,0 UV-I 0 W/m 9,6 C 15,3 C 3,2 km/h (1 Bft) 97,87 %
18.06.2017 23:22 15,2 C 23,3 C 69 % 1022,5 hPa 0,0 l/m 2,2 km/h (1 Bft) SO 135 0 min 0,000 mm 0,0 UV-I 0 W/m 9,6 C 15,2 C 3,2 km/h (1 Bft) 93,75 %
18.06.2017 23:24 15,2 C 23,3 C 69 % 1022,5 hPa 0,0 l/m 1,5 km/h (1 Bft) SO 135 0 min 0,000 mm 0,0 UV-I 0 W/m 9,6 C 15,2 C 3,2 km/h (1 Bft) 94,29 %
18.06.2017 23:26 15,2 C 23,3 C 70 % 1022,5 hPa 0,0 l/m 2,2 km/h (1 Bft) SO 135 0 min 0,000 mm 0,0 UV-I 0 W/m 9,8 C 15,2 C 3,2 km/h (1 Bft) 96,23 %
18.06.2017 23:28 15,3 C 23,3 C 70 % 1022,5 hPa 0,0 l/m 1,7 km/h (1 Bft) SO 135 0 min 0,000 mm 0,0 UV-I 0 W/m 9,9 C 15,3 C 3,2 km/h (1 Bft) 97,87 %
18.06.2017 23:30 15,3 C 23,3 C 70 % 1022,6 hPa 0,0 l/m 1,1 km/h (1 Bft) SO 135 0 min 0,000 mm 0,0 UV-I 0 W/m 9,9 C 15,3 C 3,2 km/h (1 Bft) 97,87 %
18.06.2017 23:32 14,9 C 23,3 C 73 % 1022,6 hPa 0,0 l/m 2,0 km/h (1 Bft) SO 133 0 min 0,000 mm 0,0 UV-I 0 W/m 10,1 C 14,9 C 3,2 km/h (1 Bft) 100,00 %
18.06.2017 23:34 14,4 C 23,3 C 74 % 1022,6 hPa 0,0 l/m 1,7 km/h (1 Bft) SO 133 0 min 0,000 mm 0,0 UV-I 0 W/m 9,8 C 14,4 C 3,2 km/h (1 Bft) 97,87 %
18.06.2017 23:36 14,2 C 23,3 C 74 % 1022,6 hPa 0,0 l/m 1,0 km/h (0 Bft) SO 133 0 min 0,000 mm 0,0 UV-I 0 W/m 9,6 C 14,2 C 3,2 km/h (1 Bft) 94,00 %
18.06.2017 23:38 13,9 C 23,3 C 76 % 1022,6 hPa 0,0 l/m 0,3 km/h (0 Bft) SO 133 0 min 0,000 mm 0,0 UV-I 0 W/m 9,7 C 13,9 C 1,6 km/h (1 Bft) 100,00 %
18.06.2017 23:40 13,8 C 23,3 C 77 % 1022,6 hPa 0,0 l/m 0,9 km/h (0 Bft) SO 133 0 min 0,000 mm 0,0 UV-I 0 W/m 9,8 C 13,8 C 3,2 km/h (1 Bft) 97,87 %
18.06.2017 23:42 13,8 C 23,3 C 77 % 1022,6 hPa 0,0 l/m 0,4 km/h (0 Bft) SO 133 0 min 0,000 mm 0,0 UV-I 0 W/m 9,8 C 13,8 C 1,6 km/h (1 Bft) 100,00 %
18.06.2017 23:44 13,8 C 23,3 C 77 % 1022,6 hPa 0,0 l/m 0,1 km/h (0 Bft) SO 133 0 min 0,000 mm 0,0 UV-I 0 W/m 9,8 C 13,8 C 1,6 km/h (1 Bft) 97,87 %
18.06.2017 23:46 13,9 C 23,3 C 77 % 1022,6 hPa 0,0 l/m 0,0 km/h (0 Bft) SO 133 0 min 0,000 mm 0,0 UV-I 0 W/m 9,9 C 13,9 C 0,0 km/h (0 Bft) 100,00 %
18.06.2017 23:48 14,0 C 23,3 C 76 % 1022,7 hPa 0,0 l/m 0,0 km/h (0 Bft) SO 133 0 min 0,000 mm 0,0 UV-I 0 W/m 9,8 C 14,0 C 0,0 km/h (0 Bft) 97,87 %
18.06.2017 23:50 14,1 C 23,3 C 75 % 1022,7 hPa 0,0 l/m 0,0 km/h (0 Bft) SO 133 0 min 0,000 mm 0,0 UV-I 0 W/m 9,7 C 14,1 C 0,0 km/h (0 Bft) 97,87 %
18.06.2017 23:52 14,2 C 23,3 C 75 % 1022,7 hPa 0,0 l/m 0,0 km/h (0 Bft) SO 133 0 min 0,000 mm 0,0 UV-I 0 W/m 9,8 C 14,2 C 0,0 km/h (0 Bft) 100,00 %
18.06.2017 23:54 14,3 C 23,3 C 75 % 1022,7 hPa 0,0 l/m 0,0 km/h (0 Bft) SO 133 0 min 0,000 mm 0,0 UV-I 0 W/m 9,9 C 14,3 C 0,0 km/h (0 Bft) 97,14 %
18.06.2017 23:56 14,3 C 23,3 C 75 % 1022,7 hPa 0,0 l/m 0,4 km/h (0 Bft) SO 133 0 min 0,000 mm 0,0 UV-I 0 W/m 9,9 C 14,3 C 1,6 km/h (1 Bft) 97,87 %
18.06.2017 23:58 14,3 C 22,8 C 75 % 1022,7 hPa 0,0 l/m 1,0 km/h (0 Bft) SO 133 0 min 0,000 mm 0,0 UV-I 0 W/m 9,9 C 14,3 C 1,6 km/h (1 Bft) 100,00 %
_ Min-Zeit 04:36 07:16 16:26 19:10 - 00:58 - - - - - - 04:36 05:12 19:18 22:38
Minimum _ 10,4 C 21,7 C 37 % 1021,7 hPa - 0,0 km/h (0 Bft) - - - - - - 7,5 C 10,3 C 0,0 km/h (0 Bft) 87,23 %
_ Max-Zeit 16:24 16:58 03:52 08:16 00:00 07:40 - - 16:03 15:02 12:34 13:42 18:32 16:24 07:40 00:04
Maximum _ 24,1 C 23,9 C 82 % 1024,4 hPa 0,0 l/m 10,7 km/h
SW (2 Bft)
- - 3 min 0,559 mm 8,1 UV-I 1131 W/m 11,4 C 24,1 C 16,1 km/h
W-SW (3 Bft)
100,00 %
Durchschnitt _ 17,7 C 22,8 C 60 % 1023,0 hPa #0,0 l/m 3,2 km/h (1 Bft) W-SW - #12:10 h #4,496 mm 3,1 UV-I 409 W/m 9,2 C 17,7 C 6,0 km/h (2 Bft) 96,71 %